[[{"header":{"parameterUnit":"m.s-1","parameterCategory":1,"la1":31.0,"la2":29.5877,"lo1":-88.7671,"lo2":-86.6584,"dy":0.0162,"dx":0.0185,"nx":115,"ny":88,"refTime":"2023-08-22T12:00:00:Z","depth":0,"parameterNumber":2,"parameterNumberName":"U-component_of_WINDS"},"data":[0.0,0.0,0.0,0.0,0.0,0.0,0.0,0.0,0.0,0.0,0.0,0.0,0.0,0.0,0.0,0.0,0.0,0.0,0.0,0.0,0.0,0.0,0.0,0.0,0.0,0.0,0.0,0.0,0.0,0.0,0.0,0.0,0.0,0.0,0.0,0.0,0.0,0.0,0.0,0.0,0.0,0.0,0.0,0.0,0.0,0.0,0.0,0.0,0.0,0.0,0.0,0.0,0.0,0.0,0.0,0.0,0.0,0.0,0.0,0.0,0.0,0.0,0.0,0.0,0.0,0.0,0.0,0.0,0.0,0.0,0.0,0.0,0.0,0.0,0.0,0.0,0.0,0.0,0.0,0.0,0.0,0.0,0.0,0.0,0.0,0.0,0.0,0.0,0.0,0.0,0.0,0.0,0.0,0.0,0.0,0.0,0.0,0.0,0.0,0.0,0.0,0.0,0.0,0.0,0.0,0.0,0.0,0.0,0.0,0.0,0.0,0.0,0.0,0.0,0.0,0.0,0.0,0.0,0.0,0.0,0.0,0.0,0.0,0.0,0.0,0.0,0.0,0.0,0.0,0.0,0.0,0.0,0.0,0.0,0.0,0.0,0.0,0.0,0.0,0.0,0.0,0.0,0.0,0.0,0.0,0.0,0.0,0.0,0.0,0.0,0.0,0.0,0.0,0.0,0.0,0.0,0.0,0.0,0.0,0.0,0.0,0.0,0.0,0.0,0.0,0.0,0.0,0.0,0.0,0.0,0.0,0.0,0.0,0.0,0.0,0.0,0.0,0.0,0.0,0.0,0.0,0.0,0.0,0.0,0.0,0.0,0.0,0.0,0.0,0.0,0.0,0.0,0.0,0.0,0.0,0.0,0.0,0.0,0.0,0.0,0.0,0.0,0.0,0.0,0.0,0.0,0.0,0.0,0.0,0.0,0.0,0.0,0.0,0.0,0.0,0.0,0.0,0.0,0.0,0.0,0.0,0.0,0.0,0.0,0.0,0.0,0.0,0.0,0.0,0.0,0.0,0.0,0.0,0.0,0.0,0.0,0.0,0.0,0.0,0.0,0.0,0.0,0.0,0.0,0.0,0.0,0.0,0.0,0.0,0.0,0.0,0.0,0.0,0.0,0.0,0.0,0.0,0.0,0.0,0.0,0.0,0.0,0.0,0.0,0.0,0.0,0.0,0.0,0.0,0.0,0.0,0.0,0.0,0.0,0.0,0.0,0.0,0.0,0.0,0.0,0.0,0.0,0.0,0.0,0.0,0.0,0.0,0.0,0.0,0.0,0.0,0.0,0.0,0.0,0.0,0.0,0.0,0.0,0.0,0.0,0.0,0.0,0.0,0.0,0.0,0.0,0.0,0.0,0.0,0.0,0.0,0.0,0.0,0.0,0.0,0.0,0.0,0.0,0.0,0.0,0.0,0.0,0.0,0.0,0.0,0.0,0.0,0.0,0.0,0.0,0.0,0.0,0.0,0.0,0.0,0.0,0.0,0.0,0.0,0.0,0.0,0.0,0.0,0.0,0.0,0.0,0.0,0.0,0.0,0.0,0.0,0.0,0.0,0.0,0.0,0.0,0.0,0.0,0.0,0.0,0.0,0.0,0.0,0.0,0.0,0.0,0.0,0.0,0.0,0.0,0.0,0.0,0.0,0.0,0.0,0.0,0.0,0.0,0.0,0.0,0.0,0.0,0.0,0.0,0.0,0.0,0.0,0.0,0.0,0.0,0.0,0.0,0.0,0.0,0.0,0.0,0.0,0.0,0.0,0.0,0.0,0.0,0.0,0.0,0.0,0.0,0.0,0.0,0.0,0.0,0.0,0.0,0.0,0.0,0.0,0.0,0.0,0.0,0.0,0.0,0.0,0.0,0.0,0.0,0.0,0.0,0.0,0.0,0.0,0.0,0.0,0.0,0.0,0.0,0.0,0.0,0.0,0.0,0.0,0.0,0.0,0.0,0.0,0.0,0.0,0.0,0.0,0.0,0.0,0.0,0.0,0.0,0.0,0.0,0.0,0.0,0.0,0.0,0.0,0.0,0.0,0.0,0.0,0.0,0.0,0.0,0.0,0.0,0.0,0.0,0.0,0.0,0.0,0.0,0.0,0.0,0.0,0.0,0.0,0.0,0.0,0.0,0.0,0.0,0.0,0.0,0.0,0.0,0.0,0.0,0.0,0.0,0.0,0.0,0.0,0.0,0.0,0.0,0.0,0.0,0.0,0.0,0.0,0.0,0.0,0.0,0.0,0.0,0.0,0.0,0.0,0.0,0.0,0.0,0.0,0.0,0.0,0.0,0.0,0.0,0.0,0.0,0.0,0.0,0.0,0.0,0.0,0.0,0.0,0.0,0.0,0.0,0.0,0.0,0.0,0.0,0.0,0.0,0.0,0.0,0.0,0.0,0.0,0.0,0.0,0.0,0.0,0.0,0.0,0.0,0.0,0.0,0.0,0.0,0.0,0.0,0.0,0.0,0.0,0.0,0.0,0.0,0.0,0.0,0.0,0.0,0.0,0.0,0.0,0.0,0.0,0.0,0.0,0.0,0.0,0.0,0.0,0.0,0.0,0.0,0.0,0.0,0.0,0.0,0.0,0.0,0.0,0.0,0.0,0.0,0.0,0.0,0.0,0.0,0.0,0.0,0.0,0.0,0.0,0.0,0.0,0.0,0.0,0.0,0.0,0.0,0.0,0.0,0.0,0.0,0.0,0.0,0.0,0.0,0.0,0.0,0.0,0.0,0.0,0.0,0.0,0.0,0.0,0.0,0.0,0.0,0.0,0.0,0.0,0.0,0.0,0.0,0.0,0.0,0.0,0.0,0.0,0.0,0.0,0.0,0.0,0.0,0.0,0.0,0.0,0.0,0.0,0.0,0.0,0.0,0.0,0.0,0.0,0.0,0.0,0.0,0.0,0.0,0.0,0.0,0.0,0.0,0.0,0.0,0.0,0.0,0.0,0.0,0.0,0.0,0.0,0.0,0.0,0.0,0.0,0.0,0.0,0.0,0.0,0.0,0.0,0.0,0.0,0.0,0.0,0.0,0.0,0.0,0.0,0.0,0.0,0.0,0.0,0.0,0.0,0.0,0.0,0.0,0.0,0.0,0.0,0.0,0.0,0.0,0.0,0.0,0.0,0.0,0.0,0.0,0.0,0.0,0.0,0.0,0.0,0.0,0.0,0.0,0.0,0.0,0.0,0.0,0.0,0.0,0.0,0.0,0.0,0.0,0.0,0.0,0.0,0.0,0.0,0.0,0.0,0.0,0.0,0.0,0.0,0.0,0.0,0.0,0.0,0.0,0.0,0.0,0.0,0.0,0.0,0.0,0.0,0.0,0.0,0.0,0.0,0.0,0.0,0.0,0.0,0.0,0.0,0.0,0.0,0.0,0.0,0.0,0.0,0.0,0.0,0.0,0.0,0.0,0.0,0.0,0.0,0.0,0.0,0.0,0.0,0.0,0.0,0.0,0.0,0.0,0.0,0.0,0.0,0.0,0.0,0.0,0.0,0.0,0.0,0.0,0.0,0.0,0.0,0.0,0.0,0.0,0.0,0.0,0.0,0.0,0.0,0.0,0.0,0.0,0.0,0.0,0.0,0.0,0.0,0.0,0.0,0.0,0.0,0.0,0.0,0.0,0.0,0.0,0.0,0.0,0.0,0.0,0.0,0.0,0.0,0.0,0.0,0.0,0.0,0.0,0.0,0.0,0.0,0.0,0.0,0.0,0.0,0.0,0.0,0.0,0.0,0.0,0.0,0.0,0.0,0.0,0.0,0.0,0.0,0.0,0.0,0.0,0.0,0.0,0.0,0.0,0.0,0.0,0.0,0.0,0.0,0.0,0.0,0.0,0.0,0.0,0.0,0.0,0.0,0.0,0.0,0.0,0.0,0.0,0.0,0.0,0.0,0.0,0.0,0.0,0.0,0.0,0.0,0.0,0.0,0.0,0.0,0.0,0.0,0.0,0.0,0.0,0.0,0.0,0.0,0.0,0.0,0.0,0.0,0.0,0.0,0.0,0.0,0.0,0.0,0.0,0.0,0.0,0.0,0.0,0.0,0.0,0.0,0.0,0.0,0.0,0.0,0.0,0.0,0.0,0.0,0.0,0.0,0.0,0.0,0.0,0.0,0.0,0.0,0.0,0.0,0.0,0.0,0.0,0.0,0.0,0.0,0.0,0.0,0.0,0.0,0.0,0.0,0.0,0.0,0.0,0.0,0.0,0.0,0.0,0.0,0.0,0.0,0.0,0.0,0.0,0.0,0.0,0.0,0.0,0.0,0.0,-2.5915,0.0,0.0,0.0,0.0,0.0,0.0,0.0,0.0,0.0,0.0,0.0,0.0,0.0,0.0,0.0,0.0,0.0,0.0,0.0,0.0,0.0,0.0,0.0,0.0,0.0,0.0,0.0,0.0,0.0,0.0,0.0,0.0,0.0,0.0,0.0,0.0,0.0,0.0,0.0,0.0,0.0,0.0,0.0,0.0,0.0,0.0,0.0,0.0,0.0,0.0,0.0,0.0,0.0,0.0,0.0,0.0,0.0,0.0,0.0,0.0,0.0,0.0,0.0,0.0,0.0,0.0,0.0,0.0,0.0,0.0,0.0,0.0,0.0,0.0,0.0,0.0,0.0,0.0,0.0,0.0,0.0,0.0,0.0,0.0,0.0,0.0,0.0,0.0,0.0,0.0,0.0,0.0,0.0,0.0,0.0,0.0,0.0,0.0,0.0,0.0,0.0,0.0,0.0,0.0,0.0,0.0,0.0,0.0,0.0,0.0,-2.5123,-2.5314,-2.5621,-2.5828,-2.5915,0.0,0.0,0.0,0.0,0.0,0.0,0.0,0.0,0.0,0.0,0.0,0.0,0.0,0.0,0.0,0.0,0.0,0.0,0.0,0.0,0.0,0.0,0.0,0.0,0.0,0.0,0.0,0.0,0.0,0.0,0.0,0.0,0.0,0.0,0.0,0.0,0.0,0.0,0.0,0.0,0.0,0.0,0.0,0.0,0.0,0.0,0.0,0.0,0.0,0.0,0.0,0.0,0.0,0.0,0.0,0.0,0.0,0.0,0.0,0.0,0.0,0.0,0.0,0.0,0.0,0.0,0.0,0.0,0.0,0.0,0.0,0.0,0.0,0.0,0.0,0.0,0.0,0.0,0.0,0.0,0.0,0.0,0.0,0.0,0.0,0.0,0.0,0.0,0.0,0.0,0.0,0.0,0.0,0.0,0.0,0.0,0.0,0.0,0.0,0.0,0.0,0.0,0.0,0.0,0.0,0.0,0.0,0.0,0.0,0.0,0.0,0.0,-2.5567,-2.5775,-2.597,0.0,0.0,0.0,0.0,0.0,0.0,0.0,0.0,0.0,0.0,0.0,0.0,0.0,0.0,0.0,0.0,0.0,0.0,0.0,0.0,0.0,0.0,0.0,0.0,0.0,0.0,0.0,0.0,0.0,0.0,0.0,0.0,0.0,0.0,0.0,0.0,0.0,0.0,0.0,0.0,0.0,0.0,0.0,0.0,0.0,0.0,0.0,0.0,0.0,0.0,0.0,0.0,0.0,0.0,0.0,0.0,0.0,0.0,0.0,0.0,0.0,0.0,0.0,0.0,0.0,0.0,0.0,0.0,0.0,0.0,0.0,0.0,0.0,0.0,0.0,0.0,0.0,0.0,0.0,0.0,0.0,0.0,0.0,0.0,0.0,0.0,0.0,0.0,0.0,0.0,0.0,0.0,0.0,0.0,0.0,0.0,0.0,0.0,0.0,0.0,0.0,0.0,0.0,0.0,0.0,0.0,0.0,0.0,0.0,0.0,-2.4982,-2.5294,-2.5567,0.0,-2.6166,0.0,0.0,0.0,0.0,0.0,0.0,0.0,0.0,0.0,0.0,0.0,0.0,0.0,0.0,0.0,0.0,0.0,0.0,0.0,0.0,0.0,0.0,0.0,0.0,0.0,0.0,0.0,0.0,0.0,0.0,0.0,0.0,0.0,0.0,0.0,0.0,0.0,0.0,0.0,0.0,0.0,0.0,0.0,0.0,0.0,0.0,0.0,0.0,0.0,0.0,0.0,0.0,0.0,0.0,0.0,0.0,0.0,0.0,0.0,0.0,0.0,0.0,0.0,0.0,0.0,0.0,0.0,0.0,0.0,0.0,0.0,0.0,0.0,0.0,0.0,0.0,0.0,0.0,0.0,0.0,0.0,0.0,0.0,0.0,0.0,0.0,0.0,0.0,0.0,0.0,0.0,0.0,0.0,0.0,0.0,0.0,0.0,0.0,0.0,0.0,0.0,0.0,0.0,0.0,0.0,0.0,0.0,0.0,0.0,0.0,-2.4866,-2.5294,-2.5624,-2.5936,0.0,0.0,0.0,0.0,0.0,0.0,0.0,0.0,0.0,0.0,0.0,0.0,0.0,0.0,0.0,0.0,0.0,0.0,0.0,0.0,0.0,0.0,0.0,0.0,0.0,0.0,0.0,0.0,0.0,0.0,0.0,0.0,0.0,0.0,0.0,0.0,0.0,0.0,0.0,0.0,0.0,0.0,0.0,0.0,0.0,0.0,0.0,0.0,0.0,0.0,0.0,0.0,0.0,0.0,0.0,0.0,0.0,0.0,0.0,0.0,0.0,0.0,0.0,0.0,0.0,0.0,0.0,0.0,0.0,0.0,0.0,0.0,0.0,0.0,0.0,0.0,0.0,0.0,0.0,0.0,0.0,0.0,0.0,0.0,0.0,0.0,0.0,0.0,0.0,0.0,0.0,0.0,0.0,0.0,0.0,0.0,0.0,0.0,0.0,0.0,0.0,0.0,0.0,0.0,0.0,0.0,0.0,0.0,0.0,0.0,-2.4609,-2.4851,-2.5355,-2.5731,-2.5989,-2.6202,0.0,0.0,0.0,0.0,0.0,0.0,0.0,0.0,0.0,0.0,0.0,0.0,0.0,0.0,0.0,0.0,0.0,0.0,0.0,0.0,0.0,0.0,0.0,0.0,0.0,0.0,0.0,0.0,0.0,0.0,0.0,0.0,0.0,0.0,0.0,0.0,0.0,0.0,0.0,0.0,0.0,0.0,0.0,0.0,0.0,0.0,0.0,0.0,0.0,0.0,0.0,0.0,0.0,0.0,0.0,0.0,0.0,0.0,0.0,0.0,0.0,0.0,0.0,0.0,0.0,0.0,0.0,0.0,0.0,0.0,0.0,0.0,0.0,0.0,0.0,0.0,0.0,0.0,0.0,0.0,0.0,0.0,0.0,0.0,0.0,0.0,0.0,0.0,0.0,0.0,0.0,0.0,0.0,0.0,0.0,0.0,0.0,0.0,0.0,0.0,0.0,0.0,0.0,0.0,0.0,0.0,0.0,0.0,-2.4589,-2.4609,-2.4914,-2.5549,-2.5789,-2.5989,0.0,0.0,0.0,0.0,0.0,0.0,0.0,0.0,0.0,0.0,0.0,0.0,0.0,0.0,0.0,0.0,0.0,0.0,0.0,0.0,0.0,0.0,0.0,0.0,0.0,0.0,0.0,0.0,0.0,0.0,0.0,0.0,0.0,0.0,0.0,0.0,0.0,0.0,0.0,0.0,0.0,0.0,0.0,0.0,0.0,0.0,0.0,0.0,0.0,0.0,0.0,0.0,0.0,0.0,0.0,0.0,0.0,0.0,0.0,0.0,0.0,0.0,0.0,0.0,0.0,0.0,0.0,0.0,0.0,0.0,0.0,0.0,0.0,0.0,0.0,0.0,0.0,0.0,0.0,0.0,0.0,0.0,0.0,0.0,0.0,0.0,0.0,0.0,0.0,0.0,0.0,0.0,0.0,0.0,0.0,0.0,0.0,0.0,0.0,0.0,0.0,0.0,0.0,0.0,0.0,0.0,0.0,0.0,0.0,-2.4589,-2.4906,-2.5243,-2.5645,-2.5826,-2.5989,0.0,0.0,0.0,0.0,0.0,0.0,0.0,0.0,0.0,0.0,0.0,0.0,0.0,0.0,0.0,0.0,0.0,0.0,0.0,0.0,0.0,0.0,0.0,0.0,0.0,0.0,0.0,0.0,0.0,0.0,0.0,0.0,0.0,0.0,0.0,0.0,0.0,0.0,0.0,0.0,0.0,0.0,0.0,0.0,0.0,0.0,0.0,0.0,0.0,0.0,0.0,0.0,0.0,0.0,0.0,0.0,0.0,0.0,0.0,0.0,0.0,0.0,0.0,0.0,0.0,0.0,0.0,0.0,0.0,0.0,0.0,0.0,0.0,0.0,0.0,0.0,0.0,0.0,0.0,0.0,0.0,0.0,0.0,0.0,0.0,0.0,0.0,0.0,0.0,0.0,0.0,0.0,0.0,0.0,0.0,0.0,0.0,0.0,0.0,0.0,0.0,0.0,0.0,0.0,0.0,0.0,0.0,0.0,0.0,-2.465,0.0,-2.5432,-2.5666,-2.5809,-2.6007,0.0,0.0,0.0,0.0,0.0,0.0,0.0,0.0,0.0,0.0,0.0,0.0,0.0,0.0,0.0,0.0,0.0,0.0,0.0,0.0,0.0,0.0,0.0,0.0,0.0,0.0,0.0,0.0,0.0,0.0,0.0,0.0,0.0,0.0,0.0,0.0,0.0,0.0,0.0,0.0,0.0,0.0,0.0,0.0,0.0,0.0,0.0,0.0,0.0,0.0,0.0,0.0,0.0,0.0,0.0,0.0,0.0,0.0,0.0,0.0,0.0,0.0,0.0,0.0,0.0,0.0,0.0,0.0,0.0,0.0,0.0,0.0,0.0,0.0,0.0,0.0,0.0,0.0,0.0,0.0,0.0,0.0,0.0,0.0,0.0,0.0,0.0,0.0,0.0,0.0,0.0,0.0,0.0,0.0,0.0,0.0,0.0,0.0,0.0,0.0,0.0,0.0,0.0,0.0,0.0,0.0,0.0,0.0,-2.4426,-2.4818,-2.5171,-2.5499,-2.5717,-2.5877,-2.6043,0.0,0.0,0.0,0.0,0.0,0.0,0.0,0.0,0.0,0.0,0.0,0.0,0.0,0.0,0.0,0.0,0.0,0.0,0.0,0.0,0.0,0.0,0.0,0.0,0.0,0.0,0.0,0.0,0.0,0.0,0.0,0.0,0.0,0.0,0.0,0.0,0.0,0.0,0.0,0.0,0.0,0.0,0.0,0.0,0.0,0.0,0.0,0.0,0.0,0.0,0.0,0.0,0.0,0.0,0.0,0.0,0.0,0.0,0.0,0.0,0.0,0.0,0.0,0.0,0.0,0.0,0.0,0.0,0.0,0.0,0.0,0.0,0.0,0.0,0.0,0.0,0.0,0.0,0.0,0.0,0.0,0.0,0.0,0.0,0.0,0.0,0.0,0.0,0.0,0.0,0.0,0.0,0.0,0.0,0.0,0.0,0.0,0.0,0.0,0.0,0.0,0.0,0.0,0.0,0.0,0.0,0.0,0.0,0.0,-2.5758,-2.6097,-2.6351,-2.651,-2.6656,-2.6592,0.0,0.0,0.0,0.0,0.0,0.0,0.0,0.0,0.0,0.0,0.0,0.0,0.0,0.0,0.0,0.0,0.0,0.0,0.0,0.0,0.0,0.0,0.0,0.0,0.0,0.0,0.0,0.0,0.0,0.0,0.0,0.0,0.0,0.0,0.0,0.0,0.0,0.0,0.0,0.0,0.0,0.0,0.0,0.0,0.0,0.0,0.0,0.0,0.0,0.0,0.0,0.0,0.0,0.0,0.0,0.0,0.0,0.0,0.0,0.0,0.0,0.0,0.0,0.0,0.0,0.0,0.0,0.0,0.0,0.0,0.0,0.0,0.0,0.0,0.0,0.0,0.0,0.0,0.0,0.0,0.0,0.0,0.0,0.0,0.0,0.0,0.0,0.0,0.0,0.0,0.0,0.0,0.0,0.0,0.0,0.0,0.0,0.0,0.0,0.0,0.0,0.0,0.0,0.0,0.0,0.0,0.0,0.0,0.0,-2.6946,-2.7009,-2.716,-2.7364,-2.7509,-2.7348,-2.6852,0.0,0.0,0.0,0.0,0.0,0.0,0.0,0.0,0.0,0.0,0.0,0.0,0.0,0.0,0.0,0.0,0.0,0.0,0.0,0.0,0.0,0.0,0.0,0.0,0.0,0.0,0.0,0.0,0.0,0.0,0.0,0.0,0.0,0.0,0.0,0.0,0.0,0.0,0.0,0.0,0.0,0.0,0.0,0.0,0.0,0.0,0.0,0.0,0.0,0.0,0.0,0.0,0.0,0.0,0.0,0.0,0.0,0.0,0.0,0.0,0.0,0.0,0.0,0.0,0.0,0.0,0.0,0.0,0.0,0.0,0.0,0.0,0.0,0.0,0.0,0.0,0.0,0.0,0.0,0.0,0.0,0.0,0.0,0.0,0.0,0.0,0.0,0.0,0.0,0.0,0.0,0.0,0.0,0.0,0.0,0.0,0.0,0.0,0.0,0.0,0.0,0.0,0.0,0.0,0.0,0.0,0.0,0.0,-2.8262,-2.7944,-2.7916,-2.8234,-2.8384,-2.821,0.0,0.0,0.0,0.0,0.0,0.0,0.0,0.0,0.0,0.0,0.0,0.0,0.0,0.0,0.0,0.0,0.0,0.0,0.0,0.0,0.0,0.0,0.0,0.0,0.0,0.0,0.0,0.0,0.0,0.0,0.0,0.0,0.0,0.0,0.0,0.0,0.0,0.0,0.0,0.0,0.0,0.0,0.0,0.0,0.0,0.0,0.0,0.0,0.0,0.0,0.0,0.0,0.0,0.0,0.0,0.0,0.0,0.0,0.0,0.0,0.0,0.0,0.0,0.0,0.0,0.0,0.0,0.0,0.0,0.0,0.0,0.0,0.0,0.0,0.0,0.0,0.0,0.0,0.0,0.0,0.0,0.0,0.0,0.0,0.0,0.0,0.0,0.0,0.0,0.0,0.0,0.0,0.0,0.0,0.0,0.0,0.0,0.0,0.0,0.0,0.0,0.0,0.0,0.0,0.0,0.0,0.0,0.0,0.0,-2.8299,-2.9006,-2.9223,-2.8886,-2.9152,-2.8748,0.0,0.0,0.0,0.0,0.0,0.0,0.0,0.0,0.0,0.0,0.0,0.0,0.0,0.0,0.0,0.0,0.0,0.0,0.0,0.0,0.0,0.0,0.0,0.0,0.0,0.0,0.0,0.0,0.0,0.0,0.0,0.0,0.0,0.0,0.0,0.0,0.0,0.0,0.0,0.0,0.0,0.0,0.0,0.0,0.0,0.0,0.0,0.0,0.0,0.0,0.0,0.0,0.0,0.0,0.0,0.0,0.0,0.0,0.0,0.0,0.0,0.0,0.0,0.0,0.0,0.0,0.0,0.0,0.0,0.0,0.0,0.0,0.0,0.0,0.0,0.0,0.0,0.0,0.0,0.0,0.0,0.0,0.0,0.0,0.0,0.0,0.0,0.0,0.0,0.0,0.0,0.0,0.0,0.0,0.0,0.0,0.0,0.0,0.0,0.0,0.0,0.0,0.0,0.0,0.0,0.0,0.0,0.0,-2.8348,-2.8878,-2.961,-2.9869,-2.9666,-2.9978,-2.9627,0.0,0.0,0.0,0.0,0.0,0.0,0.0,0.0,0.0,0.0,0.0,0.0,0.0,0.0,0.0,0.0,0.0,0.0,0.0,0.0,0.0,0.0,0.0,0.0,0.0,0.0,0.0,0.0,0.0,0.0,0.0,0.0,0.0,0.0,0.0,0.0,0.0,0.0,0.0,0.0,0.0,0.0,0.0,0.0,0.0,0.0,0.0,0.0,0.0,0.0,0.0,0.0,0.0,0.0,0.0,0.0,0.0,0.0,0.0,0.0,0.0,0.0,0.0,0.0,0.0,0.0,0.0,0.0,0.0,0.0,0.0,0.0,0.0,0.0,0.0,0.0,0.0,0.0,0.0,0.0,0.0,0.0,0.0,0.0,0.0,0.0,0.0,0.0,0.0,0.0,0.0,0.0,0.0,0.0,0.0,0.0,0.0,0.0,0.0,0.0,0.0,0.0,0.0,0.0,0.0,0.0,0.0,0.0,-2.8752,-2.9687,-2.9924,-3.0146,-3.0417,-3.0729,-3.0599,0.0,0.0,0.0,0.0,0.0,0.0,0.0,0.0,0.0,0.0,0.0,0.0,0.0,0.0,0.0,0.0,0.0,0.0,0.0,0.0,0.0,0.0,0.0,0.0,0.0,0.0,0.0,0.0,0.0,0.0,0.0,0.0,0.0,0.0,0.0,0.0,0.0,0.0,0.0,0.0,0.0,0.0,0.0,0.0,0.0,0.0,0.0,0.0,0.0,0.0,0.0,0.0,0.0,0.0,0.0,0.0,0.0,0.0,0.0,0.0,0.0,0.0,0.0,0.0,0.0,0.0,0.0,0.0,0.0,0.0,0.0,0.0,0.0,0.0,0.0,0.0,0.0,0.0,0.0,0.0,0.0,0.0,0.0,0.0,0.0,0.0,0.0,0.0,0.0,0.0,0.0,0.0,0.0,0.0,0.0,0.0,0.0,0.0,0.0,0.0,0.0,0.0,0.0,0.0,0.0,0.0,0.0,0.0,-2.9514,-2.9766,-3.0038,-3.0253,-3.0485,-3.077,-3.054,0.0,0.0,0.0,0.0,0.0,0.0,0.0,0.0,0.0,0.0,0.0,0.0,0.0,0.0,0.0,0.0,0.0,0.0,0.0,0.0,0.0,0.0,0.0,0.0,0.0,0.0,0.0,0.0,0.0,0.0,0.0,0.0,0.0,0.0,0.0,0.0,0.0,0.0,0.0,0.0,0.0,0.0,0.0,0.0,0.0,0.0,0.0,0.0,-2.5367,0.0,0.0,0.0,0.0,0.0,0.0,0.0,0.0,0.0,0.0,0.0,0.0,0.0,0.0,0.0,0.0,0.0,0.0,0.0,0.0,0.0,0.0,0.0,0.0,0.0,0.0,0.0,0.0,0.0,0.0,0.0,0.0,0.0,0.0,0.0,0.0,0.0,0.0,0.0,0.0,0.0,0.0,0.0,0.0,0.0,0.0,0.0,0.0,0.0,0.0,0.0,0.0,0.0,0.0,0.0,0.0,0.0,0.0,0.0,-2.9804,-3.0,-3.0172,-3.038,-3.0589,-3.0773,-3.0727,0.0,0.0,0.0,0.0,0.0,0.0,0.0,0.0,0.0,0.0,0.0,0.0,0.0,0.0,0.0,0.0,0.0,0.0,0.0,0.0,0.0,0.0,0.0,0.0,0.0,0.0,0.0,0.0,0.0,0.0,0.0,0.0,0.0,0.0,0.0,0.0,0.0,0.0,0.0,0.0,0.0,0.0,0.0,0.0,0.0,0.0,0.0,0.0,0.0,0.0,0.0,0.0,0.0,0.0,0.0,0.0,0.0,0.0,0.0,0.0,0.0,0.0,0.0,0.0,0.0,0.0,0.0,0.0,0.0,0.0,0.0,0.0,0.0,0.0,0.0,0.0,0.0,0.0,0.0,0.0,0.0,0.0,0.0,0.0,0.0,0.0,0.0,0.0,0.0,0.0,0.0,0.0,0.0,0.0,0.0,0.0,0.0,0.0,0.0,0.0,0.0,0.0,0.0,0.0,0.0,0.0,0.0,-2.9409,-2.9979,-3.0227,-3.0338,-3.0522,-3.0729,-3.0851,-3.0952,-3.0998,0.0,0.0,0.0,0.0,0.0,0.0,0.0,0.0,0.0,0.0,0.0,0.0,0.0,0.0,0.0,0.0,0.0,0.0,0.0,0.0,0.0,0.0,0.0,0.0,0.0,0.0,0.0,0.0,0.0,0.0,0.0,0.0,0.0,0.0,0.0,0.0,0.0,0.0,-2.3759,-2.4343,0.0,0.0,0.0,0.0,0.0,0.0,0.0,0.0,-2.724,0.0,0.0,0.0,0.0,0.0,0.0,0.0,0.0,0.0,0.0,0.0,0.0,0.0,0.0,0.0,0.0,0.0,0.0,0.0,0.0,0.0,0.0,0.0,0.0,0.0,0.0,0.0,0.0,0.0,0.0,0.0,0.0,0.0,0.0,0.0,0.0,0.0,0.0,0.0,0.0,0.0,0.0,0.0,0.0,0.0,0.0,0.0,0.0,0.0,0.0,0.0,0.0,0.0,0.0,0.0,0.0,-2.9544,-2.9827,-3.0081,-3.0359,-3.0396,-3.0547,-3.0834,-3.0892,-3.0992,-3.1083,0.0,0.0,0.0,0.0,0.0,0.0,0.0,0.0,0.0,0.0,0.0,0.0,0.0,0.0,0.0,0.0,0.0,0.0,0.0,0.0,0.0,0.0,0.0,0.0,0.0,0.0,0.0,0.0,0.0,0.0,0.0,0.0,0.0,0.0,0.0,0.0,0.0,0.0,0.0,-2.5008,-2.5457,0.0,0.0,0.0,0.0,0.0,0.0,0.0,0.0,-2.7285,0.0,0.0,0.0,0.0,0.0,0.0,0.0,0.0,0.0,0.0,0.0,0.0,0.0,0.0,0.0,0.0,0.0,0.0,0.0,0.0,0.0,0.0,0.0,0.0,0.0,0.0,0.0,0.0,0.0,0.0,0.0,0.0,0.0,0.0,0.0,0.0,0.0,0.0,0.0,0.0,0.0,0.0,0.0,0.0,0.0,0.0,0.0,0.0,0.0,0.0,0.0,0.0,0.0,0.0,0.0,-2.9793,-3.0065,-3.0274,-3.038,-3.0501,-3.0667,-3.0892,-3.0932,-3.1032,0.0,0.0,0.0,0.0,0.0,0.0,0.0,0.0,0.0,0.0,0.0,0.0,0.0,0.0,0.0,0.0,0.0,0.0,0.0,0.0,0.0,0.0,0.0,0.0,0.0,0.0,0.0,0.0,0.0,0.0,0.0,0.0,0.0,0.0,0.0,0.0,0.0,0.0,0.0,0.0,-2.5719,-2.6243,-2.6596,0.0,0.0,0.0,0.0,0.0,0.0,-2.7585,-2.7375,0.0,0.0,0.0,0.0,0.0,0.0,0.0,0.0,0.0,0.0,0.0,0.0,0.0,0.0,0.0,0.0,0.0,0.0,0.0,0.0,0.0,0.0,0.0,0.0,0.0,0.0,0.0,0.0,0.0,0.0,0.0,0.0,0.0,0.0,0.0,0.0,0.0,0.0,0.0,0.0,0.0,0.0,0.0,0.0,0.0,0.0,0.0,0.0,0.0,0.0,0.0,0.0,0.0,0.0,0.0,-2.9919,-3.0236,-3.0417,-3.048,-3.0626,-3.079,-3.0932,-3.0975,-3.1055,0.0,0.0,0.0,0.0,0.0,0.0,0.0,0.0,0.0,0.0,0.0,0.0,0.0,0.0,0.0,0.0,0.0,0.0,0.0,0.0,0.0,0.0,0.0,0.0,0.0,0.0,0.0,0.0,0.0,0.0,0.0,0.0,0.0,0.0,0.0,0.0,0.0,0.0,0.0,0.0,0.0,-2.6976,-2.751,-2.7585,0.0,0.0,0.0,0.0,-2.7585,-2.7585,0.0,0.0,0.0,0.0,0.0,0.0,0.0,0.0,0.0,0.0,0.0,0.0,0.0,0.0,0.0,0.0,0.0,0.0,0.0,0.0,0.0,0.0,0.0,0.0,0.0,0.0,0.0,0.0,0.0,0.0,0.0,0.0,0.0,0.0,0.0,0.0,0.0,0.0,0.0,0.0,0.0,0.0,0.0,0.0,0.0,0.0,0.0,0.0,0.0,0.0,0.0,0.0,0.0,0.0,0.0,0.0,-3.0316,-3.0396,-3.048,-3.0651,-3.0671,-3.0794,-3.0975,-3.1012,-3.1072,0.0,0.0,0.0,0.0,0.0,0.0,0.0,0.0,0.0,0.0,0.0,0.0,0.0,0.0,0.0,0.0,0.0,0.0,0.0,0.0,0.0,0.0,0.0,0.0,0.0,0.0,0.0,0.0,0.0,0.0,0.0,0.0,0.0,0.0,0.0,0.0,0.0,0.0,0.0,0.0,0.0,-2.751,-2.7585,-2.7585,-2.7585,0.0,0.0,-2.7585,-2.7585,-2.7585,0.0,0.0,0.0,0.0,0.0,0.0,0.0,0.0,0.0,0.0,0.0,0.0,0.0,0.0,0.0,0.0,0.0,0.0,0.0,0.0,0.0,0.0,0.0,0.0,0.0,0.0,0.0,0.0,0.0,0.0,0.0,0.0,0.0,0.0,0.0,0.0,0.0,0.0,0.0,0.0,0.0,0.0,0.0,0.0,0.0,0.0,0.0,0.0,0.0,0.0,0.0,0.0,0.0,0.0,0.0,-3.0065,-3.038,-3.0522,-3.0609,-3.0692,-3.0814,-3.0915,-3.1012,-3.1055,-3.1151,0.0,0.0,0.0,0.0,0.0,0.0,0.0,0.0,0.0,0.0,0.0,0.0,0.0,0.0,0.0,0.0,0.0,0.0,0.0,0.0,0.0,0.0,0.0,0.0,0.0,0.0,0.0,0.0,0.0,0.0,0.0,0.0,0.0,0.0,0.0,0.0,0.0,0.0,0.0,0.0,0.0,0.0,-2.7585,-2.7585,0.0,0.0,0.0,-2.7585,-2.7585,0.0,0.0,0.0,0.0,0.0,0.0,0.0,0.0,0.0,0.0,0.0,0.0,0.0,0.0,0.0,0.0,0.0,0.0,0.0,0.0,0.0,0.0,0.0,0.0,0.0,0.0,0.0,0.0,0.0,0.0,0.0,0.0,0.0,0.0,0.0,0.0,0.0,0.0,0.0,0.0,0.0,0.0,0.0,0.0,0.0,0.0,0.0,0.0,0.0,0.0,0.0,0.0,0.0,0.0,0.0,0.0,0.0,-3.048,-3.063,-3.0733,-3.0773,-3.0898,-3.1015,-3.1052,-3.1151,0.0,0.0,0.0,0.0,0.0,0.0,0.0,0.0,0.0,0.0,0.0,0.0,0.0,0.0,0.0,0.0,0.0,0.0,0.0,0.0,0.0,0.0,0.0,0.0,0.0,0.0,0.0,-2.4625,0.0,0.0,0.0,0.0,0.0,0.0,0.0,0.0,0.0,0.0,0.0,0.0,0.0,0.0,-2.7585,-2.7585,-2.7585,-2.7585,0.0,0.0,-2.7585,-2.7585,-2.7585,-2.7585,0.0,0.0,0.0,0.0,0.0,0.0,0.0,0.0,0.0,0.0,0.0,0.0,0.0,0.0,0.0,0.0,0.0,0.0,0.0,0.0,0.0,0.0,0.0,0.0,0.0,0.0,0.0,0.0,0.0,0.0,0.0,0.0,0.0,0.0,0.0,0.0,0.0,0.0,0.0,0.0,0.0,0.0,0.0,0.0,0.0,0.0,0.0,0.0,0.0,0.0,0.0,0.0,0.0,0.0,0.0,-3.0671,-3.0708,-3.0794,-3.0975,-3.0995,-3.1055,-3.1171,-3.119,-3.119,0.0,0.0,0.0,0.0,0.0,0.0,0.0,0.0,0.0,0.0,0.0,0.0,0.0,0.0,0.0,0.0,0.0,0.0,0.0,0.0,0.0,0.0,0.0,0.0,0.0,0.0,0.0,0.0,0.0,0.0,0.0,0.0,0.0,0.0,0.0,0.0,0.0,0.0,0.0,0.0,0.0,-2.7585,-2.7585,-2.7585,-2.7585,0.0,0.0,-2.7585,-2.7585,-2.7585,-2.7585,-2.7585,0.0,0.0,0.0,0.0,0.0,0.0,0.0,0.0,0.0,0.0,0.0,0.0,0.0,0.0,0.0,0.0,0.0,0.0,0.0,0.0,0.0,0.0,0.0,0.0,0.0,0.0,0.0,0.0,0.0,0.0,0.0,0.0,0.0,0.0,0.0,0.0,0.0,0.0,0.0,0.0,0.0,0.0,0.0,0.0,0.0,0.0,0.0,0.0,0.0,0.0,0.0,0.0,0.0,-3.0568,-3.0831,-3.0871,-3.0915,-3.0995,-3.1092,-3.1151,-3.119,-3.119,-3.119,0.0,0.0,0.0,0.0,0.0,0.0,0.0,0.0,0.0,0.0,0.0,0.0,0.0,0.0,0.0,0.0,0.0,0.0,0.0,0.0,0.0,0.0,0.0,0.0,0.0,0.0,0.0,0.0,-2.44,-2.434,-2.4522,0.0,0.0,0.0,0.0,0.0,0.0,0.0,0.0,0.0,0.0,-2.7585,-2.7585,-2.7585,0.0,0.0,-2.7585,-2.7585,-2.7585,-2.7585,-2.7585,-2.7585,-2.739,0.0,0.0,0.0,0.0,0.0,0.0,0.0,0.0,0.0,0.0,0.0,0.0,0.0,0.0,0.0,0.0,0.0,0.0,0.0,0.0,0.0,0.0,0.0,0.0,0.0,0.0,0.0,0.0,0.0,0.0,0.0,0.0,0.0,0.0,0.0,0.0,0.0,0.0,0.0,0.0,0.0,0.0,0.0,0.0,0.0,0.0,0.0,0.0,0.0,0.0,0.0,0.0,-3.0692,-3.0915,-3.0975,-3.1032,-3.1072,-3.1151,-3.119,-3.119,-3.119,-3.119,0.0,0.0,0.0,0.0,0.0,0.0,0.0,0.0,0.0,0.0,0.0,0.0,0.0,0.0,0.0,0.0,0.0,0.0,0.0,0.0,0.0,0.0,0.0,0.0,0.0,0.0,0.0,0.0,-2.4508,-2.4516,-2.5024,0.0,0.0,0.0,0.0,0.0,0.0,0.0,0.0,0.0,0.0,-2.765,-2.76,-2.7585,-2.7585,-2.7585,-2.7585,-2.7585,-2.7585,-2.7585,-2.7585,-2.7585,0.0,0.0,0.0,0.0,0.0,0.0,0.0,0.0,0.0,0.0,0.0,0.0,0.0,0.0,0.0,0.0,0.0,0.0,0.0,0.0,0.0,0.0,0.0,0.0,0.0,0.0,0.0,0.0,0.0,0.0,-2.8201,0.0,0.0,0.0,0.0,0.0,0.0,0.0,0.0,0.0,0.0,0.0,0.0,0.0,0.0,0.0,0.0,0.0,0.0,0.0,0.0,0.0,0.0,-3.0794,-3.1012,-3.0995,-3.1055,-3.119,-3.119,-3.119,-3.119,-3.119,-3.119,-3.119,0.0,0.0,0.0,0.0,0.0,0.0,0.0,0.0,0.0,0.0,0.0,0.0,0.0,0.0,0.0,0.0,0.0,0.0,0.0,0.0,0.0,0.0,0.0,0.0,0.0,0.0,-2.4938,-2.4569,-2.4594,0.0,0.0,0.0,0.0,0.0,0.0,0.0,0.0,0.0,0.0,-2.7815,-2.774,-2.7625,-2.7585,-2.7585,-2.7585,-2.7585,-2.7585,-2.7585,-2.7585,-2.7585,0.0,0.0,0.0,0.0,0.0,0.0,0.0,0.0,0.0,0.0,0.0,0.0,0.0,0.0,0.0,0.0,0.0,0.0,0.0,0.0,0.0,0.0,0.0,0.0,0.0,0.0,0.0,-2.976,-2.9742,0.0,0.0,0.0,0.0,0.0,0.0,0.0,0.0,0.0,0.0,0.0,-3.0233,-3.0177,0.0,0.0,0.0,0.0,0.0,0.0,0.0,0.0,0.0,0.0,0.0,0.0,-3.0975,-3.1131,-3.1131,-3.1151,-3.119,-3.119,-3.119,-3.119,-3.1252,-3.131,-3.1385,0.0,0.0,0.0,0.0,0.0,0.0,0.0,0.0,0.0,0.0,0.0,0.0,0.0,0.0,0.0,0.0,0.0,0.0,0.0,0.0,0.0,0.0,0.0,0.0,0.0,-2.5476,0.0,0.0,0.0,0.0,0.0,0.0,0.0,0.0,0.0,0.0,0.0,-2.7844,-2.7925,-2.779,-2.765,-2.76,-2.7585,-2.7585,0.0,0.0,0.0,0.0,0.0,0.0,0.0,0.0,0.0,0.0,0.0,0.0,0.0,0.0,-2.6656,-2.5779,-2.56,-2.56,-2.56,0.0,0.0,0.0,0.0,0.0,0.0,0.0,0.0,0.0,0.0,0.0,0.0,0.0,0.0,-3.0728,0.0,-3.0381,0.0,0.0,0.0,0.0,0.0,0.0,0.0,0.0,-3.0912,-3.1075,-3.1072,-3.1032,-3.1029,0.0,-3.0505,-3.0034,0.0,0.0,0.0,0.0,0.0,0.0,0.0,0.0,-3.1055,-3.119,-3.119,-3.119,-3.119,-3.1213,-3.1232,-3.1232,-3.1329,-3.1423,-3.1498,-3.1481,-3.124,0.0,0.0,0.0,0.0,0.0,0.0,0.0,0.0,0.0,0.0,0.0,0.0,0.0,0.0,0.0,0.0,0.0,0.0,0.0,0.0,0.0,0.0,0.0,-2.6428,0.0,0.0,0.0,0.0,0.0,0.0,0.0,0.0,0.0,-2.8724,-2.8486,-2.8284,-2.8168,-2.794,-2.7775,-2.7675,0.0,0.0,0.0,0.0,0.0,0.0,0.0,-2.77,-2.779,-2.784,-2.7905,-2.798,-2.793,-2.7865,-2.7865,0.0,0.0,-2.6462,-2.6288,-2.6288,-2.6288,-2.6288,-2.6303,-2.6288,-2.6656,-2.6956,0.0,0.0,0.0,0.0,0.0,0.0,0.0,0.0,-3.2121,-3.247,0.0,-3.1629,0.0,0.0,0.0,0.0,0.0,-3.0968,0.0,0.0,-3.1232,-3.1227,-3.121,-3.121,-3.119,-3.1173,-3.121,-3.1193,-3.1089,-2.9566,0.0,0.0,0.0,0.0,0.0,0.0,-3.1072,-3.119,-3.121,-3.121,-3.121,-3.1274,-3.1332,-3.1315,-3.1462,-3.1517,-3.1519,-3.1519,-3.1517,-3.15,-3.0725,0.0,0.0,0.0,0.0,0.0,0.0,0.0,0.0,0.0,0.0,0.0,0.0,0.0,0.0,0.0,0.0,0.0,0.0,0.0,0.0,-2.7863,0.0,0.0,0.0,0.0,0.0,0.0,0.0,0.0,0.0,0.0,-2.8951,-2.8724,-2.8565,-2.842,0.0,0.0,0.0,0.0,-2.7765,-2.765,-2.7625,-2.7625,-2.7625,-2.7725,-2.7831,-2.7815,0.0,0.0,-2.8029,-2.8029,-2.8029,-2.8005,-2.802,-2.793,-2.7645,-2.7535,-2.755,-2.7565,-2.7535,-2.7595,-2.761,-2.7545,-2.758,-3.2657,0.0,0.0,0.0,0.0,-3.2099,-3.2188,-3.2156,-3.2367,-3.254,-3.2588,-3.2227,0.0,0.0,0.0,0.0,0.0,0.0,-3.144,-3.1443,-3.1404,-3.1421,-3.1402,-3.1329,-3.1274,-3.1274,-3.1274,-3.1274,-3.1274,-3.0902,-3.0741,-3.0791,0.0,0.0,0.0,0.0,-3.1173,-3.1254,-3.1274,-3.1329,-3.1421,-3.144,-3.1519,-3.1653,-3.1707,-3.1764,-3.1911,-3.1946,-3.1874,-3.1784,-3.1558,0.0,0.0,0.0,0.0,0.0,0.0,0.0,0.0,0.0,0.0,0.0,0.0,0.0,0.0,0.0,0.0,0.0,0.0,0.0,-2.8325,-2.8315,-2.8292,0.0,0.0,0.0,0.0,0.0,0.0,0.0,0.0,0.0,-2.9502,-2.9006,-2.8645,0.0,0.0,-2.8299,-2.8113,-2.8088,-2.8054,-2.7905,-2.7865,0.0,-2.789,-2.793,-2.8005,-2.8201,-2.842,-2.858,-2.858,-2.8493,-2.8405,-2.842,-2.8348,-2.8226,-2.8063,-2.794,-2.7905,-2.7865,-2.788,-2.7865,-2.7905,-2.7865,-2.7855,-3.3715,-3.3599,-3.3263,-3.2979,-3.2753,-3.2753,-3.2739,-3.269,-3.2691,-3.2706,-3.2755,-3.2608,-3.2558,-3.2542,-3.2267,0.0,0.0,0.0,-3.1614,-3.1631,-3.1557,-3.1519,-3.1498,-3.1423,-3.1387,-3.137,-3.1387,-3.1387,-3.137,-3.1462,-3.144,-3.1308,0.0,0.0,-3.1308,-3.1325,-3.1329,-3.1387,-3.1387,-3.1406,-3.1481,-3.1593,-3.1707,-3.1893,-3.1929,-3.2019,-3.2126,-3.2161,-3.2144,-3.2056,-3.202,-3.1793,0.0,0.0,0.0,0.0,0.0,0.0,0.0,0.0,0.0,0.0,0.0,-2.8474,0.0,0.0,0.0,0.0,-2.9211,-2.9229,-2.9173,-2.9307,0.0,0.0,0.0,0.0,0.0,0.0,0.0,-2.9941,-2.9897,-2.987,-2.9814,-2.9425,-2.9082,-2.8905,-2.87,-2.8549,-2.8414,0.0,-2.8308,-2.8177,-2.8168,-2.8152,-2.8152,-2.8201,-2.84,-2.8896,-2.9088,-2.9309,-2.9559,-2.9526,-2.9461,-2.9452,-2.9403,-2.933,-2.9255,-2.8956,-2.8516,-2.809,-2.798,-2.798,-2.798,-2.798,-2.7955,-3.4669,-3.4624,-3.384,-3.3342,-3.3028,-3.3028,-3.3011,-3.2995,-3.2948,-3.2948,-3.2995,-3.287,-3.2807,-3.2774,-3.2387,0.0,-3.2108,-3.1928,-3.1819,-3.1801,-3.169,-3.1632,-3.1555,-3.1536,-3.1519,-3.1519,-3.1536,-3.1536,-3.1536,-3.1555,-3.1555,-3.1555,-3.1555,-3.1536,-3.1481,-3.1481,-3.15,-3.1517,-3.1517,-3.1519,-3.1557,-3.1744,-3.1929,-3.2126,-3.2197,-3.2232,-3.2249,-3.2318,-3.2352,-3.2335,-3.2284,-3.2266,-3.2283,0.0,0.0,0.0,0.0,0.0,0.0,0.0,0.0,0.0,0.0,0.0,0.0,0.0,0.0,0.0,-2.9754,0.0,-3.0008,-3.0552,0.0,0.0,0.0,-3.0506,-3.0443,-3.0333,-3.0253,-3.0253,0.0,0.0,-3.0038,-2.9919,-2.9744,-2.9403,-2.9113,-2.892,-2.8756,-2.87,-2.8597,-2.8493,-2.8468,-2.8468,-2.8484,-2.8651,-2.9074,-2.9819,-2.9929,-3.0197,-3.0673,-3.0829,-3.0851,-3.0814,-3.0867,-3.0836,-3.0826,-3.0304,-2.9579,-2.8455,-2.8164,-2.8079,-2.8118,-2.8079,-2.8079,-3.5645,-3.5642,-3.5445,-3.4528,-3.3232,-3.3232,-3.3168,-3.3088,-3.3055,-3.3055,-3.3055,-3.2932,-3.2787,-3.2657,-3.2472,-3.2388,-3.2319,-3.2179,-3.2073,-3.2019,-3.2001,-3.1965,-3.1947,-3.1857,-3.1802,-3.1802,-3.1802,-3.1802,-3.1802,-3.1911,-3.1947,-3.1947,-3.2001,-3.1855,-3.1517,-3.1557,-3.1615,-3.1726,-3.1726,-3.1837,-3.2036,-3.2073,-3.2197,-3.2387,-3.2473,-3.2557,-3.2658,-3.274,-3.2753,-3.2753,-3.2737,-3.2688,-3.2603,-3.2527,0.0,0.0,0.0,0.0,0.0,0.0,0.0,0.0,0.0,-3.0231,-3.0262,0.0,-3.0916,0.0,-3.0859,-3.0881,-3.0883,-3.0934,0.0,0.0,-3.0855,-3.081,-3.0773,-3.077,-3.0749,-3.0749,-3.0626,-3.0506,-3.0384,-3.03,-3.0189,-3.0017,-2.971,-2.9434,-2.9213,-2.9129,-2.9075,-2.8975,-2.8912,-2.8928,-2.8998,-2.9548,-3.0204,-3.0909,-3.1109,-3.1237,-3.1396,-3.1412,-3.1412,-3.1412,-3.1412,-3.1372,-3.1306,-3.1131,-3.0726,-2.9838,-2.9105,-2.8589,-2.8604,-2.8517,-2.8444,-3.6541,-3.6504,-3.614,-3.5442,-3.4471,-3.4096,-3.3671,-3.3286,-3.3211,-3.3198,-3.318,-3.3057,-3.29,-3.2737,-3.2672,-3.259,-3.249,-3.2422,-3.2335,-3.2266,-3.2266,-3.2232,-3.2144,-3.2055,-3.2002,-3.1984,-3.1966,-3.2002,-3.2037,-3.2108,-3.2161,-3.2214,-3.2284,-3.2179,-3.1857,-3.1893,-3.193,-3.1965,-3.1965,-3.2108,-3.2387,-3.2387,-3.2473,-3.2673,-3.2787,-3.2868,-3.2916,-3.3057,-3.3119,-3.3119,-3.3119,-3.3088,-3.3006,-3.307,-3.2878,0.0,0.0,0.0,0.0,0.0,0.0,0.0,0.0,0.0,0.0,0.0,-3.1426,-3.1312,-3.1274,-3.1232,-3.119,-3.1131,-3.1092,-3.1075,-3.0995,-3.0935,-3.0952,-3.0912,-3.0912,-3.0912,-3.0851,-3.077,-3.0671,-3.0647,-3.0568,-3.0459,-3.021,-2.9951,-2.9665,-2.956,-2.9477,-2.9425,-2.9409,-2.9553,-2.9824,-3.0277,-3.0972,-3.1927,-3.2216,-3.2337,-3.2659,-3.2724,-3.2724,-3.2724,-3.2724,-3.2699,-3.2618,-3.2345,-3.1975,-3.1438,-3.0482,-2.9564,-2.8983,-2.8771,-2.87,-3.7393,-3.7338,-3.6626,-3.6279,-3.6115,-3.5381,-3.4571,-3.3815,-3.3563,-3.3415,-3.3295,-3.3165,-3.3039,-3.2932,-3.2932,-3.2818,-3.2655,-3.2655,-3.2606,-3.2541,-3.2541,-3.2422,-3.2249,-3.2249,-3.2214,-3.2161,-3.2161,-3.2197,-3.2249,-3.2266,-3.2301,-3.2369,-3.2506,-3.2506,-3.2386,-3.2403,-3.2352,-3.2266,-3.2284,-3.2422,-3.2654,-3.2654,-3.277,-3.2963,-3.3088,-3.3147,-3.3147,-3.3334,-3.3441,-3.3422,-3.3422,-3.3422,-3.3422,-3.3422,-3.3411,0.0,-3.3214,0.0,0.0,0.0,0.0,0.0,0.0,0.0,0.0,-3.1631,-3.1479,-3.1315,-3.1315,-3.1293,-3.1247,-3.123,-3.123,-3.123,-3.1114,-3.1055,-3.1055,-3.1012,-3.0955,-3.0952,-3.0932,-3.0912,-3.0895,-3.0912,-3.0834,-3.0733,-3.0609,-3.0443,-3.0167,-2.9979,-2.9832,-2.9853,-2.9853,-3.0091,-3.0875,-3.1086,-3.1612,-3.2918,-3.3275,-3.3502,-3.3972,-3.4086,-3.4102,-3.4102,-3.4053,-3.4086,-3.4151,-3.364,-3.321,-3.2886,-3.1837,-3.0626,-2.95,-2.9053,-2.892,-3.8407,-3.8404,-3.8258,-3.7818,-3.7194,-3.6988,-3.6364,-3.5472,-3.476,-3.4006,-3.331,-3.3277,-3.3165,-3.3055,-3.3055,-3.3026,-3.2916,-3.2916,-3.287,-3.274,-3.274,-3.2657,-3.2522,-3.2505,-3.2522,-3.2506,-3.2506,-3.2522,-3.2522,-3.2641,-3.2691,-3.2707,-3.2836,-3.2866,-3.2884,0.0,0.0,0.0,-3.2721,-3.2834,-3.2993,-3.299,-3.3104,-3.3304,-3.3393,0.0,-3.3433,-3.3506,-3.3563,-3.3563,-3.3563,0.0,0.0,0.0,0.0,0.0,0.0,0.0,0.0,0.0,0.0,0.0,-3.2246,-3.1951,-3.1819,-3.1595,-3.1498,-3.1462,-3.1462,-3.146,-3.144,-3.144,-3.1423,-3.144,-3.1421,-3.1421,-3.1385,-3.1291,-3.1235,-3.1218,-3.1095,-3.0975,-3.0992,-3.0932,-3.0892,-3.0892,-3.0851,-3.081,-3.0733,-3.038,-3.0146,-3.0124,-3.013,-3.0637,-3.1929,-3.2092,-3.2541,-3.3819,-3.4235,-3.4301,-3.4415,-3.4448,-3.4423,-3.4423,-3.4407,-3.4423,-3.4423,-3.4309,-3.4039,-3.3435,-3.2651,-3.1713,-3.0533,-2.9702,-2.919,-3.8707,0.0,-3.8707,-3.8469,0.0,-3.8053,-3.7769,-3.7247,-3.5936,-3.4848,-3.4047,-3.4002,-3.371,-3.3259,-3.3211,-3.3152,-3.3057,-3.3057,-3.3011,-3.2948,-3.2948,-3.29,-3.2786,-3.2786,-3.277,-3.2755,-3.2737,-3.2771,-3.2804,-3.287,-3.29,-3.2965,-3.3075,-3.3155,-3.3155,-3.3241,-3.3178,-3.2896,-3.2961,-3.307,-3.3259,-3.3271,-3.336,-3.3491,-3.3563,0.0,0.0,0.0,0.0,0.0,0.0,0.0,0.0,-3.3698,0.0,-3.3605,-3.3563,-3.3495,-3.3352,-3.3214,-3.3073,-3.2848,-3.2605,-3.2301,-3.1982,-3.1855,-3.1781,-3.169,-3.167,-3.1614,-3.154,-3.1536,-3.1481,-3.1481,-3.1481,-3.1481,-3.1498,-3.1443,-3.1387,-3.1387,-3.131,-3.1249,-3.1249,-3.121,-3.119,-3.119,-3.1134,-3.1114,-3.1058,-3.0794,-3.0564,-3.0526,-3.0564,-3.1078,-3.2398,-3.2762,-3.3226,-3.4502,-3.4899,-3.4899,-3.4883,-3.4883,-3.4899,-3.4899,-3.4899,-3.4899,-3.4899,-3.4899,-3.4719,-3.4171,-3.3274,-3.2393,-3.157,-3.0451,-2.9515,-3.8707,-3.8707,-3.8707,-3.8707,-3.8707,-3.8707,-3.8707,-3.86,0.0,0.0,0.0,-3.4947,-3.4454,-3.3673,-3.3581,-3.3415,-3.3211,-3.3193,-3.3178,-3.3162,-3.3162,-3.3135,-3.306,-3.3075,-3.3044,-3.2963,-3.2979,-3.3011,-3.3075,-3.3091,-3.3119,-3.3178,-3.3289,-3.3352,-3.3349,-3.3466,-3.3419,-3.3208,-3.3193,-3.3286,-3.3433,-3.3524,-3.3581,-3.3647,-3.3684,-3.3712,-3.3712,-3.378,-3.3807,-3.3807,-3.3807,-3.3807,-3.3807,-3.3807,-3.378,-3.3726,-3.368,-3.3633,-3.3466,-3.3408,-3.3289,-3.3026,-3.2802,-3.2522,-3.2197,-3.2144,-3.2073,-3.1966,-3.1893,-3.1818,-3.1691,-3.1651,-3.1595,-3.1612,-3.1612,-3.1612,-3.1595,-3.1576,-3.1576,-3.1557,-3.1538,-3.1536,-3.15,-3.1481,-3.1481,-3.1481,-3.1387,-3.1315,-3.1312,-3.1095,-3.0932,-3.0932,-3.0912,-3.1435,-3.2722,-3.3141,-3.3728,-3.5036,-3.5314,-3.5314,-3.5314,-3.5314,-3.5308,-3.5261,-3.5308,-3.5285,-3.5308,-3.5285,-3.5222,-3.5001,-3.3808,-3.2735,-3.2434,-3.116,-2.9946,-3.8707,-3.8707,-3.8707,-3.8707,-3.8707,-3.8707,-3.8707,-3.86,-3.7625,-3.6687,-3.5845,-3.5811,-3.5359,-3.4594,-3.4579,-3.42,-3.3534,-3.3534,-3.3506,-3.3452,-3.3433,-3.3378,-3.328,-3.3322,-3.3322,-3.3247,-3.3307,-3.3334,-3.3349,-3.3408,-3.3433,-3.3466,-3.3538,-3.3581,-3.3581,-3.3577,-3.3545,-3.3534,-3.3534,-3.3559,-3.3643,-3.3657,-3.3698,-3.3766,-3.378,-3.3793,-3.3775,-3.3793,-3.3807,-3.3807,-3.3807,-3.3807,-3.3807,-3.3807,-3.3788,-3.3793,-3.3739,-3.3703,-3.3675,-3.3491,-3.3319,-3.3119,-3.2993,-3.2804,-3.249,-3.2284,-3.2196,-3.2161,-3.209,-3.2055,-3.2037,-3.2019,-3.2018,-3.2018,-3.2001,-3.2001,-3.2001,-3.1911,-3.1839,-3.1839,-3.1691,-3.1579,-3.1615,-3.1557,-3.1536,-3.1517,-3.1538,-3.1481,-3.1462,-3.1288,-3.1171,-3.1151,-3.1151,-3.1793,-3.2904,-3.3343,-3.3951,-3.5335,-3.547,-3.5441,-3.5424,-3.5389,-3.536,-3.5314,-3.5337,-3.5314,-3.5331,-3.5308,-3.5258,-3.5088,-3.3968,-3.3044,-3.2862,-3.1525,-3.0333,-3.8707,-3.8707,-3.8707,-3.8707,-3.8707,-3.8707,-3.8707,-3.8655,-3.8291,-3.7619,-3.6841,-3.6775,-3.6303,-3.5502,-3.502,-3.4604,-3.4239,-3.3788,-3.3573,-3.353,-3.353,-3.352,-3.3466,-3.3477,-3.3491,-3.3466,-3.3495,-3.3506,-3.3506,-3.3577,-3.3587,-3.3619,-3.3712,-3.378,-3.3802,-3.382,-3.3815,-3.3802,-3.3712,-3.3657,-3.3698,-3.3739,-3.378,-3.3807,-3.3807,-3.3807,-3.3807,-3.3807,-3.3807,-3.3807,-3.3807,-3.3807,-3.3807,-3.3807,-3.3807,-3.3788,-3.378,-3.3739,-3.3698,-3.3577,-3.3433,-3.3271,-3.3244,-3.3104,-3.2834,-3.2658,-3.2489,-3.2439,-3.2353,-3.2318,-3.2301,-3.2249,-3.2214,-3.2232,-3.2214,-3.2214,-3.2197,-3.2126,-3.2073,-3.2055,-3.1948,-3.1893,-3.1874,-3.1838,-3.1818,-3.1837,-3.1819,-3.1818,-3.1819,-3.1746,-3.1614,-3.1421,-3.1383,-3.1788,-3.2774,-3.3335,-3.3998,-3.5052,-3.5523,-3.5666,-3.5717,-3.5689,-3.5684,-3.5667,-3.5616,-3.5588,-3.5549,-3.5503,-3.5307,-3.4718,-3.3995,-3.3184,-3.2512,-3.1466,-3.0588,-3.8707,-3.8707,-3.8707,-3.8707,-3.8707,-3.8707,-3.8707,-3.8707,-3.8689,-3.8358,-3.7808,-3.7726,-3.7219,-3.638,-3.5696,-3.5301,-3.5031,-3.4282,-3.3921,-3.3903,-3.3734,-3.3661,-3.3643,-3.3657,-3.3671,-3.3689,-3.3684,-3.3684,-3.3716,-3.3753,-3.378,-3.3793,-3.3881,-3.3972,-3.4023,-3.4036,-3.4049,-3.4036,-3.3895,-3.3807,-3.378,-3.3815,-3.3842,-3.3829,-3.386,-3.386,-3.3842,-3.386,-3.3842,-3.3842,-3.386,-3.386,-3.386,-3.3842,-3.3829,-3.3842,-3.3847,-3.3793,-3.3712,-3.3661,-3.3577,-3.3452,-3.347,-3.3378,-3.3211,-3.3042,-3.2868,-3.2721,-3.2622,-3.2608,-3.2591,-3.2506,-3.2437,-3.2455,-3.2403,-3.2421,-3.2404,-3.2335,-3.2301,-3.2284,-3.2232,-3.2196,-3.2179,-3.2161,-3.2126,-3.2126,-3.2144,-3.2144,-3.2126,-3.2126,-3.2001,-3.1783,-3.1651,-3.1958,-3.2627,-3.3193,-3.3968,-3.4826,-3.5458,-3.5814,-3.5985,-3.6084,-3.6058,-3.6014,-3.591,-3.5839,-3.5839,-3.5569,-3.5193,-3.4563,-3.3731,-3.2807,-3.1959,-3.1286,-3.0667,-3.8707,-3.8707,-3.8707,-3.8707,-3.8707,-3.8707,-3.8707,-3.8707,-3.8707,-3.867,-3.8542,-3.8597,-3.812,-3.7422,-3.7242,-3.6802,-3.6123,-3.5265,-3.4866,-3.4738,-3.411,-3.378,-3.3793,-3.3829,-3.3868,-3.3887,-3.3921,-3.3947,-3.3947,-3.3978,-3.3972,-3.3972,-3.4049,-3.4068,-3.4099,-3.4161,-3.4185,-3.4185,-3.4161,-3.4099,-3.3985,-3.3985,-3.4004,-3.3985,-3.3985,-3.3985,-3.3972,-3.3967,-3.3985,-3.3985,-3.3972,-3.3972,-3.3985,-3.3985,-3.3985,-3.3972,-3.3921,-3.3829,-3.3712,-3.3698,-3.3657,-3.3591,-3.3577,-3.3549,-3.3462,-3.3452,-3.3286,-3.3042,-3.2916,-3.2886,-3.2868,-3.2852,-3.2818,-3.2802,-3.2771,-3.274,-3.2722,-3.264,-3.2573,-3.2555,-3.2506,-3.2473,-3.2456,-3.237,-3.2318,-3.2318,-3.2318,-3.2318,-3.2318,-3.2318,-3.2318,-3.2214,-3.2126,-3.235,-3.2922,-3.3166,-3.3842,-3.504,-3.5342,-3.563,-3.6001,-3.6211,-3.6187,-3.6229,-3.5977,-3.5895,-3.5775,-3.5476,-3.4887,-3.4283,-3.3375,-3.2266,-3.1392,-3.1043,-3.0834,-3.8707,-3.8707,-3.8707,-3.8707,-3.8707,-3.8707,-3.8707,-3.8707,-3.8707,-3.8707,-3.8689,-3.8735,-3.8551,-3.819,-3.7731,-3.7309,-3.696,-3.6181,-3.5551,-3.5092,-3.4778,-3.4418,-3.3957,-3.3947,-3.3985,-3.3992,-3.4049,-3.4105,-3.4105,-3.4161,-3.4197,-3.4233,-3.4269,-3.4281,-3.4281,-3.4305,-3.4316,-3.4335,-3.4335,-3.4293,-3.4252,-3.4105,-3.4049,-3.4011,-3.3998,-3.3998,-3.3998,-3.3998,-3.3998,-3.3998,-3.3998,-3.3998,-3.3998,-3.3998,-3.3998,-3.3998,-3.3972,-3.3934,-3.3881,-3.3868,-3.386,-3.3793,-3.3739,-3.3703,-3.3633,-3.3573,-3.3473,-3.3357,-3.3211,-3.3106,-3.3042,-3.3026,-3.3008,-3.3008,-3.2995,-3.2979,-3.2979,-3.29,-3.2852,-3.2836,-3.2805,-3.2739,-3.2722,-3.2706,-3.2655,-3.2655,-3.2655,-3.2639,-3.2655,-3.2655,-3.2655,-3.2655,-3.2623,-3.2561,-3.2739,-3.3123,-3.3648,-3.4189,-3.4638,-3.5101,-3.5727,-3.5888,-3.5907,-3.6357,-3.5901,-3.5576,-3.5503,-3.4761,-3.4059,-3.3519,-3.273,-3.165,-3.1247,-3.1095,-3.0935,-3.875,-3.875,-3.875,-3.875,-3.875,-3.875,-3.875,-3.875,-3.875,-3.875,-3.8783,-3.8807,-3.8792,-3.8673,-3.814,-3.7882,-3.7805,-3.708,-3.6297,-3.5542,-3.5383,-3.4862,-3.4104,-3.4055,-3.4124,-3.4173,-3.4185,-3.4203,-3.4281,-3.434,-3.4416,-3.4461,-3.4473,-3.4484,-3.4484,-3.4506,-3.4506,-3.4487,-3.4506,-3.4506,-3.4473,-3.434,-3.4203,-3.4105,-3.4111,-3.4111,-3.4111,-3.4111,-3.4093,-3.4111,-3.4093,-3.4111,-3.4111,-3.4111,-3.4099,-3.4086,-3.4086,-3.4061,-3.4036,-3.4023,-3.3998,-3.3915,-3.3881,-3.3829,-3.3775,-3.3721,-3.3698,-3.3657,-3.3549,-3.3404,-3.3253,-3.3238,-3.3238,-3.3238,-3.3223,-3.3208,-3.3208,-3.315,-3.3122,-3.3088,-3.3091,-3.306,-3.3044,-3.3011,-3.2995,-3.2995,-3.2979,-3.2963,-3.2963,-3.2963,-3.293,-3.2945,-3.2948,-3.2836,-3.2591,-3.2894,-3.3336,-3.3671,-3.4127,-3.46,-3.5228,-3.5327,-3.53,-3.554,-3.5228,-3.5042,-3.4915,-3.4169,-3.3271,-3.251,-3.1837,-3.1421,-3.1349,-3.1213,-3.1098,-3.8877,-3.8877,-3.8896,-3.8896,-3.8877,-3.8896,-3.8896,-3.8881,-3.8881,-3.8896,-3.8881,-3.8896,-3.891,-3.8892,-3.8799,-3.8836,-3.8711,-3.7991,-3.723,-3.6417,-3.5758,-3.4989,-3.4234,-3.4257,-3.4316,-3.4393,-3.4386,-3.4427,-3.4495,-3.455,-3.4602,-3.4594,-3.4655,-3.4676,-3.4687,-3.4747,-3.4778,-3.4768,-3.4749,-3.4728,-3.4706,-3.4666,-3.4561,-3.4409,-3.4393,-3.4381,-3.4363,-3.4393,-3.4374,-3.4374,-3.4363,-3.4363,-3.4363,-3.4363,-3.434,-3.4281,-3.4281,-3.4233,-3.4124,-3.4111,-3.4074,-3.4042,-3.4011,-3.3998,-3.3985,-3.3991,-3.3934,-3.3881,-3.3873,-3.378,-3.3619,-3.3545,-3.3545,-3.3563,-3.352,-3.3477,-3.3477,-3.3419,-3.3378,-3.3364,-3.3364,-3.3349,-3.3364,-3.3322,-3.3274,-3.3244,-3.3165,-3.3101,-3.3132,-3.3117,-3.3101,-3.3117,-3.3119,-3.3057,-3.2916,-3.298,-3.325,-3.352,-3.3771,-3.4145,-3.4553,-3.487,-3.4814,-3.4775,-3.4609,-3.4462,-3.4281,-3.3715,-3.2821,-3.2156,-3.1817,-3.1519,-3.1519,-3.1406,-3.1293,-3.891,-3.891,-3.891,-3.891,-3.891,-3.891,-3.891,-3.891,-3.891,-3.891,-3.8925,-3.8993,-3.9017,-3.9017,-3.9166,-3.9096,-3.8888,-3.8678,-3.8164,-3.7381,-3.6669,-3.5938,-3.5233,-3.4689,-3.4484,-3.4591,-3.4602,-3.4626,-3.4672,-3.4722,-3.4771,-3.4791,-3.4811,-3.4831,-3.4831,-3.484,-3.4869,-3.486,-3.4869,-3.484,-3.4849,-3.4831,-3.4791,-3.4722,-3.4604,-3.4547,-3.4509,-3.4528,-3.4528,-3.4528,-3.4495,-3.4461,-3.4461,-3.4427,-3.4386,-3.4381,-3.4351,-3.434,-3.4305,-3.4281,-3.4281,-3.4257,-3.4209,-3.4197,-3.4185,-3.4148,-3.4099,-3.4049,-3.4023,-3.3954,-3.3868,-3.3775,-3.3726,-3.3726,-3.3698,-3.3703,-3.3703,-3.3689,-3.3647,-3.3605,-3.3563,-3.352,-3.3534,-3.3491,-3.3477,-3.3477,-3.343,-3.3415,-3.3415,-3.3415,-3.3401,-3.3415,-3.3433,-3.3401,-3.3371,-3.3132,-3.3118,-3.323,-3.3432,-3.3775,-3.4154,-3.4249,-3.4234,-3.4535,-3.4358,-3.3915,-3.372,-3.3224,-3.2384,-3.2154,-3.1801,-3.1707,-3.1706,-3.1559,-3.1464,-3.9068,-3.9068,-3.9068,-3.9068,-3.9068,-3.9068,-3.9054,-3.9054,-3.9054,-3.9054,-3.9082,-3.9147,-3.9202,-3.9215,-3.9341,-3.9301,-3.9073,-3.9142,-3.8787,-3.7994,-3.7262,-3.6555,-3.5807,-3.4988,-3.4658,-3.473,-3.4761,-3.4811,-3.486,-3.4898,-3.4927,-3.4955,-3.4973,-3.4963,-3.4963,-3.4992,-3.4982,-3.5001,-3.5001,-3.4973,-3.4963,-3.4963,-3.4954,-3.4964,-3.4821,-3.472,-3.4678,-3.4658,-3.4674,-3.4655,-3.4623,-3.4602,-3.4583,-3.4569,-3.4528,-3.4528,-3.4528,-3.4517,-3.4506,-3.4514,-3.4495,-3.4454,-3.4427,-3.4386,-3.4404,-3.4328,-3.4281,-3.4233,-3.4228,-3.4191,-3.4124,-3.4049,-3.3959,-3.39,-3.3873,-3.3873,-3.3873,-3.3873,-3.3842,-3.3788,-3.3748,-3.3739,-3.3726,-3.3712,-3.3698,-3.3716,-3.3689,-3.3657,-3.3657,-3.3657,-3.3657,-3.3675,-3.3657,-3.3643,-3.3615,-3.3473,-3.3313,-3.3361,-3.3355,-3.3597,-3.3701,-3.375,-3.3849,-3.4156,-3.4019,-3.3527,-3.3054,-3.2617,-3.2354,-3.2179,-3.2055,-3.1946,-3.1855,-3.1726,-3.167,-3.9373,-3.9373,-3.9405,-3.9373,-3.9373,-3.936,-3.9373,-3.9378,-3.9373,-3.936,-3.9341,-3.9405,-3.938,-3.9393,-3.942,-3.9401,-3.9407,-3.9419,-3.9045,-3.8297,-3.7551,-3.6776,-3.6007,-3.5281,-3.4868,-3.4831,-3.4936,-3.5001,-3.5001,-3.5075,-3.5101,-3.511,-3.5107,-3.5105,-3.5096,-3.5157,-3.5182,-3.5193,-3.5174,-3.5176,-3.5132,-3.5105,-3.5107,-3.511,-3.5084,-3.5001,-3.4831,-3.481,-3.479,-3.4809,-3.478,-3.4798,-3.4788,-3.4778,-3.4788,-3.4778,-3.4788,-3.4768,-3.4708,-3.4697,-3.4658,-3.4615,-3.4594,-3.4583,-3.4583,-3.4539,-3.4495,-3.4454,-3.4439,-3.4404,-3.4386,-3.4363,-3.4269,-3.4061,-3.4023,-3.4023,-3.4023,-3.4011,-3.4011,-3.3998,-3.3985,-3.3998,-3.3985,-3.3952,-3.3913,-3.3913,-3.3855,-3.3815,-3.3847,-3.3847,-3.3802,-3.3807,-3.382,-3.3815,-3.382,-3.3793,-3.3675,-3.3581,-3.3509,-3.3579,-3.3533,-3.3553,-3.3512,-3.3737,-3.3627,-3.3174,-3.3044,-3.2645,-3.2509,-3.2353,-3.2249,-3.2179,-3.2072,-3.1964,-3.1873,-3.94,-3.9413,-3.9446,-3.9489,-3.9471,-3.9471,-3.9471,-3.9471,-3.9489,-3.9458,-3.9471,-3.9527,-3.9552,-3.9576,-3.9623,-3.967,-3.9689,-3.9701,-3.9515,-3.9086,-3.8433,-3.7681,-3.6892,-3.6159,-3.5524,-3.5094,-3.5098,-3.516,-3.5204,-3.5229,-3.5218,-3.5231,-3.5246,-3.5246,-3.5235,-3.5243,-3.527,-3.527,-3.527,-3.5262,-3.5235,-3.5235,-3.5227,-3.5231,-3.5226,-3.5193,-3.5143,-3.5066,-3.5011,-3.5002,-3.4974,-3.4917,-3.487,-3.486,-3.4879,-3.4888,-3.486,-3.486,-3.4859,-3.484,-3.4831,-3.4811,-3.4762,-3.4742,-3.4732,-3.4728,-3.4687,-3.4636,-3.4623,-3.4602,-3.4539,-3.4539,-3.4473,-3.4311,-3.4281,-3.4269,-3.4257,-3.4233,-3.4209,-3.4197,-3.4161,-3.4136,-3.4136,-3.4111,-3.4124,-3.4111,-3.4099,-3.4074,-3.4074,-3.4074,-3.403,-3.4023,-3.4011,-3.3985,-3.3985,-3.3972,-3.3908,-3.3807,-3.3726,-3.3629,-3.3549,-3.3495,-3.3422,-3.3334,-3.3196,-3.3057,-3.2916,-3.2787,-3.269,-3.2574,-3.2506,-3.2422,-3.2336,-3.2214,-3.2108,-3.9521,-3.9502,-3.9551,-3.9575,-3.9594,-3.9575,-3.9587,-3.9611,-3.9611,-3.9604,-3.9647,-3.9701,-3.9693,-3.9735,-3.9826,-3.9881,-3.9922,-3.9975,-3.9954,-3.9708,-3.901,-3.8247,-3.7394,-3.6387,-3.5715,-3.5286,-3.5239,-3.5308,-3.5331,-3.5335,-3.5338,-3.5314,-3.5348,-3.5381,-3.5381,-3.5395,-3.5422,-3.5415,-3.5422,-3.5395,-3.5381,-3.5381,-3.5348,-3.534,-3.533,-3.5342,-3.5315,-3.5246,-3.5201,-3.5134,-3.5091,-3.5046,-3.5019,-3.5019,-3.5019,-3.5019,-3.5019,-3.5019,-3.5019,-3.5,-3.4982,-3.4973,-3.4917,-3.4898,-3.4898,-3.4898,-3.4849,-3.482,-3.4771,-3.4769,-3.472,-3.471,-3.4678,-3.4596,-3.4517,-3.4484,-3.4473,-3.445,-3.4427,-3.4416,-3.4374,-3.4351,-3.434,-3.434,-3.4351,-3.434,-3.4358,-3.4328,-3.4316,-3.4305,-3.4269,-3.4233,-3.4221,-3.4197,-3.4173,-3.4161,-3.4148,-3.4049,-3.3934,-3.3847,-3.3739,-3.3698,-3.3643,-3.3516,-3.3401,-3.3286,-3.315,-3.3075,-3.2965,-3.287,-3.2755,-3.2691,-3.2591,-3.2456,-3.2335,-3.9712,-3.9712,-3.9712,-3.9724,-3.9735,-3.9735,-3.9758,-3.9804,-3.9826,-3.9859,-3.9911,-3.9922,-3.9903,-3.9933,-3.9996,-4.0058,-4.0118,-4.0158,-4.0206,-3.9986,-3.9385,-3.8584,-3.7544,-3.616,-3.5419,-3.5342,-3.5379,-3.5412,-3.5427,-3.5416,-3.5405,-3.5424,-3.547,-3.5509,-3.5515,-3.5547,-3.5591,-3.5572,-3.5591,-3.554,-3.5502,-3.5515,-3.5483,-3.5418,-3.5431,-3.5424,-3.5424,-3.5404,-3.536,-3.5231,-3.5215,-3.5226,-3.5218,-3.5198,-3.5209,-3.5182,-3.519,-3.5182,-3.519,-3.5182,-3.5147,-3.5113,-3.5105,-3.5096,-3.5082,-3.5047,-3.5011,-3.4982,-3.4955,-3.4927,-3.4927,-3.4927,-3.4917,-3.4879,-3.4751,-3.4655,-3.4615,-3.4615,-3.4615,-3.4615,-3.4623,-3.4623,-3.4604,-3.4604,-3.4604,-3.4604,-3.4594,-3.4553,-3.4539,-3.4517,-3.4484,-3.4461,-3.4409,-3.4386,-3.4351,-3.4358,-3.434,-3.4293,-3.4185,-3.4086,-3.3947,-3.3895,-3.3829,-3.3707,-3.3601,-3.3506,-3.3422,-3.3319,-3.3229,-3.3122,-3.3028,-3.295,-3.2836,-3.2705,-3.2606,-3.9922,-3.9933,-3.9965,-4.0005,-3.9994,-3.9994,-4.0005,-4.0007,-4.0077,-4.0098,-4.0118,-4.0128,-4.0119,-4.0129,-4.0187,-4.0262,-4.0307,-4.0332,-4.0383,-4.0386,-4.0268,-3.921,-3.7766,-3.6234,-3.5456,-3.545,-3.5496,-3.5554,-3.5534,-3.5554,-3.554,-3.5554,-3.5565,-3.5558,-3.5583,-3.5593,-3.5604,-3.5604,-3.5604,-3.5604,-3.5579,-3.5574,-3.5568,-3.5543,-3.5538,-3.5546,-3.5546,-3.5527,-3.5496,-3.5369,-3.5336,-3.536,-3.5369,-3.5342,-3.5335,-3.5293,-3.5285,-3.5278,-3.5278,-3.5285,-3.5278,-3.5262,-3.5239,-3.5253,-3.5237,-3.5185,-3.5141,-3.5132,-3.5124,-3.5115,-3.5134,-3.5115,-3.5105,-3.5098,-3.4964,-3.484,-3.4831,-3.4831,-3.4831,-3.4831,-3.4812,-3.4812,-3.4831,-3.4831,-3.4831,-3.4821,-3.4791,-3.4761,-3.473,-3.4718,-3.4668,-3.4645,-3.4604,-3.4583,-3.4561,-3.4558,-3.4547,-3.4517,-3.445,-3.4381,-3.4209,-3.4074,-3.3985,-3.3868,-3.3788,-3.3698,-3.3601,-3.3502,-3.3433,-3.3345,-3.3274,-3.3198,-3.3073,-3.2945,-3.2884,-4.0099,-4.008,-4.0118,-4.0157,-4.0138,-4.0138,-4.0167,-4.0177,-4.0225,-4.0243,-4.028,-4.0269,-4.0295,-4.0332,-4.0366,-4.0419,-4.0468,-4.0489,-4.0527,-4.0514,-4.0209,-3.9288,-3.7936,-3.6627,-3.5918,-3.5552,-3.5601,-3.5637,-3.5637,-3.5648,-3.5648,-3.5654,-3.5651,-3.5657,-3.5643,-3.5683,-3.5698,-3.5698,-3.5689,-3.5694,-3.5674,-3.5684,-3.5698,-3.5674,-3.5653,-3.5657,-3.5637,-3.5621,-3.5575,-3.5509,-3.5477,-3.5489,-3.5489,-3.5482,-3.5468,-3.5435,-3.5429,-3.5429,-3.5429,-3.5429,-3.5402,-3.5388,-3.5386,-3.5372,-3.5338,-3.5289,-3.5281,-3.5281,-3.53,-3.53,-3.53,-3.5281,-3.5281,-3.5266,-3.5168,-3.5086,-3.5027,-3.5009,-3.5009,-3.5009,-3.5028,-3.5009,-3.5028,-3.5028,-3.5019,-3.5001,-3.4963,-3.4917,-3.4879,-3.487,-3.4859,-3.482,-3.48,-3.4771,-3.4761,-3.4751,-3.474,-3.472,-3.4678,-3.4604,-3.4443,-3.4281,-3.4161,-3.4061,-3.3972,-3.3895,-3.3788,-3.3707,-3.3638,-3.3573,-3.3524,-3.3437,-3.3316,-3.3223,-3.3147,-4.0224,-4.0224,-4.0224,-4.0224,-4.0224,-4.0233,-4.027,-4.0325,-4.0342,-4.0366,-4.0425,-4.0441,-4.0473,-4.0531,-4.0519,-4.0561,-4.0617,-4.0621,-4.0674,-4.0533,-4.0091,-3.9226,-3.8147,-3.7204,-3.6364,-3.575,-3.5674,-3.5698,-3.5723,-3.5718,-3.5713,-3.5708,-3.5713,-3.5718,-3.5722,-3.578,-3.5793,-3.5797,-3.581,-3.5795,-3.5795,-3.5782,-3.5793,-3.5788,-3.5732,-3.5718,-3.5713,-3.5708,-3.5693,-3.5614,-3.5622,-3.5616,-3.561,-3.561,-3.5584,-3.5598,-3.5572,-3.5578,-3.5604,-3.5578,-3.5553,-3.5528,-3.5502,-3.5477,-3.5432,-3.5418,-3.5418,-3.5418,-3.5425,-3.5418,-3.5418,-3.5418,-3.5418,-3.5412,-3.5412,-3.5369,-3.5285,-3.5231,-3.5234,-3.5234,-3.5215,-3.5215,-3.5215,-3.5226,-3.5209,-3.5166,-3.5141,-3.5089,-3.5054,-3.5038,-3.4992,-3.4964,-3.4945,-3.4945,-3.4945,-3.4945,-3.4936,-3.4898,-3.487,-3.4801,-3.4639,-3.4487,-3.4351,-3.4245,-3.4185,-3.4099,-3.3998,-3.3921,-3.3855,-3.3788,-3.3726,-3.3643,-3.3559,-3.3516,-3.3426,-4.0353,-4.0362,-4.0339,-4.0356,-4.0364,-4.0397,-4.0441,-4.0457,-4.0527,-4.0531,-4.0573,-4.0624,-4.0653,-4.0647,-4.0681,-4.0707,-4.0739,-4.0756,-4.0796,-4.0829,-4.0728,-3.9697,-3.8456,-3.7443,-3.657,-3.5939,-3.5769,-3.5773,-3.5778,-3.5763,-3.5763,-3.5767,-3.5764,-3.5772,-3.5772,-3.583,-3.5861,-3.5884,-3.5868,-3.5891,-3.5872,-3.5868,-3.5861,-3.5857,-3.5803,-3.5783,-3.5786,-3.5782,-3.5769,-3.5751,-3.5718,-3.5693,-3.5687,-3.5681,-3.5651,-3.5621,-3.5615,-3.561,-3.561,-3.5615,-3.559,-3.5585,-3.5585,-3.5579,-3.5574,-3.5554,-3.5554,-3.5568,-3.5568,-3.5554,-3.5568,-3.5548,-3.5548,-3.5548,-3.5548,-3.5543,-3.5501,-3.5412,-3.5376,-3.5369,-3.5362,-3.5369,-3.535,-3.5372,-3.535,-3.5335,-3.5297,-3.5261,-3.5218,-3.5185,-3.5149,-3.5094,-3.5113,-3.5113,-3.5113,-3.5105,-3.5098,-3.5081,-3.5037,-3.4992,-3.4841,-3.4711,-3.4577,-3.4476,-3.4393,-3.4293,-3.4209,-3.4124,-3.4049,-3.3998,-3.3934,-3.3868,-3.382,-3.3762,-3.3694,-4.05,-4.0481,-4.0504,-4.05,-4.05,-4.0557,-4.0591,-4.0598,-4.0633,-4.0661,-4.07,-4.0752,-4.0757,-4.0775,-4.0804,-4.0832,-4.0848,-4.0883,-4.0902,-4.0937,-4.0863,-4.0002,-3.8692,-3.7861,-3.7131,-3.6054,-3.5836,-3.5856,-3.5856,-3.5856,-3.5836,-3.5836,-3.5846,-3.583,-3.5833,-3.5885,-3.5894,-3.5897,-3.5925,-3.5945,-3.5945,-3.5919,-3.5891,-3.5885,-3.5856,-3.5846,-3.5836,-3.5856,-3.5856,-3.5849,-3.5815,-3.5779,-3.5751,-3.5742,-3.5732,-3.5704,-3.5704,-3.5704,-3.5704,-3.5699,-3.5704,-3.5684,-3.5704,-3.5704,-3.5704,-3.5684,-3.5704,-3.5704,-3.5704,-3.5704,-3.5704,-3.5699,-3.5704,-3.5684,-3.5684,-3.5684,-3.5664,-3.5566,-3.5495,-3.5489,-3.5489,-3.5502,-3.5509,-3.5502,-3.5469,-3.543,-3.5416,-3.5374,-3.5345,-3.5304,-3.5304,-3.527,-3.527,-3.5289,-3.5281,-3.5266,-3.5266,-3.5234,-3.5201,-3.5151,-3.5063,-3.4936,-3.4821,-3.4701,-3.4594,-3.4517,-3.442,-3.4358,-3.4276,-3.4221,-3.4173,-3.4099,-3.4049,-3.3998,-3.3921,-4.0621,-4.0609,-4.0635,-4.0615,-4.0641,-4.0688,-4.0707,-4.0733,-4.0745,-4.0769,-4.0798,-4.0812,-4.0839,-4.0883,-4.0912,-4.0926,-4.0948,-4.0972,-4.1006,-4.1007,-4.073,-3.9847,-3.8707,-3.809,-3.7329,-3.6048,-3.5924,-3.5921,-3.5921,-3.5921,-3.5921,-3.5921,-3.5902,-3.5904,-3.5904,-3.5912,-3.5919,-3.5938,-3.5964,-3.5986,-3.5986,-3.594,-3.5912,-3.5907,-3.5924,-3.5921,-3.5921,-3.5902,-3.5921,-3.5921,-3.5921,-3.5894,-3.5852,-3.5819,-3.5815,-3.5815,-3.5795,-3.5815,-3.5799,-3.5795,-3.5815,-3.5815,-3.5815,-3.5815,-3.5815,-3.5815,-3.5815,-3.5815,-3.5799,-3.5799,-3.5815,-3.5815,-3.5815,-3.5815,-3.5795,-3.5815,-3.5783,-3.5708,-3.5674,-3.5634,-3.5629,-3.5623,-3.5626,-3.5623,-3.5589,-3.5559,-3.5521,-3.5489,-3.5445,-3.5432,-3.5425,-3.5425,-3.5425,-3.5431,-3.5424,-3.5417,-3.5402,-3.5372,-3.5335,-3.5304,-3.5239,-3.5149,-3.5027,-3.4889,-3.479,-3.471,-3.4647,-3.4572,-3.4517,-3.4443,-3.4386,-3.4316,-3.4269,-3.4221,-3.4161,-4.0668,-4.0681,-4.0745,-4.0757,-4.0782,-4.0773,-4.0815,-4.0876,-4.0862,-4.0863,-4.0874,-4.0897,-4.0924,-4.096,-4.0984,-4.1009,-4.1052,-4.1073,-4.1089,-4.0925,-4.045,-3.9463,-3.8689,-3.7895,-3.7001,-3.6239,-3.5978,-3.5968,-3.5965,-3.5965,-3.5985,-3.5985,-3.5985,-3.5985,-3.5965,-3.5986,-3.5988,-3.5989,-3.5991,-3.601,-3.5991,-3.5989,-3.5968,-3.5965,-3.5965,-3.5985,-3.5985,-3.5985,-3.5985,-3.5985,-3.5985,-3.598,-3.5949,-3.5919,-3.588,-3.5875,-3.5872,-3.5891,-3.5872,-3.5894,-3.5894,-3.5894,-3.5894,-3.5894,-3.5894,-3.5894,-3.5894,-3.5894,-3.5894,-3.5894,-3.5894,-3.5894,-3.5894,-3.5894,-3.5875,-3.5872,-3.5869,-3.5856,-3.5806,-3.5764,-3.5767,-3.5745,-3.5722,-3.5723,-3.5674,-3.5648,-3.5626,-3.5596,-3.5585,-3.5579,-3.5579,-3.556,-3.556,-3.5562,-3.5564,-3.5552,-3.5553,-3.5502,-3.5469,-3.5437,-3.5369,-3.5323,-3.5223,-3.5105,-3.5001,-3.4927,-3.4869,-3.48,-3.4749,-3.4718,-3.4626,-3.4531,-3.4498,-3.4476,-3.4439,-4.0812,-4.0809,-4.0837,-4.0848,-4.0872,-4.084,-4.0903,-4.0945,-4.0958,-4.0956,-4.0961,-4.0999,-4.102,-4.1036,-4.105,-4.1069,-4.1087,-4.1103,-4.1111,-4.0921,-4.0225,-3.937,-3.8532,-3.7675,-3.6836,-3.6211,-3.6015,-3.5994,-3.6011,-3.601,-3.601,-3.601,-3.601,-3.601,-3.601,-3.601,-3.601,-3.601,-3.601,-3.601,-3.601,-3.601,-3.601,-3.601,-3.601,-3.601,-3.601,-3.601,-3.601,-3.601,-3.601,-3.601,-3.5988,-3.5983,-3.5947,-3.5955,-3.5949,-3.5947,-3.5947,-3.5947,-3.5947,-3.5947,-3.5947,-3.5947,-3.5947,-3.5947,-3.5966,-3.5966,-3.5947,-3.5966,-3.5966,-3.5966,-3.5947,-3.5947,-3.5947,-3.5947,-3.5947,-3.5947,-3.5931,-3.5883,-3.5866,-3.582,-3.5784,-3.5764,-3.5763,-3.5741,-3.5718,-3.5713,-3.5689,-3.5689,-3.5708,-3.5689,-3.5689,-3.5674,-3.5674,-3.5658,-3.5662,-3.5618,-3.5575,-3.5538,-3.552,-3.5464,-3.5417,-3.5336,-3.5251,-3.5141,-3.5065,-3.5011,-3.4993,-3.4965,-3.4859,-3.4762,-3.4761,-3.472,-3.4678,-4.0888,-4.0917,-4.0921,-4.093,-4.092,-4.0917,-4.0961,-4.1018,-4.1016,-4.1013,-4.1011,-4.1064,-4.1096,-4.1109,-4.1103,-4.1112,-4.1099,-4.1108,-4.0993,-4.0584,-3.9883,-3.9081,-3.828,-3.7458,-3.6615,-3.6082,-3.5982,-3.5986,-3.6014,-3.6014,-3.6014,-3.6015,-3.6014,-3.6014,-3.6014,-3.6014,-3.6015,-3.6015,-3.6014,-3.6015,-3.6014,-3.6014,-3.6014,-3.6014,-3.6015,-3.6014,-3.6014,-3.6014,-3.6014,-3.6014,-3.6014,-3.6014,-3.6014,-3.6014,-3.6015,-3.6009,-3.6004,-3.6021,-3.6001,-3.6001,-3.6001,-3.6001,-3.6,-3.6001,-3.6001,-3.6001,-3.6001,-3.6021,-3.6001,-3.6001,-3.6001,-3.6001,-3.6001,-3.6001,-3.6001,-3.6,-3.6001,-3.6001,-3.6001,-3.597,-3.5935,-3.5892,-3.5844,-3.584,-3.583,-3.5826,-3.5807,-3.5807,-3.5803,-3.5803,-3.5803,-3.5803,-3.5799,-3.5807,-3.5771,-3.5735,-3.5727,-3.5713,-3.5679,-3.5669,-3.5634,-3.5612,-3.5554,-3.5513,-3.5451,-3.5367,-3.5297,-3.5209,-3.5168,-3.5117,-3.5056,-3.4992,-3.4973,-3.4945,-3.4917,-4.0921,-4.0995,-4.0995,-4.0986,-4.0997,-4.1003,-4.1022,-4.1083,-4.1086,-4.1103,-4.1081,-4.1085,-4.1112,-4.1104,-4.1111,-4.1113,-4.1094,-4.0957,-4.0643,-4.0075,-3.9172,-3.8327,-3.7481,-3.6576,-3.6256,-3.5935,-3.5925,-3.5956,-3.5991,-3.5995,-3.5998,-3.5998,-3.5998,-3.6017,-3.5998,-3.5998,-3.6017,-3.6017,-3.6017,-3.6017,-3.5998,-3.5998,-3.5998,-3.5998,-3.5998,-3.5998,-3.5998,-3.5998,-3.5998,-3.5996,-3.5998,-3.5998,-3.6017,-3.6017,-3.6017,-3.6007,-3.6014,-3.6015,-3.6015,-3.6015,-3.6015,-3.6015,-3.6015,-3.6015,-3.6015,-3.6015,-3.6015,-3.6015,-3.6015,-3.6015,-3.6015,-3.6015,-3.6015,-3.6015,-3.6015,-3.6015,-3.6015,-3.6015,-3.6015,-3.6015,-3.5973,-3.5939,-3.59,-3.5886,-3.5892,-3.5894,-3.5897,-3.5897,-3.5897,-3.5897,-3.5897,-3.5894,-3.5872,-3.5862,-3.5846,-3.5813,-3.5791,-3.5795,-3.5786,-3.5763,-3.5739,-3.5726,-3.5703,-3.5659,-3.5602,-3.5558,-3.5464,-3.539,-3.5338,-3.5285,-3.5239,-3.5198,-3.5176,-3.516,-3.5124,-4.1031,-4.1039,-4.1056,-4.1064,-4.105,-4.1059,-4.1051,-4.1101,-4.1108,-4.1116,-4.1104,-4.1108,-4.1112,-4.1113,-4.111,-4.1108,-4.1008,-4.0632,-4.0196,-3.9468,-3.8502,-3.7632,-3.7154,-3.6404,-3.5926,-3.5867,-3.5858,-3.5846,-3.5889,-3.5929,-3.594,-3.5942,-3.5942,-3.5942,-3.5942,-3.5942,-3.594,-3.5942,-3.5962,-3.596,-3.596,-3.594,-3.594,-3.594,-3.594,-3.594,-3.594,-3.5962,-3.5958,-3.5953,-3.5951,-3.5907,-3.5904,-3.5902,-3.5902,-3.5904,-3.5882,-3.5928,-3.5986,-3.6007,-3.6008,-3.6008,-3.6008,-3.6008,-3.6008,-3.6008,-3.6008,-3.6008,-3.6008,-3.6008,-3.6008,-3.6008,-3.6009,-3.6008,-3.5988,-3.6008,-3.6008,-3.6008,-3.6008,-3.6008,-3.6009,-3.5957,-3.5935,-3.5929,-3.5939,-3.5941,-3.5951,-3.5951,-3.5951,-3.5949,-3.5949,-3.5968,-3.5947,-3.594,-3.5887,-3.5855,-3.5861,-3.5859,-3.5869,-3.5846,-3.5846,-3.5817,-3.5799,-3.5764,-3.5732,-3.5679,-3.5614,-3.5556,-3.5496,-3.5463,-3.543,-3.5395,-3.536,-3.5319,-3.5296,-4.1109,-4.1111,-4.1101,-4.1104,-4.1108,-4.1116,-4.1103,-4.1107,-4.1111,-4.1113,-4.1113,-4.1112,-4.1108,-4.1099,-4.1072,-4.0966,-4.0705,-4.0092,-3.9496,-3.8761,-3.7929,-3.7152,-3.6651,-3.6077,-3.5827,-3.5756,-3.5772,-3.5772,-3.576,-3.5784,-3.582,-3.5862,-3.5885,-3.5885,-3.5866,-3.5866,-3.5885,-3.5885,-3.5885,-3.5866,-3.5866,-3.584,-3.584,-3.5859,-3.5856,-3.5853,-3.5853,-3.5853,-3.5843,-3.5856,-3.5852,-3.5826,-3.5799,-3.5779,-3.5799,-3.5779,-3.579,-3.5814,-3.588,-3.5919,-3.5951,-3.5955,-3.5958,-3.5958,-3.596,-3.596,-3.596,-3.5981,-3.598,-3.598,-3.598,-3.598,-3.596,-3.596,-3.596,-3.596,-3.598,-3.596,-3.5962,-3.5962,-3.5963,-3.5967,-3.5945,-3.5973,-3.5976,-3.6009,-3.6003,-3.6002,-3.6002,-3.5983,-3.5983,-3.5983,-3.5983,-3.5979,-3.5949,-3.5919,-3.5929,-3.5938,-3.5931,-3.5929,-3.5909,-3.5907,-3.5877,-3.5847,-3.5833,-3.5807,-3.5761,-3.5703,-3.5637,-3.5596,-3.5568,-3.5564,-3.5534,-3.5496,-3.5464,-4.1113,-4.1113,-4.109,-4.1088,-4.111,-4.1113,-4.1113,-4.1112,-4.111,-4.1106,-4.1099,-4.1088,-4.1074,-4.1022,-4.0857,-4.0532,-3.9875,-3.9836,-3.8822,-3.7809,-3.7111,-3.66,-3.6188,-3.5896,-3.5763,-3.5708,-3.5679,-3.565,-3.5634,-3.5639,-3.5698,-3.5795,-3.5779,-3.5803,-3.5783,-3.5783,-3.5779,-3.5779,-3.5779,-3.5779,-3.5775,-3.5747,-3.5715,-3.5711,-3.5717,-3.5722,-3.5703,-3.5708,-3.5708,-3.5722,-3.5722,-3.5698,-3.567,-3.567,-3.5665,-3.5665,-3.567,-3.5688,-3.572,-3.5783,-3.5811,-3.584,-3.5869,-3.588,-3.5886,-3.5892,-3.5894,-3.5892,-3.5889,-3.5892,-3.5914,-3.5914,-3.5894,-3.5894,-3.5894,-3.5914,-3.5914,-3.5894,-3.5894,-3.5916,-3.5919,-3.5921,-3.5909,-3.5914,-3.5944,-3.5975,-3.6016,-3.6015,-3.6015,-3.5996,-3.5996,-3.6015,-3.6015,-3.5995,-3.6011,-3.5987,-3.5984,-3.5977,-3.5971,-3.5989,-3.5989,-3.5968,-3.5947,-3.5919,-3.589,-3.5899,-3.5883,-3.5833,-3.5761,-3.5715,-3.5703,-3.5684,-3.5654,-3.5609,-3.5602,-3.9838,-4.0285,-4.0305,-4.0621,-4.1112,-4.1108,-4.1103,-4.1099,-4.1108,-4.1072,-4.1015,-4.1022,-4.0733,-4.0364,-4.0179,-3.9753,-3.8933,-3.8323,-3.7693,-3.71,-3.65,-3.6047,-3.5708,-3.5664,-3.5625,-3.5602,-3.5566,-3.5537,-3.5483,-3.5476,-3.5495,-3.5554,-3.5629,-3.5664,-3.5669,-3.5674,-3.5688,-3.5658,-3.5629,-3.5604,-3.5618,-3.5612,-3.5588,-3.5582,-3.5577,-3.5585,-3.5585,-3.5571,-3.5579,-3.5581,-3.5562,-3.555,-3.5519,-3.5519,-3.5513,-3.5513,-3.5513,-3.5513,-3.5543,-3.5645,-3.5739,-3.5747,-3.5756,-3.5764,-3.5776,-3.5772,-3.578,-3.5764,-3.5768,-3.5772,-3.5841,-3.5841,-3.5841,-3.5826,-3.5826,-3.5822,-3.5826,-3.5822,-3.5826,-3.5826,-3.5845,-3.5849,-3.584,-3.583,-3.5892,-3.5932,-3.5982,-3.6007,-3.6007,-3.6007,-3.5987,-3.5987,-3.5987,-3.5991,-3.5995,-3.5996,-3.6016,-3.6014,-3.6012,-3.6012,-3.6012,-3.6012,-3.5992,-3.5969,-3.5966,-3.5961,-3.5952,-3.5935,-3.5887,-3.584,-3.581,-3.5795,-3.5772,-3.5728,-3.5706,-3.8897,-3.9396,-3.9403,-4.0081,-4.1037,-4.1103,-4.1076,-4.1068,-4.1064,-4.0857,-4.0574,-4.034,-3.9914,-3.94,-3.9252,-3.8784,-3.801,-3.7409,-3.6935,-3.6439,-3.5968,-3.5626,-3.5554,-3.5525,-3.5501,-3.5451,-3.5432,-3.5398,-3.5328,-3.5328,-3.5336,-3.5371,-3.5425,-3.5476,-3.5531,-3.5546,-3.554,-3.5509,-3.547,-3.5438,-3.5457,-3.5444,-3.5438,-3.5438,-3.5424,-3.5417,-3.5411,-3.5411,-3.5385,-3.539,-3.5402,-3.5395,-3.5355,-3.534,-3.5314,-3.5307,-3.5288,-3.528,-3.5331,-3.5483,-3.5612,-3.5623,-3.5629,-3.5634,-3.5639,-3.5639,-3.564,-3.5626,-3.5631,-3.5655,-3.5713,-3.5708,-3.5689,-3.5665,-3.5684,-3.5684,-3.5718,-3.5722,-3.5727,-3.5736,-3.5736,-3.5741,-3.575,-3.5747,-3.582,-3.5883,-3.5929,-3.5958,-3.596,-3.5958,-3.5958,-3.5958,-3.5958,-3.595,-3.596,-3.5963,-3.5966,-3.6011,-3.6013,-3.6013,-3.6013,-3.6013,-3.6013,-3.5995,-3.5996,-3.6016,-3.5995,-3.5952,-3.5955,-3.5942,-3.5907,-3.585,-3.5841,-3.5807,-3.5814,-3.8461,-3.8525,-3.8526,-3.948,-4.0835,-4.1064,-4.0953,-4.0721,-4.0742,-4.0353,-3.9581,-3.8959,-3.8548,-3.835,-3.8307,-3.7772,-3.7091,-3.6804,-3.6422,-3.5783,-3.563,-3.5457,-3.5425,-3.5411,-3.5364,-3.533,-3.5308,-3.5258,-3.5198,-3.5179,-3.5198,-3.5198,-3.5219,-3.5281,-3.5385,-3.5415,-3.5372,-3.5304,-3.5296,-3.5281,-3.5274,-3.527,-3.5262,-3.5254,-3.5231,-3.5203,-3.5223,-3.5203,-3.5195,-3.5195,-3.5198,-3.5171,-3.5163,-3.513,-3.5094,-3.5094,-3.5032,-3.5015,-3.5013,-3.5265,-3.5385,-3.5457,-3.5464,-3.5477,-3.5508,-3.5514,-3.5514,-3.5495,-3.5501,-3.5501,-3.5507,-3.5507,-3.5513,-3.5519,-3.5519,-3.5544,-3.5575,-3.5587,-3.5574,-3.561,-3.5602,-3.5593,-3.5623,-3.5649,-3.575,-3.5818,-3.5872,-3.5889,-3.5889,-3.5911,-3.5908,-3.5908,-3.5908,-3.5902,-3.5899,-3.5906,-3.5916,-3.5986,-3.5994,-3.5994,-3.5974,-3.5974,-3.5975,-3.5995,-3.5999,-3.5964,-3.5969,-3.5972,-3.5957,-3.5931,-3.5934,-3.5903,-3.5898,-3.5894,-3.5906,-3.704,-3.7576,-3.7584,-3.8202,-3.9178,-3.9287,-3.9291,-3.9268,-3.9207,-3.9005,-3.8704,-3.834,-3.7882,-3.7533,-3.7234,-3.6843,-3.6144,-3.592,-3.5547,-3.5434,-3.5369,-3.5319,-3.53,-3.527,-3.5219,-3.519,-3.5157,-3.5115,-3.5073,-3.5028,-3.4991,-3.4982,-3.4991,-3.507,-3.5155,-3.5174,-3.5107,-3.5079,-3.5053,-3.5035,-3.5035,-3.5046,-3.5037,-3.5037,-3.5019,-3.501,-3.501,-3.4991,-3.501,-3.4982,-3.4973,-3.4945,-3.4936,-3.4879,-3.4851,-3.4841,-3.4803,-3.4793,-3.4803,-3.4916,-3.5032,-3.516,-3.5266,-3.5281,-3.5296,-3.5315,-3.533,-3.5352,-3.536,-3.5348,-3.5369,-3.535,-3.5357,-3.5376,-3.5376,-3.5376,-3.539,-3.539,-3.5397,-3.5443,-3.5463,-3.547,-3.5483,-3.5496,-3.5566,-3.5644,-3.5688,-3.5749,-3.5761,-3.5815,-3.5838,-3.5838,-3.5841,-3.5836,-3.583,-3.5843,-3.5858,-3.5894,-3.5929,-3.5916,-3.5916,-3.5912,-3.5934,-3.5934,-3.5919,-3.5925,-3.5916,-3.5926,-3.5936,-3.593,-3.5918,-3.5935,-3.5951,-3.597,-3.5967,-3.609,-3.658,-3.659,-3.6852,-3.7408,-3.8068,-3.8354,-3.8253,-3.797,-3.7757,-3.7665,-3.7384,-3.6922,-3.646,-3.6254,-3.6085,-3.5429,-3.5374,-3.5311,-3.5227,-3.5231,-3.5182,-3.516,-3.5117,-3.5063,-3.5028,-3.4992,-3.4965,-3.4888,-3.4821,-3.4801,-3.4801,-3.4762,-3.4802,-3.487,-3.4898,-3.4917,-3.487,-3.4821,-3.4792,-3.4792,-3.4801,-3.4782,-3.4782,-3.4801,-3.4801,-3.4801,-3.4801,-3.4801,-3.4772,-3.4742,-3.4701,-3.468,-3.462,-3.4577,-3.4567,-3.4545,-3.4516,-3.4516,-3.4567,-3.4674,-3.4774,-3.4944,-3.5044,-3.5072,-3.5098,-3.5115,-3.5132,-3.516,-3.5157,-3.5163,-3.5152,-3.5171,-3.5171,-3.5171,-3.5163,-3.5187,-3.5207,-3.5195,-3.5246,-3.5293,-3.5296,-3.5326,-3.534,-3.539,-3.5425,-3.5476,-3.556,-3.5635,-3.5679,-3.5722,-3.5722,-3.5727,-3.5745,-3.5739,-3.5775,-3.5795,-3.5818,-3.5829,-3.5824,-3.5817,-3.5806,-3.5836,-3.5846,-3.5827,-3.5817,-3.5858,-3.5875,-3.5866,-3.588,-3.588,-3.5921,-3.5991,-3.5994,-3.5995,-3.5689,-3.5683,-3.5612,-3.5626,-3.5834,-3.7337,-3.802,-3.797,-3.7134,-3.6749,-3.6697,-3.5893,-3.5621,-3.5501,-3.538,-3.5343,-3.5285,-3.5226,-3.5157,-3.5107,-3.5082,-3.5038,-3.4964,-3.4917,-3.4879,-3.4831,-3.479,-3.4739,-3.4687,-3.4604,-3.4583,-3.4572,-3.452,-3.4531,-3.4564,-3.4596,-3.4647,-3.4615,-3.4604,-3.4575,-3.4564,-3.4583,-3.4553,-3.4553,-3.4583,-3.4572,-3.4572,-3.4583,-3.4583,-3.4542,-3.4528,-3.4476,-3.4431,-3.4351,-3.4316,-3.4269,-3.4221,-3.4203,-3.4203,-3.4269,-3.4281,-3.436,-3.4577,-3.4713,-3.4821,-3.487,-3.4889,-3.4908,-3.4917,-3.4889,-3.4898,-3.4898,-3.4927,-3.4917,-3.4917,-3.4936,-3.4983,-3.4982,-3.5001,-3.5018,-3.5051,-3.5086,-3.5138,-3.5163,-3.5179,-3.5211,-3.5255,-3.5321,-3.5418,-3.5532,-3.5562,-3.5585,-3.5615,-3.5626,-3.5648,-3.5644,-3.5659,-3.5684,-3.5694,-3.5684,-3.5694,-3.5694,-3.5688,-3.5697,-3.5697,-3.5691,-3.5713,-3.5753,-3.5791,-3.5797,-3.5795,-3.586,-3.5914,-3.5944,-3.595,-3.555,-3.5565,-3.547,-3.5463,-3.55,-3.5981,-3.6194,-3.6151,-3.5839,-3.5739,-3.5724,-3.5408,-3.5254,-3.5269,-3.5204,-3.5151,-3.5108,-3.5028,-3.4954,-3.4898,-3.487,-3.484,-3.479,-3.472,-3.4678,-3.4626,-3.4572,-3.4506,-3.4461,-3.4393,-3.4335,-3.4323,-3.4281,-3.4257,-3.4257,-3.4262,-3.4316,-3.4381,-3.4381,-3.437,-3.4328,-3.4316,-3.4316,-3.4316,-3.4316,-3.4316,-3.4316,-3.4335,-3.4316,-3.4305,-3.4245,-3.4197,-3.4117,-3.4043,-3.4011,-3.3947,-3.3921,-3.3908,-3.3926,-3.3934,-3.3947,-3.3959,-3.4105,-3.4321,-3.4487,-3.4604,-3.4636,-3.4639,-3.466,-3.467,-3.467,-3.467,-3.467,-3.4678,-3.4678,-3.4699,-3.472,-3.473,-3.4732,-3.4782,-3.4822,-3.487,-3.4926,-3.4954,-3.4954,-3.4982,-3.5037,-3.5088,-3.5179,-3.5304,-3.539,-3.5424,-3.5438,-3.5451,-3.5483,-3.5483,-3.552,-3.5538,-3.5544,-3.5556,-3.5543,-3.5543,-3.5554,-3.556,-3.5566,-3.5552,-3.5557,-3.5609,-3.5635,-3.5674,-3.5684,-3.5761,-3.583,-3.5852,-3.5869,-3.5424,-3.5397,-3.5348,-3.5308,-3.5266,-3.522,-3.5179,-3.52,-3.5223,-3.5215,-3.5218,-3.5124,-3.5081,-3.5063,-3.5011,-3.4955,-3.4965,-3.484,-3.4752,-3.4722,-3.4658,-3.4615,-3.4561,-3.4495,-3.4431,-3.4386,-3.4358,-3.4288,-3.4221,-3.4124,-3.4049,-3.4055,-3.4036,-3.4023,-3.3998,-3.4011,-3.4011,-3.4074,-3.413,-3.4142,-3.4111,-3.4074,-3.4074,-3.4049,-3.4049,-3.4049,-3.4049,-3.4036,-3.4055,-3.4055,-3.3972,-3.3908,-3.3829,-3.3766,-3.3698,-3.3643,-3.3643,-3.3629,-3.3629,-3.3629,-3.3643,-3.3643,-3.3684,-3.3815,-3.4061,-3.4221,-3.4305,-3.4374,-3.4409,-3.445,-3.4431,-3.4431,-3.4431,-3.4439,-3.445,-3.4431,-3.445,-3.445,-3.4484,-3.452,-3.4575,-3.4628,-3.467,-3.4711,-3.4742,-3.4762,-3.4791,-3.4821,-3.4926,-3.5062,-3.5144,-3.5208,-3.5216,-3.5251,-3.527,-3.5307,-3.5314,-3.5328,-3.5362,-3.5376,-3.539,-3.539,-3.5364,-3.5385,-3.5424,-3.5412,-3.5392,-3.5425,-3.5477,-3.5502,-3.552,-3.5554,-3.5626,-3.572,-3.5745,-3.5285,-3.5285,-3.5218,-3.5115,-3.5066,-3.5011,-3.4945,-3.4898,-3.4992,-3.5057,-3.5029,-3.4927,-3.4879,-3.487,-3.48,-3.4768,-3.4718,-3.4615,-3.4561,-3.4569,-3.4409,-3.4351,-3.4316,-3.4233,-3.4185,-3.4148,-3.4099,-3.4011,-3.3934,-3.3842,-3.3793,-3.378,-3.378,-3.3766,-3.3753,-3.3753,-3.3753,-3.3753,-3.3829,-3.3881,-3.39,-3.3873,-3.3847,-3.3793,-3.378,-3.378,-3.378,-3.378,-3.3766,-3.3771,-3.373,-3.3661,-3.3549,-3.3433,-3.3378,-3.3364,-3.3345,-3.3345,-3.3345,-3.3345,-3.3345,-3.3364,-3.3364,-3.3419,-3.3583,-3.3855,-3.3985,-3.4074,-3.4111,-3.4148,-3.4142,-3.4173,-3.4173,-3.4173,-3.4173,-3.4173,-3.4173,-3.4173,-3.4185,-3.4233,-3.4262,-3.4321,-3.4356,-3.4401,-3.4435,-3.4498,-3.4528,-3.4528,-3.4604,-3.4742,-3.487,-3.4925,-3.5009,-3.5027,-3.5043,-3.5058,-3.5086,-3.5122,-3.5138,-3.5138,-3.51,-3.5127,-3.5174,-3.5144,-3.5141,-3.52,-3.5216,-3.5224,-3.5239,-3.5281,-3.5296,-3.5323,-3.5397,-3.5494,-3.5599,-3.5153,-3.5134,-3.5019,-3.4927,-3.4878,-3.4859,-3.4761,-3.4687,-3.4647,-3.4739,-3.481,-3.4739,-3.4687,-3.4658,-3.455,-3.4495,-3.4473,-3.4351,-3.4323,-3.4276,-3.4161,-3.4111,-3.4074,-3.3972,-3.3926,-3.3887,-3.3834,-3.3739,-3.3643,-3.3591,-3.3553,-3.3509,-3.3491,-3.3491,-3.3491,-3.3491,-3.3477,-3.3448,-3.3488,-3.3583,-3.3629,-3.3619,-3.3591,-3.3549,-3.3534,-3.3491,-3.3491,-3.3491,-3.3495,-3.3495,-3.3481,-3.3375,-3.3223,-3.307,-3.3026,-3.3028,-3.3011,-3.3011,-3.3011,-3.3011,-3.3011,-3.3011,-3.3011,-3.3026,-3.318,-3.3459,-3.3657,-3.3721,-3.3802,-3.3842,-3.3881,-3.3881,-3.3895,-3.3913,-3.3913,-3.3913,-3.3913,-3.3913,-3.3895,-3.3934,-3.3972,-3.4011,-3.4061,-3.4086,-3.4124,-3.4136,-3.4136,-3.4148,-3.4173,-3.4286,-3.4469,-3.4588,-3.4751,-3.4791,-3.4793,-3.4793,-3.4813,-3.4832,-3.4832,-3.4822,-3.4813,-3.4851,-3.487,-3.4841,-3.4832,-3.4889,-3.4944,-3.4973,-3.4991,-3.5018,-3.5053,-3.5062,-3.5088,-3.5162,-3.5324,-3.4964,-3.4955,-3.484,-3.471,-3.4645,-3.4623,-3.4539,-3.4427,-3.4351,-3.4363,-3.445,-3.4461,-3.4443,-3.4416,-3.43,-3.4221,-3.4179,-3.4086,-3.4036,-3.3985,-3.3939,-3.3855,-3.3775,-3.3712,-3.3657,-3.3601,-3.3549,-3.3466,-3.3364,-3.3289,-3.3259,-3.3198,-3.3183,-3.3183,-3.3183,-3.3183,-3.3183,-3.3183,-3.3165,-3.3226,-3.3298,-3.3298,-3.3301,-3.3271,-3.3211,-3.318,-3.3165,-3.3165,-3.3165,-3.3135,-3.3088,-3.3008,-3.2848,-3.2719,-3.2655,-3.2639,-3.2605,-3.2621,-3.2621,-3.2639,-3.2639,-3.2639,-3.2621,-3.2621,-3.2655,-3.291,-3.3096,-3.3217,-3.3441,-3.3494,-3.3522,-3.3555,-3.3601,-3.3619,-3.3619,-3.3633,-3.3633,-3.3633,-3.3615,-3.3629,-3.3657,-3.3684,-3.3739,-3.3766,-3.3775,-3.3829,-3.3834,-3.382,-3.3829,-3.381,-3.4005,-3.4185,-3.4316,-3.4473,-3.4513,-3.4534,-3.4526,-3.4545,-3.4526,-3.4567,-3.4577,-3.4577,-3.4567,-3.4537,-3.4537,-3.4588,-3.463,-3.4651,-3.4651,-3.4672,-3.4723,-3.4773,-3.4803,-3.4832,-3.4962,-3.4761,-3.4727,-3.4594,-3.4473,-3.4351,-3.434,-3.4288,-3.4161,-3.4086,-3.4023,-3.3985,-3.4136,-3.4173,-3.4124,-3.4011,-3.3972,-3.3908,-3.3788,-3.3766,-3.3726,-3.3671,-3.3587,-3.3516,-3.3462,-3.339,-3.3316,-3.3274,-3.3198,-3.3088,-3.3011,-3.2932,-3.2868,-3.2836,-3.2818,-3.2836,-3.2836,-3.2836,-3.2836,-3.2802,-3.282,-3.2882,-3.2977,-3.2977,-3.2945,-3.2884,-3.2834,-3.2818,-3.2818,-3.2802,-3.2753,-3.2672,-3.2589,-3.2506,-3.237,-3.2284,-3.2249,-3.2249,-3.2249,-3.2231,-3.2249,-3.2249,-3.2249,-3.2231,-3.2231,-3.2249,-3.2335,-3.2555,-3.2702,-3.2925,-3.3144,-3.316,-3.322,-3.3286,-3.3316,-3.3316,-3.3316,-3.3316,-3.3316,-3.3316,-3.3316,-3.3331,-3.336,-3.339,-3.3419,-3.3448,-3.3506,-3.352,-3.352,-3.352,-3.3484,-3.3564,-3.3675,-3.3797,-3.3967,-3.4142,-3.4191,-3.416,-3.4191,-3.4179,-3.4269,-3.4323,-3.4281,-3.425,-3.425,-3.4262,-3.4274,-3.4298,-3.4321,-3.4321,-3.4333,-3.439,-3.4439,-3.4469,-3.4502,-3.4556,-3.4487,-3.4404,-3.4305,-3.4197,-3.4086,-3.4055,-3.3998,-3.3881,-3.3855,-3.3793,-3.3712,-3.3712,-3.378,-3.3855,-3.3739,-3.3671,-3.3625,-3.3534,-3.3477,-3.3448,-3.3408,-3.3301,-3.3226,-3.315,-3.3075,-3.3013,-3.2948,-3.2934,-3.2804,-3.2705,-3.2622,-3.2574,-3.2437,-3.242,-3.242,-3.2438,-3.2438,-3.2438,-3.2438,-3.2438,-3.2506,-3.2606,-3.2737,-3.2706,-3.2623,-3.2522,-3.2437,-3.242,-3.2403,-3.2352,-3.2266,-3.2197,-3.2109,-3.2019,-3.1911,-3.1893,-3.1893,-3.1893,-3.1875,-3.1875,-3.1875,-3.1893,-3.1893,-3.1875,-3.1893,-3.1893,-3.2037,-3.2073,-3.2335,-3.2669,-3.2766,-3.2896,-3.2961,-3.2961,-3.2961,-3.2961,-3.2961,-3.2961,-3.2961,-3.2961,-3.2977,-3.2993,-3.2993,-3.3008,-3.3008,-3.3055,-3.3037,-3.3055,-3.307,-3.3101,-3.3114,-3.319,-3.3262,-3.3455,-3.3666,-3.3748,-3.3743,-3.3775,-3.382,-3.3855,-3.3881,-3.3913,-3.3913,-3.3863,-3.3889,-3.3902,-3.3928,-3.3923,-3.3992,-3.4005,-3.4043,-3.4093,-3.4124,-3.4161,-3.4203]},{"header":{"parameterUnit":"m.s-1","parameterCategory":1,"la1":31.0,"la2":29.5877,"lo1":-88.7671,"lo2":-86.6584,"dy":0.0162,"dx":0.0185,"nx":115,"ny":88,"refTime":"2023-08-22T12:00:00:Z","depth":0,"parameterNumber":3,"parameterNumberName":"V-component_of_WINDS"},"data":[0.0,0.0,0.0,0.0,0.0,0.0,0.0,0.0,0.0,0.0,0.0,0.0,0.0,0.0,0.0,0.0,0.0,0.0,0.0,0.0,0.0,0.0,0.0,0.0,0.0,0.0,0.0,0.0,0.0,0.0,0.0,0.0,0.0,0.0,0.0,0.0,0.0,0.0,0.0,0.0,0.0,0.0,0.0,0.0,0.0,0.0,0.0,0.0,0.0,0.0,0.0,0.0,0.0,0.0,0.0,0.0,0.0,0.0,0.0,0.0,0.0,0.0,0.0,0.0,0.0,0.0,0.0,0.0,0.0,0.0,0.0,0.0,0.0,0.0,0.0,0.0,0.0,0.0,0.0,0.0,0.0,0.0,0.0,0.0,0.0,0.0,0.0,0.0,0.0,0.0,0.0,0.0,0.0,0.0,0.0,0.0,0.0,0.0,0.0,0.0,0.0,0.0,0.0,0.0,0.0,0.0,0.0,0.0,0.0,0.0,0.0,0.0,0.0,0.0,0.0,0.0,0.0,0.0,0.0,0.0,0.0,0.0,0.0,0.0,0.0,0.0,0.0,0.0,0.0,0.0,0.0,0.0,0.0,0.0,0.0,0.0,0.0,0.0,0.0,0.0,0.0,0.0,0.0,0.0,0.0,0.0,0.0,0.0,0.0,0.0,0.0,0.0,0.0,0.0,0.0,0.0,0.0,0.0,0.0,0.0,0.0,0.0,0.0,0.0,0.0,0.0,0.0,0.0,0.0,0.0,0.0,0.0,0.0,0.0,0.0,0.0,0.0,0.0,0.0,0.0,0.0,0.0,0.0,0.0,0.0,0.0,0.0,0.0,0.0,0.0,0.0,0.0,0.0,0.0,0.0,0.0,0.0,0.0,0.0,0.0,0.0,0.0,0.0,0.0,0.0,0.0,0.0,0.0,0.0,0.0,0.0,0.0,0.0,0.0,0.0,0.0,0.0,0.0,0.0,0.0,0.0,0.0,0.0,0.0,0.0,0.0,0.0,0.0,0.0,0.0,0.0,0.0,0.0,0.0,0.0,0.0,0.0,0.0,0.0,0.0,0.0,0.0,0.0,0.0,0.0,0.0,0.0,0.0,0.0,0.0,0.0,0.0,0.0,0.0,0.0,0.0,0.0,0.0,0.0,0.0,0.0,0.0,0.0,0.0,0.0,0.0,0.0,0.0,0.0,0.0,0.0,0.0,0.0,0.0,0.0,0.0,0.0,0.0,0.0,0.0,0.0,0.0,0.0,0.0,0.0,0.0,0.0,0.0,0.0,0.0,0.0,0.0,0.0,0.0,0.0,0.0,0.0,0.0,0.0,0.0,0.0,0.0,0.0,0.0,0.0,0.0,0.0,0.0,0.0,0.0,0.0,0.0,0.0,0.0,0.0,0.0,0.0,0.0,0.0,0.0,0.0,0.0,0.0,0.0,0.0,0.0,0.0,0.0,0.0,0.0,0.0,0.0,0.0,0.0,0.0,0.0,0.0,0.0,0.0,0.0,0.0,0.0,0.0,0.0,0.0,0.0,0.0,0.0,0.0,0.0,0.0,0.0,0.0,0.0,0.0,0.0,0.0,0.0,0.0,0.0,0.0,0.0,0.0,0.0,0.0,0.0,0.0,0.0,0.0,0.0,0.0,0.0,0.0,0.0,0.0,0.0,0.0,0.0,0.0,0.0,0.0,0.0,0.0,0.0,0.0,0.0,0.0,0.0,0.0,0.0,0.0,0.0,0.0,0.0,0.0,0.0,0.0,0.0,0.0,0.0,0.0,0.0,0.0,0.0,0.0,0.0,0.0,0.0,0.0,0.0,0.0,0.0,0.0,0.0,0.0,0.0,0.0,0.0,0.0,0.0,0.0,0.0,0.0,0.0,0.0,0.0,0.0,0.0,0.0,0.0,0.0,0.0,0.0,0.0,0.0,0.0,0.0,0.0,0.0,0.0,0.0,0.0,0.0,0.0,0.0,0.0,0.0,0.0,0.0,0.0,0.0,0.0,0.0,0.0,0.0,0.0,0.0,0.0,0.0,0.0,0.0,0.0,0.0,0.0,0.0,0.0,0.0,0.0,0.0,0.0,0.0,0.0,0.0,0.0,0.0,0.0,0.0,0.0,0.0,0.0,0.0,0.0,0.0,0.0,0.0,0.0,0.0,0.0,0.0,0.0,0.0,0.0,0.0,0.0,0.0,0.0,0.0,0.0,0.0,0.0,0.0,0.0,0.0,0.0,0.0,0.0,0.0,0.0,0.0,0.0,0.0,0.0,0.0,0.0,0.0,0.0,0.0,0.0,0.0,0.0,0.0,0.0,0.0,0.0,0.0,0.0,0.0,0.0,0.0,0.0,0.0,0.0,0.0,0.0,0.0,0.0,0.0,0.0,0.0,0.0,0.0,0.0,0.0,0.0,0.0,0.0,0.0,0.0,0.0,0.0,0.0,0.0,0.0,0.0,0.0,0.0,0.0,0.0,0.0,0.0,0.0,0.0,0.0,0.0,0.0,0.0,0.0,0.0,0.0,0.0,0.0,0.0,0.0,0.0,0.0,0.0,0.0,0.0,0.0,0.0,0.0,0.0,0.0,0.0,0.0,0.0,0.0,0.0,0.0,0.0,0.0,0.0,0.0,0.0,0.0,0.0,0.0,0.0,0.0,0.0,0.0,0.0,0.0,0.0,0.0,0.0,0.0,0.0,0.0,0.0,0.0,0.0,0.0,0.0,0.0,0.0,0.0,0.0,0.0,0.0,0.0,0.0,0.0,0.0,0.0,0.0,0.0,0.0,0.0,0.0,0.0,0.0,0.0,0.0,0.0,0.0,0.0,0.0,0.0,0.0,0.0,0.0,0.0,0.0,0.0,0.0,0.0,0.0,0.0,0.0,0.0,0.0,0.0,0.0,0.0,0.0,0.0,0.0,0.0,0.0,0.0,0.0,0.0,0.0,0.0,0.0,0.0,0.0,0.0,0.0,0.0,0.0,0.0,0.0,0.0,0.0,0.0,0.0,0.0,0.0,0.0,0.0,0.0,0.0,0.0,0.0,0.0,0.0,0.0,0.0,0.0,0.0,0.0,0.0,0.0,0.0,0.0,0.0,0.0,0.0,0.0,0.0,0.0,0.0,0.0,0.0,0.0,0.0,0.0,0.0,0.0,0.0,0.0,0.0,0.0,0.0,0.0,0.0,0.0,0.0,0.0,0.0,0.0,0.0,0.0,0.0,0.0,0.0,0.0,0.0,0.0,0.0,0.0,0.0,0.0,0.0,0.0,0.0,0.0,0.0,0.0,0.0,0.0,0.0,0.0,0.0,0.0,0.0,0.0,0.0,0.0,0.0,0.0,0.0,0.0,0.0,0.0,0.0,0.0,0.0,0.0,0.0,0.0,0.0,0.0,0.0,0.0,0.0,0.0,0.0,0.0,0.0,0.0,0.0,0.0,0.0,0.0,0.0,0.0,0.0,0.0,0.0,0.0,0.0,0.0,0.0,0.0,0.0,0.0,0.0,0.0,0.0,0.0,0.0,0.0,0.0,0.0,0.0,0.0,0.0,0.0,0.0,0.0,0.0,0.0,0.0,0.0,0.0,0.0,0.0,0.0,0.0,0.0,0.0,0.0,0.0,0.0,0.0,0.0,0.0,0.0,0.0,0.0,0.0,0.0,0.0,0.0,0.0,0.0,0.0,0.0,0.0,0.0,0.0,0.0,0.0,0.0,0.0,0.0,0.0,0.0,0.0,0.0,0.0,0.0,0.0,0.0,0.0,0.0,0.0,0.0,0.0,0.0,0.0,0.0,0.0,0.0,0.0,0.0,0.0,0.0,0.0,0.0,0.0,0.0,0.0,0.0,0.0,0.0,0.0,0.0,0.0,0.0,0.0,0.0,0.0,0.0,0.0,0.0,0.0,0.0,0.0,0.0,0.0,0.0,0.0,0.0,0.0,0.0,0.0,0.0,0.0,0.0,0.0,0.0,0.0,0.0,0.0,0.0,0.0,0.0,0.0,0.0,0.0,0.0,0.0,0.0,0.0,0.0,0.0,0.0,0.0,0.0,0.0,0.0,0.0,0.0,0.0,0.0,0.0,0.0,0.0,0.0,0.0,0.0,0.0,0.0,0.0,0.0,0.0,0.0,0.0,0.0,0.0,0.0,0.0,0.0,0.0,0.0,0.0,0.0,0.0,0.0,0.0,0.0,0.0,0.0,0.0,0.0,0.0,0.0,0.0,0.0,0.0,0.0,0.0,0.0,0.0,0.0,0.0,0.0,0.0,0.0,0.0,0.0,0.0,-1.679,0.0,0.0,0.0,0.0,0.0,0.0,0.0,0.0,0.0,0.0,0.0,0.0,0.0,0.0,0.0,0.0,0.0,0.0,0.0,0.0,0.0,0.0,0.0,0.0,0.0,0.0,0.0,0.0,0.0,0.0,0.0,0.0,0.0,0.0,0.0,0.0,0.0,0.0,0.0,0.0,0.0,0.0,0.0,0.0,0.0,0.0,0.0,0.0,0.0,0.0,0.0,0.0,0.0,0.0,0.0,0.0,0.0,0.0,0.0,0.0,0.0,0.0,0.0,0.0,0.0,0.0,0.0,0.0,0.0,0.0,0.0,0.0,0.0,0.0,0.0,0.0,0.0,0.0,0.0,0.0,0.0,0.0,0.0,0.0,0.0,0.0,0.0,0.0,0.0,0.0,0.0,0.0,0.0,0.0,0.0,0.0,0.0,0.0,0.0,0.0,0.0,0.0,0.0,0.0,0.0,0.0,0.0,0.0,0.0,0.0,-1.792,-1.7684,-1.72,-1.6853,-1.679,0.0,0.0,0.0,0.0,0.0,0.0,0.0,0.0,0.0,0.0,0.0,0.0,0.0,0.0,0.0,0.0,0.0,0.0,0.0,0.0,0.0,0.0,0.0,0.0,0.0,0.0,0.0,0.0,0.0,0.0,0.0,0.0,0.0,0.0,0.0,0.0,0.0,0.0,0.0,0.0,0.0,0.0,0.0,0.0,0.0,0.0,0.0,0.0,0.0,0.0,0.0,0.0,0.0,0.0,0.0,0.0,0.0,0.0,0.0,0.0,0.0,0.0,0.0,0.0,0.0,0.0,0.0,0.0,0.0,0.0,0.0,0.0,0.0,0.0,0.0,0.0,0.0,0.0,0.0,0.0,0.0,0.0,0.0,0.0,0.0,0.0,0.0,0.0,0.0,0.0,0.0,0.0,0.0,0.0,0.0,0.0,0.0,0.0,0.0,0.0,0.0,0.0,0.0,0.0,0.0,0.0,0.0,0.0,0.0,0.0,0.0,0.0,-1.7245,-1.6899,-1.6705,0.0,0.0,0.0,0.0,0.0,0.0,0.0,0.0,0.0,0.0,0.0,0.0,0.0,0.0,0.0,0.0,0.0,0.0,0.0,0.0,0.0,0.0,0.0,0.0,0.0,0.0,0.0,0.0,0.0,0.0,0.0,0.0,0.0,0.0,0.0,0.0,0.0,0.0,0.0,0.0,0.0,0.0,0.0,0.0,0.0,0.0,0.0,0.0,0.0,0.0,0.0,0.0,0.0,0.0,0.0,0.0,0.0,0.0,0.0,0.0,0.0,0.0,0.0,0.0,0.0,0.0,0.0,0.0,0.0,0.0,0.0,0.0,0.0,0.0,0.0,0.0,0.0,0.0,0.0,0.0,0.0,0.0,0.0,0.0,0.0,0.0,0.0,0.0,0.0,0.0,0.0,0.0,0.0,0.0,0.0,0.0,0.0,0.0,0.0,0.0,0.0,0.0,0.0,0.0,0.0,0.0,0.0,0.0,0.0,0.0,-1.815,-1.7711,-1.7245,0.0,-1.647,0.0,0.0,0.0,0.0,0.0,0.0,0.0,0.0,0.0,0.0,0.0,0.0,0.0,0.0,0.0,0.0,0.0,0.0,0.0,0.0,0.0,0.0,0.0,0.0,0.0,0.0,0.0,0.0,0.0,0.0,0.0,0.0,0.0,0.0,0.0,0.0,0.0,0.0,0.0,0.0,0.0,0.0,0.0,0.0,0.0,0.0,0.0,0.0,0.0,0.0,0.0,0.0,0.0,0.0,0.0,0.0,0.0,0.0,0.0,0.0,0.0,0.0,0.0,0.0,0.0,0.0,0.0,0.0,0.0,0.0,0.0,0.0,0.0,0.0,0.0,0.0,0.0,0.0,0.0,0.0,0.0,0.0,0.0,0.0,0.0,0.0,0.0,0.0,0.0,0.0,0.0,0.0,0.0,0.0,0.0,0.0,0.0,0.0,0.0,0.0,0.0,0.0,0.0,0.0,0.0,0.0,0.0,0.0,0.0,0.0,-1.8275,-1.7711,-1.7162,-1.6722,0.0,0.0,0.0,0.0,0.0,0.0,0.0,0.0,0.0,0.0,0.0,0.0,0.0,0.0,0.0,0.0,0.0,0.0,0.0,0.0,0.0,0.0,0.0,0.0,0.0,0.0,0.0,0.0,0.0,0.0,0.0,0.0,0.0,0.0,0.0,0.0,0.0,0.0,0.0,0.0,0.0,0.0,0.0,0.0,0.0,0.0,0.0,0.0,0.0,0.0,0.0,0.0,0.0,0.0,0.0,0.0,0.0,0.0,0.0,0.0,0.0,0.0,0.0,0.0,0.0,0.0,0.0,0.0,0.0,0.0,0.0,0.0,0.0,0.0,0.0,0.0,0.0,0.0,0.0,0.0,0.0,0.0,0.0,0.0,0.0,0.0,0.0,0.0,0.0,0.0,0.0,0.0,0.0,0.0,0.0,0.0,0.0,0.0,0.0,0.0,0.0,0.0,0.0,0.0,0.0,0.0,0.0,0.0,0.0,0.0,-1.8587,-1.8263,-1.759,-1.7071,-1.6676,-1.6413,0.0,0.0,0.0,0.0,0.0,0.0,0.0,0.0,0.0,0.0,0.0,0.0,0.0,0.0,0.0,0.0,0.0,0.0,0.0,0.0,0.0,0.0,0.0,0.0,0.0,0.0,0.0,0.0,0.0,0.0,0.0,0.0,0.0,0.0,0.0,0.0,0.0,0.0,0.0,0.0,0.0,0.0,0.0,0.0,0.0,0.0,0.0,0.0,0.0,0.0,0.0,0.0,0.0,0.0,0.0,0.0,0.0,0.0,0.0,0.0,0.0,0.0,0.0,0.0,0.0,0.0,0.0,0.0,0.0,0.0,0.0,0.0,0.0,0.0,0.0,0.0,0.0,0.0,0.0,0.0,0.0,0.0,0.0,0.0,0.0,0.0,0.0,0.0,0.0,0.0,0.0,0.0,0.0,0.0,0.0,0.0,0.0,0.0,0.0,0.0,0.0,0.0,0.0,0.0,0.0,0.0,0.0,0.0,-1.8614,-1.8587,-1.8143,-1.7273,-1.6948,-1.6676,0.0,0.0,0.0,0.0,0.0,0.0,0.0,0.0,0.0,0.0,0.0,0.0,0.0,0.0,0.0,0.0,0.0,0.0,0.0,0.0,0.0,0.0,0.0,0.0,0.0,0.0,0.0,0.0,0.0,0.0,0.0,0.0,0.0,0.0,0.0,0.0,0.0,0.0,0.0,0.0,0.0,0.0,0.0,0.0,0.0,0.0,0.0,0.0,0.0,0.0,0.0,0.0,0.0,0.0,0.0,0.0,0.0,0.0,0.0,0.0,0.0,0.0,0.0,0.0,0.0,0.0,0.0,0.0,0.0,0.0,0.0,0.0,0.0,0.0,0.0,0.0,0.0,0.0,0.0,0.0,0.0,0.0,0.0,0.0,0.0,0.0,0.0,0.0,0.0,0.0,0.0,0.0,0.0,0.0,0.0,0.0,0.0,0.0,0.0,0.0,0.0,0.0,0.0,0.0,0.0,0.0,0.0,0.0,0.0,-1.8614,-1.822,-1.7717,-1.7095,-1.6892,-1.6676,0.0,0.0,0.0,0.0,0.0,0.0,0.0,0.0,0.0,0.0,0.0,0.0,0.0,0.0,0.0,0.0,0.0,0.0,0.0,0.0,0.0,0.0,0.0,0.0,0.0,0.0,0.0,0.0,0.0,0.0,0.0,0.0,0.0,0.0,0.0,0.0,0.0,0.0,0.0,0.0,0.0,0.0,0.0,0.0,0.0,0.0,0.0,0.0,0.0,0.0,0.0,0.0,0.0,0.0,0.0,0.0,0.0,0.0,0.0,0.0,0.0,0.0,0.0,0.0,0.0,0.0,0.0,0.0,0.0,0.0,0.0,0.0,0.0,0.0,0.0,0.0,0.0,0.0,0.0,0.0,0.0,0.0,0.0,0.0,0.0,0.0,0.0,0.0,0.0,0.0,0.0,0.0,0.0,0.0,0.0,0.0,0.0,0.0,0.0,0.0,0.0,0.0,0.0,0.0,0.0,0.0,0.0,0.0,0.0,-1.8533,0.0,-1.7479,-1.7028,-1.6881,-1.6648,0.0,0.0,0.0,0.0,0.0,0.0,0.0,0.0,0.0,0.0,0.0,0.0,0.0,0.0,0.0,0.0,0.0,0.0,0.0,0.0,0.0,0.0,0.0,0.0,0.0,0.0,0.0,0.0,0.0,0.0,0.0,0.0,0.0,0.0,0.0,0.0,0.0,0.0,0.0,0.0,0.0,0.0,0.0,0.0,0.0,0.0,0.0,0.0,0.0,0.0,0.0,0.0,0.0,0.0,0.0,0.0,0.0,0.0,0.0,0.0,0.0,0.0,0.0,0.0,0.0,0.0,0.0,0.0,0.0,0.0,0.0,0.0,0.0,0.0,0.0,0.0,0.0,0.0,0.0,0.0,0.0,0.0,0.0,0.0,0.0,0.0,0.0,0.0,0.0,0.0,0.0,0.0,0.0,0.0,0.0,0.0,0.0,0.0,0.0,0.0,0.0,0.0,0.0,0.0,0.0,0.0,0.0,0.0,-1.8955,-1.8406,-1.7954,-1.7484,-1.7022,-1.6885,-1.6591,0.0,0.0,0.0,0.0,0.0,0.0,0.0,0.0,0.0,0.0,0.0,0.0,0.0,0.0,0.0,0.0,0.0,0.0,0.0,0.0,0.0,0.0,0.0,0.0,0.0,0.0,0.0,0.0,0.0,0.0,0.0,0.0,0.0,0.0,0.0,0.0,0.0,0.0,0.0,0.0,0.0,0.0,0.0,0.0,0.0,0.0,0.0,0.0,0.0,0.0,0.0,0.0,0.0,0.0,0.0,0.0,0.0,0.0,0.0,0.0,0.0,0.0,0.0,0.0,0.0,0.0,0.0,0.0,0.0,0.0,0.0,0.0,0.0,0.0,0.0,0.0,0.0,0.0,0.0,0.0,0.0,0.0,0.0,0.0,0.0,0.0,0.0,0.0,0.0,0.0,0.0,0.0,0.0,0.0,0.0,0.0,0.0,0.0,0.0,0.0,0.0,0.0,0.0,0.0,0.0,0.0,0.0,0.0,0.0,-1.8543,-1.8062,-1.769,-1.738,-1.7228,-1.6819,0.0,0.0,0.0,0.0,0.0,0.0,0.0,0.0,0.0,0.0,0.0,0.0,0.0,0.0,0.0,0.0,0.0,0.0,0.0,0.0,0.0,0.0,0.0,0.0,0.0,0.0,0.0,0.0,0.0,0.0,0.0,0.0,0.0,0.0,0.0,0.0,0.0,0.0,0.0,0.0,0.0,0.0,0.0,0.0,0.0,0.0,0.0,0.0,0.0,0.0,0.0,0.0,0.0,0.0,0.0,0.0,0.0,0.0,0.0,0.0,0.0,0.0,0.0,0.0,0.0,0.0,0.0,0.0,0.0,0.0,0.0,0.0,0.0,0.0,0.0,0.0,0.0,0.0,0.0,0.0,0.0,0.0,0.0,0.0,0.0,0.0,0.0,0.0,0.0,0.0,0.0,0.0,0.0,0.0,0.0,0.0,0.0,0.0,0.0,0.0,0.0,0.0,0.0,0.0,0.0,0.0,0.0,0.0,0.0,-1.9132,-1.8563,-1.8062,-1.7643,-1.7525,-1.7048,-1.6214,0.0,0.0,0.0,0.0,0.0,0.0,0.0,0.0,0.0,0.0,0.0,0.0,0.0,0.0,0.0,0.0,0.0,0.0,0.0,0.0,0.0,0.0,0.0,0.0,0.0,0.0,0.0,0.0,0.0,0.0,0.0,0.0,0.0,0.0,0.0,0.0,0.0,0.0,0.0,0.0,0.0,0.0,0.0,0.0,0.0,0.0,0.0,0.0,0.0,0.0,0.0,0.0,0.0,0.0,0.0,0.0,0.0,0.0,0.0,0.0,0.0,0.0,0.0,0.0,0.0,0.0,0.0,0.0,0.0,0.0,0.0,0.0,0.0,0.0,0.0,0.0,0.0,0.0,0.0,0.0,0.0,0.0,0.0,0.0,0.0,0.0,0.0,0.0,0.0,0.0,0.0,0.0,0.0,0.0,0.0,0.0,0.0,0.0,0.0,0.0,0.0,0.0,0.0,0.0,0.0,0.0,0.0,0.0,-2.0112,-1.934,-1.8653,-1.7987,-1.7823,-1.7287,0.0,0.0,0.0,0.0,0.0,0.0,0.0,0.0,0.0,0.0,0.0,0.0,0.0,0.0,0.0,0.0,0.0,0.0,0.0,0.0,0.0,0.0,0.0,0.0,0.0,0.0,0.0,0.0,0.0,0.0,0.0,0.0,0.0,0.0,0.0,0.0,0.0,0.0,0.0,0.0,0.0,0.0,0.0,0.0,0.0,0.0,0.0,0.0,0.0,0.0,0.0,0.0,0.0,0.0,0.0,0.0,0.0,0.0,0.0,0.0,0.0,0.0,0.0,0.0,0.0,0.0,0.0,0.0,0.0,0.0,0.0,0.0,0.0,0.0,0.0,0.0,0.0,0.0,0.0,0.0,0.0,0.0,0.0,0.0,0.0,0.0,0.0,0.0,0.0,0.0,0.0,0.0,0.0,0.0,0.0,0.0,0.0,0.0,0.0,0.0,0.0,0.0,0.0,0.0,0.0,0.0,0.0,0.0,0.0,-2.0093,-1.9796,-1.9297,-1.867,-1.8216,-1.7531,0.0,0.0,0.0,0.0,0.0,0.0,0.0,0.0,0.0,0.0,0.0,0.0,0.0,0.0,0.0,0.0,0.0,0.0,0.0,0.0,0.0,0.0,0.0,0.0,0.0,0.0,0.0,0.0,0.0,0.0,0.0,0.0,0.0,0.0,0.0,0.0,0.0,0.0,0.0,0.0,0.0,0.0,0.0,0.0,0.0,0.0,0.0,0.0,0.0,0.0,0.0,0.0,0.0,0.0,0.0,0.0,0.0,0.0,0.0,0.0,0.0,0.0,0.0,0.0,0.0,0.0,0.0,0.0,0.0,0.0,0.0,0.0,0.0,0.0,0.0,0.0,0.0,0.0,0.0,0.0,0.0,0.0,0.0,0.0,0.0,0.0,0.0,0.0,0.0,0.0,0.0,0.0,0.0,0.0,0.0,0.0,0.0,0.0,0.0,0.0,0.0,0.0,0.0,0.0,0.0,0.0,0.0,0.0,-2.0361,-2.0221,-2.0019,-1.963,-1.9082,-1.8551,-1.789,0.0,0.0,0.0,0.0,0.0,0.0,0.0,0.0,0.0,0.0,0.0,0.0,0.0,0.0,0.0,0.0,0.0,0.0,0.0,0.0,0.0,0.0,0.0,0.0,0.0,0.0,0.0,0.0,0.0,0.0,0.0,0.0,0.0,0.0,0.0,0.0,0.0,0.0,0.0,0.0,0.0,0.0,0.0,0.0,0.0,0.0,0.0,0.0,0.0,0.0,0.0,0.0,0.0,0.0,0.0,0.0,0.0,0.0,0.0,0.0,0.0,0.0,0.0,0.0,0.0,0.0,0.0,0.0,0.0,0.0,0.0,0.0,0.0,0.0,0.0,0.0,0.0,0.0,0.0,0.0,0.0,0.0,0.0,0.0,0.0,0.0,0.0,0.0,0.0,0.0,0.0,0.0,0.0,0.0,0.0,0.0,0.0,0.0,0.0,0.0,0.0,0.0,0.0,0.0,0.0,0.0,0.0,0.0,-2.0367,-2.0356,-2.0042,-1.9671,-1.9285,-1.8785,-1.8205,0.0,0.0,0.0,0.0,0.0,0.0,0.0,0.0,0.0,0.0,0.0,0.0,0.0,0.0,0.0,0.0,0.0,0.0,0.0,0.0,0.0,0.0,0.0,0.0,0.0,0.0,0.0,0.0,0.0,0.0,0.0,0.0,0.0,0.0,0.0,0.0,0.0,0.0,0.0,0.0,0.0,0.0,0.0,0.0,0.0,0.0,0.0,0.0,0.0,0.0,0.0,0.0,0.0,0.0,0.0,0.0,0.0,0.0,0.0,0.0,0.0,0.0,0.0,0.0,0.0,0.0,0.0,0.0,0.0,0.0,0.0,0.0,0.0,0.0,0.0,0.0,0.0,0.0,0.0,0.0,0.0,0.0,0.0,0.0,0.0,0.0,0.0,0.0,0.0,0.0,0.0,0.0,0.0,0.0,0.0,0.0,0.0,0.0,0.0,0.0,0.0,0.0,0.0,0.0,0.0,0.0,0.0,0.0,-2.0332,-2.0172,-1.9835,-1.9506,-1.9142,-1.8717,-1.8305,0.0,0.0,0.0,0.0,0.0,0.0,0.0,0.0,0.0,0.0,0.0,0.0,0.0,0.0,0.0,0.0,0.0,0.0,0.0,0.0,0.0,0.0,0.0,0.0,0.0,0.0,0.0,0.0,0.0,0.0,0.0,0.0,0.0,0.0,0.0,0.0,0.0,0.0,0.0,0.0,0.0,0.0,0.0,0.0,0.0,0.0,0.0,0.0,-2.1333,0.0,0.0,0.0,0.0,0.0,0.0,0.0,0.0,0.0,0.0,0.0,0.0,0.0,0.0,0.0,0.0,0.0,0.0,0.0,0.0,0.0,0.0,0.0,0.0,0.0,0.0,0.0,0.0,0.0,0.0,0.0,0.0,0.0,0.0,0.0,0.0,0.0,0.0,0.0,0.0,0.0,0.0,0.0,0.0,0.0,0.0,0.0,0.0,0.0,0.0,0.0,0.0,0.0,0.0,0.0,0.0,0.0,0.0,0.0,-2.015,-1.9857,-1.9594,-1.9308,-1.8975,-1.8674,-1.8372,0.0,0.0,0.0,0.0,0.0,0.0,0.0,0.0,0.0,0.0,0.0,0.0,0.0,0.0,0.0,0.0,0.0,0.0,0.0,0.0,0.0,0.0,0.0,0.0,0.0,0.0,0.0,0.0,0.0,0.0,0.0,0.0,0.0,0.0,0.0,0.0,0.0,0.0,0.0,0.0,0.0,0.0,0.0,0.0,0.0,0.0,0.0,0.0,0.0,0.0,0.0,0.0,0.0,0.0,0.0,0.0,0.0,0.0,0.0,0.0,0.0,0.0,0.0,0.0,0.0,0.0,0.0,0.0,0.0,0.0,0.0,0.0,0.0,0.0,0.0,0.0,0.0,0.0,0.0,0.0,0.0,0.0,0.0,0.0,0.0,0.0,0.0,0.0,0.0,0.0,0.0,0.0,0.0,0.0,0.0,0.0,0.0,0.0,0.0,0.0,0.0,0.0,0.0,0.0,0.0,0.0,0.0,-2.0071,-1.9889,-1.9583,-1.9374,-1.9119,-1.8785,-1.8583,-1.8414,-1.8259,0.0,0.0,0.0,0.0,0.0,0.0,0.0,0.0,0.0,0.0,0.0,0.0,0.0,0.0,0.0,0.0,0.0,0.0,0.0,0.0,0.0,0.0,0.0,0.0,0.0,0.0,0.0,0.0,0.0,0.0,0.0,0.0,0.0,0.0,0.0,0.0,0.0,0.0,-1.9936,-2.0426,0.0,0.0,0.0,0.0,0.0,0.0,0.0,0.0,-2.2807,0.0,0.0,0.0,0.0,0.0,0.0,0.0,0.0,0.0,0.0,0.0,0.0,0.0,0.0,0.0,0.0,0.0,0.0,0.0,0.0,0.0,0.0,0.0,0.0,0.0,0.0,0.0,0.0,0.0,0.0,0.0,0.0,0.0,0.0,0.0,0.0,0.0,0.0,0.0,0.0,0.0,0.0,0.0,0.0,0.0,0.0,0.0,0.0,0.0,0.0,0.0,0.0,0.0,0.0,0.0,0.0,-2.0116,-1.9977,-1.9769,-1.9341,-1.9318,-1.9042,-1.8573,-1.8516,-1.8347,-1.8037,0.0,0.0,0.0,0.0,0.0,0.0,0.0,0.0,0.0,0.0,0.0,0.0,0.0,0.0,0.0,0.0,0.0,0.0,0.0,0.0,0.0,0.0,0.0,0.0,0.0,0.0,0.0,0.0,0.0,0.0,0.0,0.0,0.0,0.0,0.0,0.0,0.0,0.0,0.0,-2.1031,-2.1408,0.0,0.0,0.0,0.0,0.0,0.0,0.0,0.0,-2.2844,0.0,0.0,0.0,0.0,0.0,0.0,0.0,0.0,0.0,0.0,0.0,0.0,0.0,0.0,0.0,0.0,0.0,0.0,0.0,0.0,0.0,0.0,0.0,0.0,0.0,0.0,0.0,0.0,0.0,0.0,0.0,0.0,0.0,0.0,0.0,0.0,0.0,0.0,0.0,0.0,0.0,0.0,0.0,0.0,0.0,0.0,0.0,0.0,0.0,0.0,0.0,0.0,0.0,0.0,0.0,-2.0096,-1.9758,-1.9473,-1.9308,-1.9152,-1.8885,-1.8516,-1.8448,-1.8279,0.0,0.0,0.0,0.0,0.0,0.0,0.0,0.0,0.0,0.0,0.0,0.0,0.0,0.0,0.0,0.0,0.0,0.0,0.0,0.0,0.0,0.0,0.0,0.0,0.0,0.0,0.0,0.0,0.0,0.0,0.0,0.0,0.0,0.0,0.0,0.0,0.0,0.0,0.0,0.0,-2.1581,-2.202,-2.2268,0.0,0.0,0.0,0.0,0.0,0.0,-2.3095,-2.292,0.0,0.0,0.0,0.0,0.0,0.0,0.0,0.0,0.0,0.0,0.0,0.0,0.0,0.0,0.0,0.0,0.0,0.0,0.0,0.0,0.0,0.0,0.0,0.0,0.0,0.0,0.0,0.0,0.0,0.0,0.0,0.0,0.0,0.0,0.0,0.0,0.0,0.0,0.0,0.0,0.0,0.0,0.0,0.0,0.0,0.0,0.0,0.0,0.0,0.0,0.0,0.0,0.0,0.0,0.0,-1.9944,-1.9495,-1.9285,-1.9185,-1.8952,-1.8684,-1.8448,-1.8337,-1.8202,0.0,0.0,0.0,0.0,0.0,0.0,0.0,0.0,0.0,0.0,0.0,0.0,0.0,0.0,0.0,0.0,0.0,0.0,0.0,0.0,0.0,0.0,0.0,0.0,0.0,0.0,0.0,0.0,0.0,0.0,0.0,0.0,0.0,0.0,0.0,0.0,0.0,0.0,0.0,0.0,0.0,-2.2636,-2.3032,-2.3095,0.0,0.0,0.0,0.0,-2.3095,-2.3095,0.0,0.0,0.0,0.0,0.0,0.0,0.0,0.0,0.0,0.0,0.0,0.0,0.0,0.0,0.0,0.0,0.0,0.0,0.0,0.0,0.0,0.0,0.0,0.0,0.0,0.0,0.0,0.0,0.0,0.0,0.0,0.0,0.0,0.0,0.0,0.0,0.0,0.0,0.0,0.0,0.0,0.0,0.0,0.0,0.0,0.0,0.0,0.0,0.0,0.0,0.0,0.0,0.0,0.0,0.0,0.0,-1.9407,-1.9318,-1.9185,-1.8875,-1.8841,-1.864,-1.8337,-1.8313,-1.8212,0.0,0.0,0.0,0.0,0.0,0.0,0.0,0.0,0.0,0.0,0.0,0.0,0.0,0.0,0.0,0.0,0.0,0.0,0.0,0.0,0.0,0.0,0.0,0.0,0.0,0.0,0.0,0.0,0.0,0.0,0.0,0.0,0.0,0.0,0.0,0.0,0.0,0.0,0.0,0.0,0.0,-2.3032,-2.3095,-2.3095,-2.3095,0.0,0.0,-2.3095,-2.3095,-2.3095,0.0,0.0,0.0,0.0,0.0,0.0,0.0,0.0,0.0,0.0,0.0,0.0,0.0,0.0,0.0,0.0,0.0,0.0,0.0,0.0,0.0,0.0,0.0,0.0,0.0,0.0,0.0,0.0,0.0,0.0,0.0,0.0,0.0,0.0,0.0,0.0,0.0,0.0,0.0,0.0,0.0,0.0,0.0,0.0,0.0,0.0,0.0,0.0,0.0,0.0,0.0,0.0,0.0,0.0,0.0,-1.9758,-1.9308,-1.9119,-1.8942,-1.8808,-1.8607,-1.8438,-1.8313,-1.8202,-1.8076,0.0,0.0,0.0,0.0,0.0,0.0,0.0,0.0,0.0,0.0,0.0,0.0,0.0,0.0,0.0,0.0,0.0,0.0,0.0,0.0,0.0,0.0,0.0,0.0,0.0,0.0,0.0,0.0,0.0,0.0,0.0,0.0,0.0,0.0,0.0,0.0,0.0,0.0,0.0,0.0,0.0,0.0,-2.3095,-2.3095,0.0,0.0,0.0,-2.3095,-2.3095,0.0,0.0,0.0,0.0,0.0,0.0,0.0,0.0,0.0,0.0,0.0,0.0,0.0,0.0,0.0,0.0,0.0,0.0,0.0,0.0,0.0,0.0,0.0,0.0,0.0,0.0,0.0,0.0,0.0,0.0,0.0,0.0,0.0,0.0,0.0,0.0,0.0,0.0,0.0,0.0,0.0,0.0,0.0,0.0,0.0,0.0,0.0,0.0,0.0,0.0,0.0,0.0,0.0,0.0,0.0,0.0,0.0,-1.9185,-1.8908,-1.8741,-1.8674,-1.8428,-1.8269,-1.8245,-1.8076,0.0,0.0,0.0,0.0,0.0,0.0,0.0,0.0,0.0,0.0,0.0,0.0,0.0,0.0,0.0,0.0,0.0,0.0,0.0,0.0,0.0,0.0,0.0,0.0,0.0,0.0,0.0,-1.8598,0.0,0.0,0.0,0.0,0.0,0.0,0.0,0.0,0.0,0.0,0.0,0.0,0.0,0.0,-2.3095,-2.3095,-2.3095,-2.3095,0.0,0.0,-2.3095,-2.3095,-2.3095,-2.3095,0.0,0.0,0.0,0.0,0.0,0.0,0.0,0.0,0.0,0.0,0.0,0.0,0.0,0.0,0.0,0.0,0.0,0.0,0.0,0.0,0.0,0.0,0.0,0.0,0.0,0.0,0.0,0.0,0.0,0.0,0.0,0.0,0.0,0.0,0.0,0.0,0.0,0.0,0.0,0.0,0.0,0.0,0.0,0.0,0.0,0.0,0.0,0.0,0.0,0.0,0.0,0.0,0.0,0.0,0.0,-1.8841,-1.8818,-1.864,-1.8337,-1.8303,-1.8202,-1.8042,-1.8008,-1.8008,0.0,0.0,0.0,0.0,0.0,0.0,0.0,0.0,0.0,0.0,0.0,0.0,0.0,0.0,0.0,0.0,0.0,0.0,0.0,0.0,0.0,0.0,0.0,0.0,0.0,0.0,0.0,0.0,0.0,0.0,0.0,0.0,0.0,0.0,0.0,0.0,0.0,0.0,0.0,0.0,0.0,-2.3095,-2.3095,-2.3095,-2.3095,0.0,0.0,-2.3095,-2.3095,-2.3095,-2.3095,-2.3095,0.0,0.0,0.0,0.0,0.0,0.0,0.0,0.0,0.0,0.0,0.0,0.0,0.0,0.0,0.0,0.0,0.0,0.0,0.0,0.0,0.0,0.0,0.0,0.0,0.0,0.0,0.0,0.0,0.0,0.0,0.0,0.0,0.0,0.0,0.0,0.0,0.0,0.0,0.0,0.0,0.0,0.0,0.0,0.0,0.0,0.0,0.0,0.0,0.0,0.0,0.0,0.0,0.0,-1.9008,-1.8617,-1.8549,-1.8438,-1.8303,-1.8178,-1.8076,-1.8008,-1.8008,-1.8008,0.0,0.0,0.0,0.0,0.0,0.0,0.0,0.0,0.0,0.0,0.0,0.0,0.0,0.0,0.0,0.0,0.0,0.0,0.0,0.0,0.0,0.0,0.0,0.0,0.0,0.0,0.0,0.0,-1.8893,-1.9318,-1.9902,0.0,0.0,0.0,0.0,0.0,0.0,0.0,0.0,0.0,0.0,-2.3095,-2.3095,-2.3095,0.0,0.0,-2.3095,-2.3095,-2.3095,-2.3095,-2.3095,-2.3095,-2.2932,0.0,0.0,0.0,0.0,0.0,0.0,0.0,0.0,0.0,0.0,0.0,0.0,0.0,0.0,0.0,0.0,0.0,0.0,0.0,0.0,0.0,0.0,0.0,0.0,0.0,0.0,0.0,0.0,0.0,0.0,0.0,0.0,0.0,0.0,0.0,0.0,0.0,0.0,0.0,0.0,0.0,0.0,0.0,0.0,0.0,0.0,0.0,0.0,0.0,0.0,0.0,0.0,-1.8808,-1.8438,-1.8337,-1.8279,-1.8212,-1.8076,-1.8008,-1.8008,-1.8008,-1.8008,0.0,0.0,0.0,0.0,0.0,0.0,0.0,0.0,0.0,0.0,0.0,0.0,0.0,0.0,0.0,0.0,0.0,0.0,0.0,0.0,0.0,0.0,0.0,0.0,0.0,0.0,0.0,0.0,-1.8721,-1.9284,-1.9995,0.0,0.0,0.0,0.0,0.0,0.0,0.0,0.0,0.0,0.0,-2.3047,-2.3108,-2.3095,-2.3095,-2.3095,-2.3095,-2.3095,-2.3095,-2.3095,-2.3095,-2.3095,0.0,0.0,0.0,0.0,0.0,0.0,0.0,0.0,0.0,0.0,0.0,0.0,0.0,0.0,0.0,0.0,0.0,0.0,0.0,0.0,0.0,0.0,0.0,0.0,0.0,0.0,0.0,0.0,0.0,0.0,-1.5312,0.0,0.0,0.0,0.0,0.0,0.0,0.0,0.0,0.0,0.0,0.0,0.0,0.0,0.0,0.0,0.0,0.0,0.0,0.0,0.0,0.0,0.0,-1.864,-1.8313,-1.8303,-1.8202,-1.8008,-1.8008,-1.8008,-1.8008,-1.8008,-1.8008,-1.8008,0.0,0.0,0.0,0.0,0.0,0.0,0.0,0.0,0.0,0.0,0.0,0.0,0.0,0.0,0.0,0.0,0.0,0.0,0.0,0.0,0.0,0.0,0.0,0.0,0.0,0.0,-1.8077,-1.864,-1.9215,0.0,0.0,0.0,0.0,0.0,0.0,0.0,0.0,0.0,0.0,-2.2878,-2.2969,-2.3078,-2.3095,-2.3095,-2.3095,-2.3095,-2.3095,-2.3095,-2.3095,-2.3095,0.0,0.0,0.0,0.0,0.0,0.0,0.0,0.0,0.0,0.0,0.0,0.0,0.0,0.0,0.0,0.0,0.0,0.0,0.0,0.0,0.0,0.0,0.0,0.0,0.0,0.0,0.0,-1.5245,-1.5195,0.0,0.0,0.0,0.0,0.0,0.0,0.0,0.0,0.0,0.0,0.0,-1.7942,-1.7998,0.0,0.0,0.0,0.0,0.0,0.0,0.0,0.0,0.0,0.0,0.0,0.0,-1.8337,-1.811,-1.811,-1.8076,-1.8008,-1.8008,-1.8008,-1.8008,-1.7862,-1.7759,-1.7666,0.0,0.0,0.0,0.0,0.0,0.0,0.0,0.0,0.0,0.0,0.0,0.0,0.0,0.0,0.0,0.0,0.0,0.0,0.0,0.0,0.0,0.0,0.0,0.0,0.0,-1.7346,0.0,0.0,0.0,0.0,0.0,0.0,0.0,0.0,0.0,0.0,0.0,-2.2347,-2.2714,-2.2909,-2.3047,-2.3108,-2.3095,-2.3095,0.0,0.0,0.0,0.0,0.0,0.0,0.0,0.0,0.0,0.0,0.0,0.0,0.0,0.0,-2.2318,-2.1631,-2.1481,-2.1481,-2.1481,0.0,0.0,0.0,0.0,0.0,0.0,0.0,0.0,0.0,0.0,0.0,0.0,0.0,0.0,-1.5321,0.0,-1.5272,0.0,0.0,0.0,0.0,0.0,0.0,0.0,0.0,-1.7982,-1.8168,-1.8212,-1.8279,-1.8323,0.0,-1.8058,-1.778,0.0,0.0,0.0,0.0,0.0,0.0,0.0,0.0,-1.8202,-1.8008,-1.8008,-1.8008,-1.8008,-1.793,-1.7896,-1.7896,-1.7725,-1.7598,-1.7505,-1.7495,-1.7406,0.0,0.0,0.0,0.0,0.0,0.0,0.0,0.0,0.0,0.0,0.0,0.0,0.0,0.0,0.0,0.0,0.0,0.0,0.0,0.0,0.0,0.0,0.0,-1.7575,0.0,0.0,0.0,0.0,0.0,0.0,0.0,0.0,0.0,-2.1694,-2.2006,-2.2297,-2.2506,-2.2726,-2.2896,-2.3017,0.0,0.0,0.0,0.0,0.0,0.0,0.0,-2.2987,-2.2909,-2.2848,-2.28,-2.2708,-2.2769,-2.2818,-2.2818,0.0,0.0,-2.2155,-2.2058,-2.2058,-2.2058,-2.2058,-2.2071,-2.2058,-2.2318,-2.2569,0.0,0.0,0.0,0.0,0.0,0.0,0.0,0.0,-1.5407,-1.5401,0.0,-1.5213,0.0,0.0,0.0,0.0,0.0,-1.761,0.0,0.0,-1.7896,-1.7983,-1.7974,-1.7974,-1.8008,-1.7998,-1.7974,-1.7964,-1.7949,-1.7459,0.0,0.0,0.0,0.0,0.0,0.0,-1.8212,-1.8008,-1.7974,-1.7974,-1.7974,-1.7784,-1.7681,-1.7672,-1.7529,-1.747,-1.7426,-1.7426,-1.747,-1.7461,-1.7207,0.0,0.0,0.0,0.0,0.0,0.0,0.0,0.0,0.0,0.0,0.0,0.0,0.0,0.0,0.0,0.0,0.0,0.0,0.0,0.0,-1.7623,0.0,0.0,0.0,0.0,0.0,0.0,0.0,0.0,0.0,0.0,-2.1325,-2.1694,-2.1968,-2.2154,0.0,0.0,0.0,0.0,-2.2939,-2.3047,-2.3078,-2.3078,-2.3078,-2.2957,-2.2891,-2.2878,0.0,0.0,-2.2647,-2.2647,-2.2647,-2.2678,-2.269,-2.2769,-2.2992,-2.3002,-2.3015,-2.3027,-2.3002,-2.3053,-2.3065,-2.296,-2.304,-1.4284,0.0,0.0,0.0,0.0,-1.5182,-1.5267,-1.5424,-1.5482,-1.539,-1.5196,-1.5501,0.0,0.0,0.0,0.0,0.0,0.0,-1.7608,-1.7564,-1.7632,-1.7642,-1.7676,-1.7725,-1.7784,-1.7784,-1.7784,-1.7784,-1.7784,-1.7528,-1.7614,-1.7957,0.0,0.0,0.0,0.0,-1.7998,-1.7818,-1.7784,-1.7725,-1.7642,-1.7608,-1.7426,-1.7141,-1.7081,-1.6934,-1.6656,-1.663,-1.6726,-1.6855,-1.678,0.0,0.0,0.0,0.0,0.0,0.0,0.0,0.0,0.0,0.0,0.0,0.0,0.0,0.0,0.0,0.0,0.0,0.0,0.0,-1.7061,-1.7564,-1.7894,0.0,0.0,0.0,0.0,0.0,0.0,0.0,0.0,0.0,-2.0658,-2.1316,-2.1831,0.0,0.0,-2.2309,-2.2512,-2.2543,-2.2616,-2.28,-2.2818,0.0,-2.2787,-2.2769,-2.2678,-2.2432,-2.2154,-2.198,-2.198,-2.2061,-2.2142,-2.2154,-2.2247,-2.2402,-2.2574,-2.2726,-2.28,-2.2818,-2.283,-2.2818,-2.28,-2.2818,-2.286,-1.4095,-1.4219,-1.4162,-1.4425,-1.4883,-1.4883,-1.4963,-1.507,-1.5114,-1.5034,-1.4927,-1.5292,-1.5443,-1.5478,-1.6,0.0,0.0,0.0,-1.7254,-1.7263,-1.7358,-1.7426,-1.7505,-1.7598,-1.7623,-1.7613,-1.7623,-1.7623,-1.7613,-1.7529,-1.7608,-1.7803,0.0,0.0,-1.7803,-1.7813,-1.7725,-1.7623,-1.7623,-1.7588,-1.7495,-1.7332,-1.7081,-1.6691,-1.6621,-1.6447,-1.6237,-1.6167,-1.6158,-1.6289,-1.6359,-1.6331,0.0,0.0,0.0,0.0,0.0,0.0,0.0,0.0,0.0,0.0,0.0,-1.53,0.0,0.0,0.0,0.0,-1.6865,-1.726,-1.7356,-1.774,0.0,0.0,0.0,0.0,0.0,0.0,0.0,-1.9911,-1.9977,-2.0053,-2.0205,-2.07,-2.1178,-2.1486,-2.1726,-2.1956,-2.2099,0.0,-2.2266,-2.2463,-2.2506,-2.2494,-2.2494,-2.2432,-2.2339,-2.2273,-2.2119,-2.2086,-2.2274,-2.235,-2.2403,-2.2447,-2.2511,-2.2607,-2.2703,-2.2674,-2.2632,-2.2696,-2.2708,-2.2708,-2.2708,-2.2708,-2.2739,-1.4139,-1.3989,-1.3844,-1.4024,-1.4361,-1.4361,-1.4353,-1.4389,-1.4497,-1.4497,-1.4389,-1.4721,-1.4908,-1.4979,-1.5709,0.0,-1.6272,-1.6665,-1.683,-1.6864,-1.7072,-1.722,-1.7401,-1.7436,-1.7426,-1.7426,-1.7436,-1.7436,-1.7436,-1.7401,-1.7401,-1.7401,-1.7401,-1.7436,-1.7495,-1.7495,-1.7461,-1.747,-1.747,-1.7426,-1.7358,-1.7012,-1.6621,-1.6237,-1.6096,-1.6026,-1.5991,-1.5806,-1.5692,-1.5727,-1.5877,-1.5912,-1.5745,0.0,0.0,0.0,0.0,0.0,0.0,0.0,0.0,0.0,0.0,0.0,0.0,0.0,0.0,0.0,-1.7135,0.0,-1.7632,-1.8132,0.0,0.0,0.0,-1.9108,-1.9208,-1.9417,-1.9506,-1.9506,0.0,0.0,-1.9835,-1.9944,-2.0204,-2.0732,-2.1103,-2.14,-2.162,-2.1726,-2.1894,-2.2061,-2.2092,-2.2092,-2.2104,-2.1984,-2.2009,-2.2318,-2.24,-2.2498,-2.2905,-2.3021,-2.309,-2.301,-2.3102,-2.3078,-2.3124,-2.2681,-2.2442,-2.2584,-2.2604,-2.2586,-2.2567,-2.2586,-2.2586,-1.3906,-1.386,-1.3828,-1.3863,-1.3935,-1.3935,-1.4036,-1.4173,-1.4201,-1.4201,-1.4201,-1.4533,-1.4856,-1.5141,-1.5488,-1.5753,-1.5938,-1.6175,-1.6342,-1.6447,-1.6482,-1.6551,-1.6586,-1.6716,-1.6821,-1.6821,-1.6821,-1.6821,-1.6821,-1.6656,-1.6586,-1.6586,-1.6482,-1.6804,-1.747,-1.7358,-1.721,-1.7047,-1.7047,-1.6839,-1.6456,-1.6342,-1.6096,-1.5709,-1.5532,-1.5355,-1.5185,-1.5007,-1.4883,-1.4883,-1.4919,-1.5026,-1.5117,-1.4909,0.0,0.0,0.0,0.0,0.0,0.0,0.0,0.0,0.0,-1.5948,-1.6346,0.0,-1.7225,0.0,-1.7682,-1.7919,-1.7875,-1.8176,0.0,0.0,-1.8539,-1.865,-1.8674,-1.8717,-1.8751,-1.8751,-1.8952,-1.9108,-1.9264,-1.9396,-1.9605,-1.9868,-2.0324,-2.0754,-2.1031,-2.1115,-2.1221,-2.1391,-2.1443,-2.1454,-2.1458,-2.1567,-2.1794,-2.2252,-2.2241,-2.223,-2.2343,-2.2355,-2.2355,-2.2355,-2.2355,-2.2377,-2.2537,-2.2411,-2.2272,-2.2129,-2.2032,-2.1937,-2.1949,-2.203,-2.2123,-1.4027,-1.4013,-1.3873,-1.3783,-1.3796,-1.3733,-1.369,-1.3702,-1.3884,-1.3964,-1.3956,-1.4245,-1.4605,-1.4919,-1.5062,-1.5284,-1.5541,-1.5638,-1.5771,-1.5956,-1.5956,-1.6026,-1.6202,-1.6333,-1.6394,-1.6473,-1.6464,-1.6438,-1.6368,-1.6272,-1.6167,-1.6061,-1.5921,-1.6132,-1.6716,-1.6647,-1.6577,-1.6551,-1.6551,-1.6272,-1.5709,-1.5709,-1.5532,-1.5106,-1.4856,-1.4677,-1.4569,-1.4245,-1.4101,-1.4101,-1.4101,-1.4173,-1.4266,-1.4165,-1.4168,0.0,0.0,0.0,0.0,0.0,0.0,0.0,0.0,0.0,0.0,0.0,-1.7554,-1.7716,-1.7784,-1.7896,-1.8008,-1.811,-1.8178,-1.8168,-1.8303,-1.8405,-1.8414,-1.8482,-1.8482,-1.8482,-1.8583,-1.8717,-1.8841,-1.8918,-1.9008,-1.9218,-1.9572,-1.9966,-2.0388,-2.0506,-2.0592,-2.07,-2.0688,-2.0789,-2.098,-2.1151,-2.1486,-2.2097,-2.2194,-2.2225,-2.2446,-2.249,-2.249,-2.249,-2.249,-2.2526,-2.2575,-2.2386,-2.2234,-2.2115,-2.1742,-2.1479,-2.1544,-2.1632,-2.1726,-1.426,-1.4239,-1.3968,-1.3836,-1.3773,-1.367,-1.3488,-1.3277,-1.3645,-1.3798,-1.3834,-1.3992,-1.4238,-1.4533,-1.4533,-1.474,-1.5098,-1.5098,-1.5204,-1.5434,-1.5434,-1.5638,-1.5991,-1.5991,-1.6061,-1.6167,-1.6167,-1.6096,-1.5991,-1.5956,-1.5842,-1.5657,-1.5461,-1.5461,-1.5621,-1.5586,-1.5692,-1.5956,-1.5921,-1.5638,-1.5054,-1.5054,-1.4848,-1.4461,-1.4173,-1.3985,-1.3985,-1.3637,-1.3426,-1.3419,-1.3419,-1.3419,-1.3419,-1.3419,-1.3499,0.0,-1.3928,0.0,0.0,0.0,0.0,0.0,0.0,0.0,0.0,-1.7263,-1.7539,-1.7672,-1.7672,-1.775,-1.7949,-1.794,-1.794,-1.794,-1.81,-1.8202,-1.8202,-1.8313,-1.8371,-1.8414,-1.8448,-1.8482,-1.8472,-1.8482,-1.8573,-1.8741,-1.8942,-1.9208,-1.9638,-1.9889,-2.0074,-2.0042,-2.0042,-2.0249,-2.0728,-2.0869,-2.1172,-2.1995,-2.2234,-2.2386,-2.2807,-2.2883,-2.2894,-2.2894,-2.2861,-2.2883,-2.2927,-2.2531,-2.2295,-2.2287,-2.1677,-2.1197,-2.1335,-2.1351,-2.14,-1.4169,-1.412,-1.4067,-1.3905,-1.3676,-1.3783,-1.3777,-1.3705,-1.3649,-1.3696,-1.3797,-1.3826,-1.3992,-1.4201,-1.4201,-1.4317,-1.4569,-1.4569,-1.4721,-1.5007,-1.5007,-1.5141,-1.5382,-1.5374,-1.5382,-1.5417,-1.5417,-1.5382,-1.5382,-1.5221,-1.5114,-1.5078,-1.4748,-1.4633,-1.4641,0.0,0.0,0.0,-1.4955,-1.4705,-1.4346,-1.4302,-1.4137,-1.371,-1.3492,0.0,-1.3339,-1.3156,-1.301,-1.301,-1.301,0.0,0.0,0.0,0.0,0.0,0.0,0.0,0.0,0.0,0.0,0.0,-1.5597,-1.6192,-1.683,-1.7289,-1.7505,-1.7529,-1.7529,-1.7573,-1.7608,-1.7608,-1.7598,-1.7608,-1.7642,-1.7642,-1.7666,-1.7794,-1.7852,-1.7842,-1.8134,-1.8337,-1.8347,-1.8448,-1.8516,-1.8516,-1.8583,-1.865,-1.8741,-1.9308,-1.9671,-1.9704,-1.966,-1.9991,-2.0834,-2.0941,-2.1183,-2.212,-2.2339,-2.2382,-2.2456,-2.2478,-2.2515,-2.2515,-2.2505,-2.2515,-2.2515,-2.244,-2.2211,-2.1921,-2.1407,-2.109,-2.133,-2.1187,-2.1063,-1.4088,0.0,-1.4088,-1.4001,0.0,-1.3944,-1.398,-1.3926,-1.375,-1.3639,-1.354,-1.3652,-1.3748,-1.3819,-1.3884,-1.4072,-1.4245,-1.4245,-1.4353,-1.4497,-1.4497,-1.4605,-1.4812,-1.4812,-1.4848,-1.4927,-1.4919,-1.4892,-1.482,-1.4721,-1.4605,-1.4505,-1.4253,-1.4116,-1.4116,-1.3811,-1.3912,-1.4517,-1.4418,-1.4165,-1.3819,-1.3739,-1.3521,-1.3193,-1.301,0.0,0.0,0.0,0.0,0.0,0.0,0.0,0.0,-1.2599,0.0,-1.29,-1.301,-1.3236,-1.3645,-1.3928,-1.4209,-1.4625,-1.5161,-1.5842,-1.656,-1.6804,-1.6943,-1.7072,-1.7151,-1.7254,-1.7348,-1.7436,-1.7495,-1.7495,-1.7495,-1.7495,-1.7505,-1.7564,-1.7623,-1.7623,-1.7759,-1.7906,-1.7906,-1.7974,-1.8008,-1.8008,-1.8066,-1.81,-1.8158,-1.864,-1.9052,-1.9075,-1.9052,-1.9372,-2.0245,-2.0472,-2.0762,-2.1559,-2.1807,-2.1807,-2.1797,-2.1797,-2.1807,-2.1807,-2.1807,-2.1807,-2.1807,-2.1807,-2.18,-2.1717,-2.1198,-2.0836,-2.1094,-2.0831,-2.0571,-1.4088,-1.4088,-1.4088,-1.4088,-1.4088,-1.4088,-1.4088,-1.4097,0.0,0.0,0.0,-1.3546,-1.3572,-1.3477,-1.3653,-1.3798,-1.3884,-1.3876,-1.3912,-1.3949,-1.3949,-1.4065,-1.4289,-1.4253,-1.4325,-1.4461,-1.4425,-1.4353,-1.4253,-1.4217,-1.4101,-1.3912,-1.3746,-1.3645,-1.3601,-1.3309,-1.3375,-1.384,-1.3876,-1.3702,-1.3339,-1.3163,-1.3017,-1.279,-1.2636,-1.2562,-1.2562,-1.2378,-1.2305,-1.2305,-1.2305,-1.2305,-1.2305,-1.2305,-1.2378,-1.2526,-1.2592,-1.2826,-1.3309,-1.3455,-1.3746,-1.4317,-1.4776,-1.5382,-1.6096,-1.6202,-1.6342,-1.6508,-1.6691,-1.6874,-1.7028,-1.7185,-1.7289,-1.7298,-1.7298,-1.7298,-1.7289,-1.7323,-1.7323,-1.7358,-1.7392,-1.7436,-1.7461,-1.7495,-1.7495,-1.7495,-1.7623,-1.7672,-1.7716,-1.8134,-1.8448,-1.8448,-1.8482,-1.8748,-1.9564,-1.9815,-2.0166,-2.0948,-2.1167,-2.1167,-2.1167,-2.1167,-2.1215,-2.1292,-2.1215,-2.1254,-2.1215,-2.1254,-2.132,-2.1606,-2.0972,-2.0405,-2.0663,-2.0332,-2.0009,-1.4088,-1.4088,-1.4088,-1.4088,-1.4088,-1.4088,-1.4088,-1.4097,-1.3974,-1.3808,-1.3715,-1.3747,-1.3617,-1.3323,-1.336,-1.3257,-1.3083,-1.3083,-1.3156,-1.3346,-1.3339,-1.3528,-1.387,-1.3717,-1.3717,-1.3899,-1.3754,-1.3637,-1.3601,-1.3455,-1.3339,-1.3309,-1.3127,-1.3017,-1.3017,-1.2973,-1.3003,-1.3083,-1.3083,-1.2966,-1.2746,-1.2709,-1.2599,-1.2415,-1.2378,-1.2342,-1.2335,-1.2342,-1.2305,-1.2305,-1.2305,-1.2305,-1.2305,-1.2305,-1.2298,-1.2342,-1.2489,-1.2643,-1.2716,-1.3193,-1.3674,-1.4101,-1.4346,-1.482,-1.5541,-1.5921,-1.614,-1.6167,-1.6307,-1.6377,-1.6412,-1.6447,-1.6491,-1.6491,-1.6482,-1.6482,-1.6482,-1.6656,-1.6751,-1.6751,-1.7028,-1.7235,-1.721,-1.7358,-1.7436,-1.747,-1.7392,-1.7495,-1.7529,-1.7837,-1.8042,-1.8076,-1.8076,-1.8448,-1.9141,-1.9396,-1.975,-2.0555,-2.0789,-2.0876,-2.0867,-2.1002,-2.1089,-2.1167,-2.1128,-2.1167,-2.1177,-2.1215,-2.1185,-2.1239,-2.0562,-2.0052,-2.0088,-1.9651,-1.9417,-1.4088,-1.4088,-1.4088,-1.4088,-1.4088,-1.4088,-1.4088,-1.4117,-1.4032,-1.3878,-1.3729,-1.3795,-1.3663,-1.3406,-1.3355,-1.324,-1.31,-1.297,-1.2929,-1.3039,-1.3039,-1.3119,-1.3309,-1.3229,-1.3193,-1.3309,-1.3236,-1.3156,-1.3156,-1.2973,-1.2893,-1.2863,-1.2562,-1.2378,-1.2261,-1.2268,-1.2224,-1.2261,-1.2562,-1.2709,-1.2599,-1.2489,-1.2378,-1.2305,-1.2305,-1.2305,-1.2305,-1.2305,-1.2305,-1.2305,-1.2305,-1.2305,-1.2305,-1.2305,-1.2305,-1.2298,-1.2378,-1.2489,-1.2599,-1.2973,-1.3339,-1.3739,-1.3855,-1.4137,-1.4705,-1.5185,-1.5497,-1.5603,-1.578,-1.585,-1.5885,-1.5947,-1.6017,-1.6026,-1.6017,-1.6017,-1.6053,-1.6193,-1.6342,-1.6333,-1.6542,-1.6691,-1.6726,-1.6795,-1.6874,-1.6839,-1.683,-1.6874,-1.683,-1.6968,-1.7254,-1.7642,-1.771,-1.7985,-1.8543,-1.886,-1.9235,-1.9832,-2.0149,-2.0333,-2.0362,-2.045,-2.0498,-2.0489,-2.0615,-2.0702,-2.0731,-2.0809,-2.0797,-2.0604,-2.0175,-1.9743,-1.9535,-1.9188,-1.916,-1.4088,-1.4088,-1.4088,-1.4088,-1.4088,-1.4088,-1.4088,-1.4088,-1.4082,-1.3961,-1.3761,-1.3871,-1.3777,-1.3512,-1.3391,-1.333,-1.3272,-1.2988,-1.2894,-1.2887,-1.2781,-1.2753,-1.2746,-1.2709,-1.2673,-1.268,-1.2636,-1.2636,-1.2606,-1.2452,-1.2378,-1.2342,-1.204,-1.1781,-1.1632,-1.1595,-1.1558,-1.1595,-1.2003,-1.2305,-1.2378,-1.2224,-1.215,-1.2187,-1.2157,-1.2157,-1.215,-1.2157,-1.215,-1.215,-1.2157,-1.2157,-1.2157,-1.215,-1.2187,-1.215,-1.2194,-1.2342,-1.2562,-1.2753,-1.2973,-1.3346,-1.3353,-1.3528,-1.3884,-1.4281,-1.4677,-1.4955,-1.5169,-1.5292,-1.5328,-1.5417,-1.5515,-1.5524,-1.5586,-1.5594,-1.563,-1.5771,-1.5885,-1.5921,-1.6026,-1.614,-1.6132,-1.6167,-1.6193,-1.6237,-1.6202,-1.6202,-1.6193,-1.6193,-1.6482,-1.6899,-1.7185,-1.7397,-1.7761,-1.8069,-1.8443,-1.8909,-1.9302,-1.9547,-1.964,-1.9745,-1.9833,-1.9912,-2.0059,-2.0225,-2.0225,-2.0227,-2.0216,-2.0056,-1.9622,-1.9229,-1.9014,-1.8845,-1.8885,-1.4088,-1.4088,-1.4088,-1.4088,-1.4088,-1.4088,-1.4088,-1.4088,-1.4088,-1.4075,-1.4028,-1.4048,-1.3874,-1.3621,-1.3601,-1.344,-1.3192,-1.2923,-1.282,-1.2772,-1.2499,-1.2378,-1.2342,-1.2187,-1.2077,-1.2083,-1.1929,-1.1855,-1.1855,-1.1824,-1.1781,-1.1781,-1.1558,-1.144,-1.1409,-1.1223,-1.1149,-1.1149,-1.1223,-1.1409,-1.1744,-1.1744,-1.175,-1.1744,-1.1744,-1.1744,-1.1781,-1.1737,-1.1744,-1.1744,-1.1781,-1.1781,-1.1744,-1.1744,-1.1744,-1.1781,-1.1929,-1.2187,-1.2562,-1.2599,-1.2709,-1.2936,-1.2973,-1.3046,-1.3266,-1.3346,-1.3702,-1.4281,-1.4569,-1.4685,-1.4677,-1.4713,-1.474,-1.4776,-1.4892,-1.5007,-1.4999,-1.5177,-1.5275,-1.5267,-1.5461,-1.5576,-1.5568,-1.57,-1.5806,-1.5762,-1.5762,-1.5762,-1.5762,-1.5762,-1.5806,-1.5974,-1.6193,-1.6572,-1.6911,-1.7036,-1.743,-1.8047,-1.8398,-1.8647,-1.8991,-1.9304,-1.9597,-1.9518,-1.9737,-1.9846,-1.9779,-1.9715,-1.9488,-1.9446,-1.9027,-1.8488,-1.8399,-1.8377,-1.8573,-1.4088,-1.4088,-1.4088,-1.4088,-1.4088,-1.4088,-1.4088,-1.4088,-1.4088,-1.4088,-1.4082,-1.3955,-1.3889,-1.3853,-1.3686,-1.3533,-1.3407,-1.3035,-1.2764,-1.2599,-1.2316,-1.2104,-1.1942,-1.1855,-1.1744,-1.1663,-1.1558,-1.1453,-1.1329,-1.1223,-1.1111,-1.0999,-1.0887,-1.085,-1.085,-1.0775,-1.0738,-1.0743,-1.0743,-1.0812,-1.1005,-1.1329,-1.1558,-1.1669,-1.1706,-1.1706,-1.1706,-1.1706,-1.1706,-1.1706,-1.1706,-1.1706,-1.1706,-1.1706,-1.1706,-1.1706,-1.1781,-1.1892,-1.204,-1.2077,-1.2157,-1.2342,-1.2489,-1.2643,-1.2826,-1.2929,-1.3185,-1.3477,-1.3884,-1.4181,-1.4281,-1.4317,-1.431,-1.431,-1.4389,-1.4425,-1.4425,-1.4605,-1.4713,-1.4748,-1.4864,-1.4963,-1.4999,-1.5034,-1.5098,-1.5098,-1.5098,-1.5133,-1.5098,-1.5098,-1.5098,-1.5098,-1.5213,-1.5574,-1.6101,-1.647,-1.6731,-1.7046,-1.7459,-1.7885,-1.8204,-1.8533,-1.8792,-1.9027,-1.9139,-1.9166,-1.9177,-1.907,-1.8928,-1.8772,-1.8423,-1.7952,-1.7949,-1.8134,-1.8405,-1.3913,-1.3913,-1.3913,-1.3913,-1.3913,-1.3913,-1.3913,-1.3913,-1.3913,-1.3913,-1.3877,-1.3695,-1.3737,-1.3837,-1.3647,-1.3555,-1.348,-1.3131,-1.2765,-1.2499,-1.2183,-1.1834,-1.1577,-1.1477,-1.1335,-1.1186,-1.1149,-1.1031,-1.085,-1.0663,-1.0481,-1.0331,-1.0293,-1.0255,-1.0255,-1.018,-1.018,-1.0175,-1.018,-1.018,-1.0293,-1.0663,-1.1031,-1.1329,-1.1372,-1.1372,-1.1372,-1.1372,-1.1366,-1.1372,-1.1366,-1.1372,-1.1372,-1.1372,-1.1409,-1.1446,-1.1446,-1.1521,-1.1595,-1.1632,-1.1706,-1.1885,-1.204,-1.2187,-1.2335,-1.2482,-1.2599,-1.2709,-1.3046,-1.3411,-1.3731,-1.3768,-1.3768,-1.3768,-1.3804,-1.384,-1.384,-1.4029,-1.4145,-1.4173,-1.4217,-1.4289,-1.4325,-1.4353,-1.4389,-1.4389,-1.4425,-1.4461,-1.4461,-1.4461,-1.4489,-1.4453,-1.4497,-1.4748,-1.5328,-1.5646,-1.59,-1.6196,-1.6553,-1.6876,-1.7325,-1.7565,-1.7793,-1.8011,-1.8192,-1.8339,-1.837,-1.836,-1.8253,-1.7974,-1.7738,-1.7642,-1.7691,-1.793,-1.809,-1.3434,-1.3434,-1.344,-1.344,-1.3434,-1.344,-1.344,-1.3483,-1.3483,-1.344,-1.3483,-1.344,-1.3398,-1.3392,-1.336,-1.3372,-1.3377,-1.3128,-1.2819,-1.2539,-1.2051,-1.158,-1.1123,-1.0925,-1.0738,-1.0556,-1.0513,-1.0443,-1.0218,-1.003,-0.9922,-0.9879,-0.9733,-0.9657,-0.962,-0.9473,-0.9359,-0.9397,-0.9392,-0.9468,-0.9625,-0.9695,-0.9992,-1.0438,-1.0556,-1.0594,-1.0588,-1.0556,-1.055,-1.055,-1.0588,-1.0588,-1.0588,-1.0588,-1.0663,-1.085,-1.085,-1.0999,-1.1335,-1.1372,-1.1484,-1.1639,-1.1669,-1.1706,-1.1744,-1.1787,-1.1892,-1.204,-1.212,-1.2378,-1.2863,-1.3003,-1.3003,-1.301,-1.3119,-1.3229,-1.3229,-1.3375,-1.3528,-1.3564,-1.3564,-1.3601,-1.3564,-1.3717,-1.3783,-1.3855,-1.3992,-1.4093,-1.4021,-1.4057,-1.4093,-1.4057,-1.4101,-1.4245,-1.4569,-1.4856,-1.5065,-1.532,-1.5569,-1.5786,-1.6204,-1.6585,-1.6792,-1.7008,-1.7255,-1.7417,-1.7514,-1.7504,-1.7359,-1.7278,-1.7411,-1.7426,-1.7426,-1.7588,-1.775,-1.3398,-1.3398,-1.3398,-1.3398,-1.3398,-1.3398,-1.3398,-1.3398,-1.3398,-1.3398,-1.3355,-1.3094,-1.296,-1.296,-1.2631,-1.2845,-1.3343,-1.2988,-1.2677,-1.2372,-1.1782,-1.1245,-1.0814,-1.0523,-1.0255,-0.996,-0.9922,-0.9765,-0.9453,-0.9344,-0.9236,-0.916,-0.9084,-0.9008,-0.9008,-0.897,-0.8937,-0.8894,-0.8937,-0.897,-0.9013,-0.9008,-0.916,-0.9344,-0.9841,-1.011,-1.0099,-1.0105,-1.0105,-1.0105,-1.0218,-1.0331,-1.0331,-1.0443,-1.0513,-1.0594,-1.0625,-1.0663,-1.0775,-1.085,-1.085,-1.0925,-1.1074,-1.1111,-1.1149,-1.126,-1.1409,-1.1558,-1.1632,-1.1774,-1.2077,-1.2335,-1.2526,-1.2526,-1.2599,-1.2643,-1.2643,-1.268,-1.279,-1.29,-1.301,-1.3119,-1.3083,-1.3193,-1.3229,-1.3229,-1.3295,-1.3331,-1.3331,-1.3331,-1.3368,-1.3331,-1.3339,-1.3368,-1.3441,-1.4021,-1.44,-1.4535,-1.4754,-1.4993,-1.5341,-1.5699,-1.5964,-1.6242,-1.6434,-1.6542,-1.6674,-1.6792,-1.6634,-1.6738,-1.6864,-1.7081,-1.7125,-1.7314,-1.7486,-1.293,-1.293,-1.293,-1.293,-1.293,-1.293,-1.2973,-1.2973,-1.2973,-1.2973,-1.2887,-1.2625,-1.2454,-1.2412,-1.2075,-1.2203,-1.279,-1.2577,-1.2276,-1.1934,-1.1392,-1.0828,-1.0394,-0.9991,-0.9652,-0.9387,-0.9273,-0.9084,-0.8813,-0.8742,-0.8627,-0.8513,-0.8437,-0.8394,-0.8394,-0.836,-0.8318,-0.8322,-0.8322,-0.8356,-0.8394,-0.8394,-0.8432,-0.8556,-0.9046,-0.9425,-0.9576,-0.9652,-0.9738,-0.9733,-0.9846,-0.9922,-0.9916,-1.0035,-1.0105,-1.0105,-1.0105,-1.0143,-1.018,-1.0223,-1.0218,-1.0288,-1.0443,-1.0513,-1.0519,-1.07,-1.085,-1.0999,-1.108,-1.1192,-1.1335,-1.1558,-1.1818,-1.2046,-1.212,-1.212,-1.212,-1.212,-1.215,-1.2298,-1.2409,-1.2489,-1.2526,-1.2562,-1.2599,-1.2606,-1.268,-1.2709,-1.2709,-1.2709,-1.2709,-1.2716,-1.2709,-1.2746,-1.282,-1.3185,-1.3586,-1.3776,-1.3944,-1.4175,-1.4479,-1.4807,-1.5115,-1.5431,-1.5638,-1.5723,-1.5855,-1.5996,-1.6087,-1.6175,-1.6377,-1.663,-1.6804,-1.7047,-1.7151,-1.2037,-1.2037,-1.2,-1.2037,-1.2037,-1.208,-1.2037,-1.2086,-1.2037,-1.208,-1.2075,-1.2,-1.1946,-1.1903,-1.1677,-1.1671,-1.172,-1.1817,-1.1705,-1.1344,-1.0901,-1.0415,-0.9901,-0.9371,-0.9018,-0.8927,-0.8589,-0.8403,-0.8322,-0.8178,-0.8063,-0.8025,-0.7863,-0.7783,-0.7821,-0.7633,-0.7518,-0.7561,-0.7557,-0.7638,-0.7748,-0.7783,-0.7863,-0.8025,-0.814,-0.8403,-0.8927,-0.9165,-0.9241,-0.9246,-0.9279,-0.9284,-0.9322,-0.9359,-0.9322,-0.9359,-0.9322,-0.9397,-0.9544,-0.9582,-0.9652,-0.9803,-0.9879,-0.9916,-0.9916,-1.0067,-1.0218,-1.0288,-1.0406,-1.0519,-1.0513,-1.0588,-1.0887,-1.1521,-1.1632,-1.1632,-1.1632,-1.1669,-1.1669,-1.1706,-1.1744,-1.1706,-1.1744,-1.1898,-1.2009,-1.2009,-1.2114,-1.2224,-1.2194,-1.2194,-1.2261,-1.2305,-1.2268,-1.2224,-1.2268,-1.2342,-1.2716,-1.3017,-1.32,-1.3396,-1.3719,-1.4027,-1.4225,-1.4494,-1.4796,-1.49,-1.5234,-1.5396,-1.5637,-1.578,-1.5991,-1.6175,-1.6386,-1.6595,-1.6769,-1.1811,-1.1768,-1.1591,-1.151,-1.1505,-1.1505,-1.1505,-1.1505,-1.151,-1.1548,-1.1505,-1.1381,-1.1295,-1.1208,-1.0895,-1.0722,-1.0727,-1.0684,-1.0773,-1.0931,-1.0433,-0.9921,-0.9541,-0.9015,-0.857,-0.8183,-0.7902,-0.7714,-0.7603,-0.7488,-0.7446,-0.7288,-0.7211,-0.7211,-0.7169,-0.713,-0.7096,-0.7096,-0.7096,-0.7134,-0.7169,-0.7169,-0.7207,-0.7288,-0.7407,-0.7561,-0.7791,-0.8217,-0.8446,-0.8484,-0.8599,-0.8746,-0.8856,-0.8894,-0.8899,-0.8861,-0.8894,-0.8894,-0.8975,-0.897,-0.9008,-0.9084,-0.9193,-0.9268,-0.9306,-0.9468,-0.962,-0.9728,-0.9846,-0.9922,-1.0067,-1.0067,-1.0293,-1.0818,-1.085,-1.0887,-1.0925,-1.0999,-1.1074,-1.1111,-1.1223,-1.1298,-1.1298,-1.1372,-1.1335,-1.1372,-1.1409,-1.1484,-1.1484,-1.1484,-1.1552,-1.1632,-1.1669,-1.1744,-1.1744,-1.1781,-1.1966,-1.2305,-1.2526,-1.2783,-1.3046,-1.3236,-1.3419,-1.3637,-1.392,-1.4245,-1.4569,-1.4856,-1.507,-1.5319,-1.5461,-1.5682,-1.5903,-1.6105,-1.6272,-1.1332,-1.1327,-1.1154,-1.1068,-1.1073,-1.1068,-1.1025,-1.0939,-1.0939,-1.089,-1.0809,-1.0684,-1.0636,-1.0554,-1.0207,-0.999,-0.9907,-0.9689,-0.9777,-1.0038,-0.9771,-0.9359,-0.8978,-0.84,-0.7918,-0.75,-0.7249,-0.7103,-0.6988,-0.6868,-0.6749,-0.6665,-0.6591,-0.6518,-0.6518,-0.644,-0.6405,-0.6444,-0.6405,-0.644,-0.6518,-0.6518,-0.6591,-0.663,-0.6788,-0.683,-0.6865,-0.7211,-0.7522,-0.7829,-0.8021,-0.8131,-0.8246,-0.8246,-0.8246,-0.8246,-0.8246,-0.8246,-0.8246,-0.8241,-0.8318,-0.8356,-0.8504,-0.858,-0.8661,-0.8822,-0.9013,-0.9127,-0.9236,-0.9316,-0.9425,-0.9463,-0.9576,-0.9798,-1.0143,-1.0255,-1.0293,-1.0368,-1.0443,-1.0481,-1.055,-1.0625,-1.0663,-1.0663,-1.0625,-1.0663,-1.0669,-1.07,-1.0738,-1.0775,-1.0887,-1.0999,-1.1037,-1.1111,-1.1186,-1.1223,-1.126,-1.1558,-1.1892,-1.2194,-1.2489,-1.2599,-1.2746,-1.3076,-1.3368,-1.3702,-1.4029,-1.4253,-1.4505,-1.4721,-1.4927,-1.5114,-1.5328,-1.5568,-1.5771,-1.0641,-1.0641,-1.0641,-1.0598,-1.0554,-1.0554,-1.0467,-1.0294,-1.0207,-1.0077,-0.9951,-0.9907,-0.9903,-0.9864,-0.9602,-0.934,-0.917,-0.8903,-0.8684,-0.8682,-0.8596,-0.851,-0.8237,-0.7521,-0.7045,-0.683,-0.6637,-0.6563,-0.6486,-0.6325,-0.6163,-0.6167,-0.6015,-0.5902,-0.5864,-0.567,-0.5637,-0.5634,-0.5637,-0.5709,-0.5822,-0.5864,-0.5938,-0.6086,-0.6128,-0.6167,-0.6167,-0.6282,-0.6633,-0.7288,-0.7365,-0.7407,-0.7446,-0.7442,-0.7484,-0.7518,-0.748,-0.7518,-0.748,-0.7518,-0.7591,-0.7744,-0.7783,-0.7821,-0.8059,-0.8212,-0.8365,-0.8399,-0.8513,-0.8627,-0.8627,-0.8627,-0.8665,-0.8737,-0.9311,-0.9733,-0.9803,-0.9803,-0.9803,-0.9803,-0.9846,-0.9846,-0.9841,-0.9841,-0.9841,-0.9841,-0.9879,-0.9949,-1.0067,-1.0143,-1.0255,-1.0331,-1.0438,-1.0513,-1.0625,-1.0669,-1.0663,-1.0812,-1.1149,-1.1446,-1.1855,-1.2003,-1.2187,-1.2519,-1.2856,-1.3156,-1.3419,-1.3674,-1.3891,-1.4145,-1.4361,-1.4541,-1.4748,-1.4991,-1.5204,-0.9907,-0.9864,-0.9733,-0.965,-0.9694,-0.9694,-0.965,-0.9559,-0.9345,-0.9257,-0.917,-0.9034,-0.8986,-0.8942,-0.8679,-0.842,-0.8201,-0.7977,-0.7713,-0.7485,-0.7372,-0.74,-0.7256,-0.6634,-0.6212,-0.6131,-0.598,-0.587,-0.5867,-0.575,-0.5709,-0.575,-0.5553,-0.5473,-0.5437,-0.524,-0.5162,-0.5162,-0.5162,-0.5162,-0.5198,-0.5237,-0.5276,-0.5312,-0.547,-0.555,-0.555,-0.5667,-0.598,-0.6475,-0.6549,-0.6633,-0.6795,-0.683,-0.6868,-0.698,-0.7019,-0.7057,-0.7057,-0.7019,-0.7057,-0.7134,-0.7249,-0.7373,-0.745,-0.7599,-0.771,-0.7748,-0.7787,-0.7825,-0.7829,-0.7825,-0.7783,-0.7902,-0.8475,-0.897,-0.9008,-0.9008,-0.9008,-0.9008,-0.9003,-0.9003,-0.9008,-0.9008,-0.9008,-0.9046,-0.916,-0.9273,-0.9387,-0.9506,-0.9614,-0.9771,-0.9841,-0.9916,-0.9992,-1.0073,-1.011,-1.0143,-1.0368,-1.0594,-1.1074,-1.1484,-1.1744,-1.2077,-1.2298,-1.2599,-1.2856,-1.3112,-1.3339,-1.3557,-1.3783,-1.3964,-1.4209,-1.4453,-1.4641,-0.9165,-0.9161,-0.9078,-0.8995,-0.899,-0.899,-0.8951,-0.8815,-0.8688,-0.8508,-0.8332,-0.8193,-0.8061,-0.7977,-0.7801,-0.7628,-0.7363,-0.7139,-0.6918,-0.6643,-0.6323,-0.6267,-0.6306,-0.5842,-0.5569,-0.5512,-0.5321,-0.5207,-0.5207,-0.5129,-0.5129,-0.509,-0.4971,-0.4932,-0.489,-0.4737,-0.4621,-0.4621,-0.454,-0.4501,-0.4499,-0.4579,-0.4621,-0.4657,-0.4813,-0.4932,-0.4929,-0.5046,-0.5356,-0.5783,-0.5977,-0.6018,-0.6138,-0.6177,-0.6254,-0.6328,-0.6367,-0.6367,-0.6367,-0.6367,-0.6402,-0.6479,-0.6598,-0.6676,-0.6749,-0.6899,-0.6938,-0.6938,-0.6942,-0.6942,-0.6942,-0.6938,-0.6938,-0.7015,-0.7395,-0.7778,-0.8127,-0.8203,-0.8203,-0.8203,-0.8208,-0.8203,-0.8208,-0.8208,-0.8246,-0.8322,-0.8394,-0.8585,-0.8737,-0.8856,-0.8975,-0.9127,-0.9203,-0.9236,-0.9273,-0.9311,-0.9349,-0.9425,-0.9576,-0.9841,-1.0325,-1.085,-1.1223,-1.1521,-1.1781,-1.2003,-1.2298,-1.2519,-1.2703,-1.2929,-1.3163,-1.3382,-1.363,-1.3804,-1.3985,-0.8504,-0.8504,-0.8504,-0.8504,-0.8504,-0.846,-0.8285,-0.8113,-0.8025,-0.7801,-0.7492,-0.7404,-0.7228,-0.701,-0.6962,-0.6833,-0.6615,-0.6343,-0.6124,-0.5742,-0.5367,-0.5208,-0.5319,-0.5146,-0.4949,-0.4826,-0.4657,-0.4621,-0.4584,-0.4465,-0.4345,-0.4384,-0.4345,-0.4307,-0.4268,-0.4116,-0.3999,-0.396,-0.3843,-0.3802,-0.3802,-0.3919,-0.3999,-0.4038,-0.419,-0.4307,-0.4345,-0.4384,-0.4659,-0.5362,-0.5443,-0.5482,-0.5521,-0.5521,-0.5556,-0.5598,-0.5634,-0.5595,-0.5559,-0.5595,-0.5631,-0.5786,-0.5822,-0.5857,-0.6009,-0.6086,-0.6086,-0.6086,-0.6047,-0.6086,-0.6086,-0.6086,-0.6086,-0.6125,-0.6125,-0.6475,-0.7019,-0.7288,-0.7369,-0.7369,-0.7365,-0.7365,-0.7365,-0.7407,-0.7484,-0.7595,-0.771,-0.794,-0.8093,-0.825,-0.836,-0.8475,-0.8551,-0.8551,-0.8551,-0.8551,-0.8589,-0.8661,-0.8856,-0.9122,-0.9647,-1.0175,-1.0625,-1.0962,-1.1149,-1.1409,-1.1706,-1.1929,-1.2114,-1.2298,-1.2526,-1.2746,-1.2966,-1.3076,-1.3251,-0.8072,-0.8028,-0.7841,-0.7753,-0.7709,-0.7533,-0.7404,-0.7316,-0.7146,-0.701,-0.6881,-0.6571,-0.6393,-0.6302,-0.608,-0.5902,-0.568,-0.5411,-0.5099,-0.4652,-0.4326,-0.4041,-0.4084,-0.4183,-0.4248,-0.4095,-0.4036,-0.3997,-0.3958,-0.3917,-0.3917,-0.3878,-0.372,-0.3641,-0.3641,-0.345,-0.3335,-0.3297,-0.3256,-0.3219,-0.3217,-0.3256,-0.3335,-0.3374,-0.3526,-0.3722,-0.388,-0.3919,-0.4036,-0.4192,-0.4465,-0.4659,-0.4857,-0.4896,-0.4971,-0.5046,-0.5085,-0.5124,-0.5124,-0.5085,-0.5121,-0.516,-0.516,-0.5198,-0.5237,-0.5234,-0.5234,-0.5276,-0.5276,-0.5234,-0.5276,-0.5273,-0.5273,-0.5273,-0.5273,-0.5312,-0.5583,-0.6125,-0.6437,-0.6475,-0.6514,-0.6475,-0.6472,-0.6676,-0.6791,-0.6868,-0.7061,-0.7334,-0.7446,-0.7599,-0.7672,-0.774,-0.7744,-0.7744,-0.7744,-0.7783,-0.7902,-0.7978,-0.8169,-0.836,-0.8889,-0.9382,-0.9793,-1.0212,-1.0556,-1.0812,-1.1074,-1.1335,-1.1558,-1.1706,-1.1892,-1.2077,-1.2268,-1.2372,-1.2556,-0.7187,-0.7183,-0.7051,-0.6959,-0.6959,-0.6741,-0.6656,-0.6612,-0.639,-0.6213,-0.6083,-0.5727,-0.5547,-0.5413,-0.5191,-0.4968,-0.4835,-0.4523,-0.4164,-0.3807,-0.353,-0.328,-0.3003,-0.3104,-0.3167,-0.3154,-0.3175,-0.3176,-0.3176,-0.3176,-0.3175,-0.3175,-0.3057,-0.3017,-0.2978,-0.2824,-0.2707,-0.2668,-0.2552,-0.2553,-0.2553,-0.263,-0.2746,-0.2824,-0.294,-0.3057,-0.3175,-0.3176,-0.3176,-0.3255,-0.3409,-0.3761,-0.4192,-0.427,-0.4348,-0.4423,-0.4423,-0.4423,-0.4423,-0.4462,-0.4423,-0.4421,-0.4423,-0.4423,-0.4423,-0.4421,-0.4423,-0.4423,-0.4423,-0.4423,-0.4423,-0.4462,-0.4423,-0.4421,-0.4421,-0.4421,-0.4577,-0.5157,-0.5622,-0.5661,-0.5661,-0.5702,-0.5783,-0.5941,-0.6135,-0.6247,-0.6325,-0.6556,-0.671,-0.6822,-0.6822,-0.6896,-0.6896,-0.6899,-0.6938,-0.7015,-0.7215,-0.7369,-0.7522,-0.7753,-0.8055,-0.8508,-0.8965,-0.942,-0.9879,-1.0143,-1.04,-1.0669,-1.0931,-1.1037,-1.1186,-1.1409,-1.1558,-1.1706,-1.1929,-0.6343,-0.6296,-0.6254,-0.6251,-0.621,-0.6035,-0.5902,-0.5861,-0.5636,-0.5458,-0.5235,-0.4966,-0.4743,-0.4523,-0.4255,-0.4121,-0.3898,-0.363,-0.3227,-0.2957,-0.2714,-0.2437,-0.2198,-0.2038,-0.1997,-0.2165,-0.2276,-0.2315,-0.2315,-0.2315,-0.2315,-0.2315,-0.2314,-0.2275,-0.2275,-0.2157,-0.204,-0.2041,-0.1924,-0.1886,-0.1886,-0.2002,-0.2157,-0.2235,-0.2276,-0.2315,-0.2315,-0.2314,-0.2315,-0.2315,-0.2315,-0.2707,-0.3215,-0.3567,-0.3606,-0.3606,-0.3604,-0.3606,-0.3565,-0.3604,-0.3606,-0.3606,-0.3606,-0.3606,-0.3606,-0.3606,-0.3606,-0.3606,-0.3565,-0.3565,-0.3606,-0.3606,-0.3606,-0.3606,-0.3604,-0.3606,-0.3722,-0.4226,-0.4499,-0.481,-0.4849,-0.4888,-0.5007,-0.5165,-0.5398,-0.5592,-0.5705,-0.578,-0.5931,-0.6009,-0.6047,-0.6047,-0.6047,-0.6128,-0.6167,-0.6205,-0.6402,-0.6676,-0.6868,-0.7022,-0.7249,-0.7672,-0.8127,-0.878,-0.9241,-0.9463,-0.969,-0.9954,-1.0143,-1.0325,-1.0513,-1.0738,-1.0887,-1.1037,-1.1223,-0.6033,-0.5808,-0.5636,-0.5547,-0.5505,-0.5277,-0.5102,-0.4928,-0.4882,-0.4701,-0.4431,-0.4208,-0.3941,-0.3764,-0.3496,-0.3183,-0.2871,-0.2557,-0.2288,-0.2055,-0.1766,-0.1507,-0.1309,-0.1075,-0.0888,-0.087,-0.1139,-0.1413,-0.1492,-0.1492,-0.1492,-0.1492,-0.1492,-0.1492,-0.1492,-0.1453,-0.1414,-0.1375,-0.1335,-0.1336,-0.1335,-0.1375,-0.1413,-0.1492,-0.1492,-0.1492,-0.1492,-0.1492,-0.1492,-0.1492,-0.1492,-0.161,-0.1845,-0.2354,-0.2627,-0.2705,-0.2744,-0.2746,-0.2744,-0.2707,-0.2707,-0.2707,-0.2707,-0.2707,-0.2707,-0.2707,-0.2707,-0.2707,-0.2707,-0.2707,-0.2707,-0.2707,-0.2707,-0.2707,-0.2705,-0.2744,-0.2784,-0.294,-0.329,-0.372,-0.3878,-0.4073,-0.4268,-0.4426,-0.4657,-0.4851,-0.5007,-0.5082,-0.516,-0.5198,-0.5198,-0.5196,-0.5196,-0.5315,-0.5434,-0.5512,-0.5631,-0.5941,-0.6135,-0.6209,-0.6475,-0.6826,-0.7326,-0.7783,-0.8322,-0.8708,-0.8937,-0.9203,-0.9392,-0.9506,-0.9765,-1.0024,-1.0137,-1.0212,-1.0406,-0.5282,-0.5146,-0.4924,-0.4835,-0.4792,-0.4563,-0.4344,-0.4123,-0.3989,-0.3808,-0.3539,-0.3317,-0.3048,-0.2825,-0.2601,-0.2287,-0.1929,-0.157,-0.1346,-0.1161,-0.0878,-0.0644,-0.0462,-0.0288,-0.008,0.0039,-0.0079,-0.0353,-0.0589,-0.0629,-0.0629,-0.0629,-0.0629,-0.0629,-0.0629,-0.0629,-0.0629,-0.0629,-0.0629,-0.0629,-0.0629,-0.0629,-0.0629,-0.0629,-0.0629,-0.0629,-0.0629,-0.0629,-0.0629,-0.0629,-0.0629,-0.0629,-0.0746,-0.0982,-0.1452,-0.1727,-0.1845,-0.1884,-0.1884,-0.1884,-0.1884,-0.1884,-0.1884,-0.1884,-0.1884,-0.1884,-0.1885,-0.1885,-0.1884,-0.1885,-0.1885,-0.1885,-0.1884,-0.1884,-0.1884,-0.1884,-0.1884,-0.1884,-0.2158,-0.2588,-0.2823,-0.3134,-0.3524,-0.372,-0.3917,-0.4112,-0.4307,-0.4345,-0.4382,-0.4382,-0.4384,-0.4382,-0.4382,-0.4499,-0.4657,-0.4774,-0.4893,-0.5204,-0.5356,-0.547,-0.5586,-0.5935,-0.6205,-0.6549,-0.7092,-0.771,-0.8136,-0.8365,-0.8522,-0.8718,-0.8975,-0.9193,-0.9273,-0.9425,-0.9576,-0.4478,-0.4391,-0.4166,-0.4076,-0.3985,-0.3805,-0.3539,-0.3318,-0.3093,-0.2868,-0.2598,-0.2377,-0.2154,-0.1885,-0.157,-0.1301,-0.1076,-0.0673,-0.0492,-0.0354,-0.0044,0.0213,0.0292,0.0449,0.0679,0.0905,0.1021,0.0864,0.0354,0.0275,0.0275,0.0236,0.0275,0.0275,0.0275,0.0275,0.0236,0.0236,0.0275,0.0236,0.0275,0.0275,0.0275,0.0275,0.0236,0.0275,0.0275,0.0275,0.0275,0.0275,0.0275,0.0275,0.0275,0.0275,-0.0079,-0.0668,-0.0904,-0.1022,-0.1021,-0.1021,-0.1021,-0.1021,-0.1061,-0.1021,-0.1021,-0.1021,-0.1021,-0.1022,-0.1021,-0.1021,-0.1021,-0.1021,-0.1021,-0.1021,-0.1021,-0.1061,-0.1021,-0.1021,-0.1021,-0.1374,-0.1726,-0.2156,-0.2585,-0.2899,-0.3017,-0.3292,-0.3487,-0.3487,-0.3526,-0.3526,-0.3526,-0.3526,-0.3565,-0.3684,-0.3839,-0.3992,-0.4229,-0.4504,-0.4618,-0.4696,-0.481,-0.4965,-0.5234,-0.5506,-0.6012,-0.6595,-0.7061,-0.7484,-0.7676,-0.7906,-0.8174,-0.836,-0.8437,-0.8551,-0.8665,-0.376,-0.3361,-0.3361,-0.3226,-0.3092,-0.3002,-0.2734,-0.2378,-0.2333,-0.2019,-0.1614,-0.1524,-0.1301,-0.0852,-0.0448,-0.0224,-0.009,0.0134,0.0355,0.0481,0.0769,0.1004,0.1186,0.1357,0.1543,0.1726,0.1922,0.1688,0.1335,0.1218,0.1139,0.1139,0.1139,0.114,0.1139,0.1139,0.114,0.114,0.114,0.114,0.1139,0.1139,0.1139,0.1139,0.1139,0.1139,0.1139,0.1139,0.1139,0.1178,0.1139,0.1139,0.114,0.114,0.114,0.0786,0.0354,-0.0157,-0.0118,-0.0157,-0.0157,-0.0157,-0.0157,-0.0157,-0.0157,-0.0157,-0.0157,-0.0157,-0.0157,-0.0157,-0.0157,-0.0157,-0.0157,-0.0157,-0.0157,-0.0157,-0.0157,-0.0157,-0.0157,-0.0157,-0.051,-0.1137,-0.1646,-0.192,-0.2156,-0.2431,-0.2668,-0.2668,-0.2668,-0.2668,-0.2668,-0.2707,-0.2744,-0.2862,-0.3057,-0.3212,-0.3446,-0.3802,-0.388,-0.3917,-0.3954,-0.407,-0.4265,-0.4616,-0.5043,-0.5473,-0.5935,-0.636,-0.6749,-0.7019,-0.7249,-0.7442,-0.7638,-0.7714,-0.7787,-0.2599,-0.278,-0.2511,-0.2377,-0.2286,-0.2107,-0.1882,-0.1615,-0.1436,-0.1166,-0.0852,-0.0673,-0.0359,0.009,0.0493,0.0673,0.0805,0.102,0.1228,0.1378,0.1597,0.1808,0.1988,0.2107,0.2237,0.2547,0.2665,0.2821,0.251,0.2198,0.2002,0.1962,0.1962,0.1962,0.1962,0.1962,0.2002,0.1962,0.1963,0.2003,0.2003,0.2002,0.2002,0.2002,0.2002,0.2002,0.2002,0.1963,0.2042,0.212,0.2159,0.2235,0.2275,0.2314,0.2314,0.2275,0.1998,0.1451,0.0864,0.0786,0.0746,0.0746,0.0746,0.0746,0.0746,0.0746,0.0746,0.0746,0.0746,0.0746,0.0746,0.0746,0.0707,0.0746,0.0746,0.0746,0.0746,0.0746,0.0746,0.0746,0.0668,0.0118,-0.0431,-0.0784,-0.1137,-0.1608,-0.1805,-0.1805,-0.1805,-0.1845,-0.1845,-0.1846,-0.1884,-0.2002,-0.2234,-0.2429,-0.2626,-0.2901,-0.302,-0.3057,-0.3057,-0.3173,-0.3368,-0.3522,-0.3834,-0.4302,-0.4807,-0.5354,-0.586,-0.6054,-0.6247,-0.644,-0.6633,-0.6745,-0.6861,-0.1391,-0.184,-0.1615,-0.1525,-0.1436,-0.1166,-0.0897,-0.0718,-0.0448,-0.0224,0.0045,0.0314,0.0673,0.1076,0.1345,0.1565,0.1733,0.1882,0.207,0.2286,0.2444,0.2639,0.2804,0.2879,0.3056,0.3404,0.3444,0.3641,0.3759,0.3524,0.3134,0.2862,0.2824,0.2824,0.2823,0.2823,0.2824,0.2824,0.2824,0.2823,0.2823,0.2899,0.2899,0.2901,0.294,0.2979,0.2979,0.2979,0.3096,0.3176,0.3215,0.3292,0.3368,0.3366,0.3368,0.3366,0.3249,0.2976,0.2352,0.204,0.1805,0.1727,0.1649,0.1649,0.1609,0.1609,0.1609,0.1571,0.161,0.161,0.161,0.161,0.1609,0.1609,0.1609,0.1609,0.161,0.1609,0.157,0.157,0.1531,0.1452,0.0941,0.0471,-0.0039,-0.0707,-0.0943,-0.0982,-0.0982,-0.0982,-0.0982,-0.0982,-0.0982,-0.1099,-0.1412,-0.1647,-0.1844,-0.2041,-0.2158,-0.2198,-0.2196,-0.2235,-0.2391,-0.2546,-0.2741,-0.3054,-0.3561,-0.4265,-0.4929,-0.5082,-0.5276,-0.5434,-0.5628,-0.5741,-0.5935,-0.0135,-0.0179,-0.0583,-0.0672,-0.0493,-0.0224,0.0045,0.0269,0.0493,0.0762,0.1076,0.1435,0.1793,0.206,0.2231,0.2435,0.2614,0.2611,0.2842,0.3017,0.3165,0.3403,0.3604,0.3773,0.3917,0.4226,0.4302,0.4535,0.481,0.4771,0.4304,0.3802,0.3761,0.3724,0.3722,0.3722,0.3761,0.3761,0.3761,0.3761,0.38,0.3876,0.399,0.4029,0.4148,0.4268,0.4265,0.4226,0.4226,0.4268,0.4268,0.4304,0.438,0.438,0.4419,0.4419,0.438,0.4224,0.3951,0.3327,0.3015,0.2899,0.2784,0.2627,0.2549,0.247,0.2431,0.247,0.251,0.247,0.2433,0.2433,0.2431,0.2431,0.2431,0.2433,0.2433,0.2431,0.2431,0.2393,0.2354,0.2315,0.2196,0.1764,0.098,0.0314,-0.0039,-0.0118,-0.0079,-0.0079,-0.0079,-0.0079,-0.0079,-0.0236,-0.0589,-0.0785,-0.0942,-0.1178,-0.1335,-0.1375,-0.1375,-0.1413,-0.1452,-0.1647,-0.1842,-0.2038,-0.2313,-0.2978,-0.3561,-0.399,-0.4265,-0.4421,-0.4654,-0.4846,-0.5043,0.0652,0.0791,0.0748,0.0576,0.0314,0.0673,0.0897,0.1076,0.1436,0.1838,0.2194,0.2419,0.267,0.2911,0.303,0.3216,0.3406,0.3437,0.3671,0.3899,0.3997,0.4187,0.4384,0.4577,0.473,0.5043,0.5157,0.5351,0.5699,0.5738,0.5622,0.5234,0.4849,0.4577,0.4538,0.4657,0.4698,0.4774,0.4849,0.4885,0.4927,0.4965,0.5002,0.504,0.5079,0.516,0.516,0.5118,0.5198,0.5318,0.5315,0.5392,0.5467,0.5467,0.5506,0.5506,0.5506,0.5506,0.5312,0.4574,0.3954,0.3876,0.3798,0.372,0.3602,0.3641,0.3563,0.3522,0.3483,0.3444,0.3333,0.3333,0.3333,0.3292,0.3292,0.3331,0.3292,0.3331,0.3292,0.3292,0.3294,0.3255,0.3136,0.3017,0.2156,0.1333,0.1021,0.0786,0.0786,0.0786,0.0785,0.0785,0.0785,0.0589,0.0236,0.0118,-0.0039,-0.0275,-0.0511,-0.0511,-0.0511,-0.0511,-0.055,-0.0746,-0.0863,-0.1059,-0.1334,-0.1726,-0.2234,-0.2899,-0.3251,-0.3407,-0.3641,-0.3873,-0.4068,0.1486,0.172,0.1979,0.1706,0.1209,0.157,0.1749,0.1928,0.2377,0.2857,0.3238,0.3219,0.3404,0.3664,0.378,0.3948,0.4205,0.4304,0.4494,0.4676,0.4815,0.5007,0.5234,0.5428,0.5583,0.5893,0.6009,0.6202,0.6588,0.6588,0.6549,0.6356,0.6047,0.5738,0.5389,0.555,0.5709,0.5783,0.5896,0.597,0.5973,0.6051,0.6089,0.6089,0.6167,0.6205,0.6244,0.6244,0.6279,0.636,0.6402,0.644,0.6553,0.663,0.6665,0.6703,0.67,0.6738,0.6468,0.5699,0.4965,0.4888,0.4849,0.481,0.4771,0.4771,0.4613,0.4572,0.4533,0.4496,0.4345,0.4384,0.4382,0.4419,0.4421,0.4421,0.4307,0.4268,0.4229,0.4151,0.4151,0.4112,0.4034,0.3876,0.3134,0.2313,0.1844,0.1649,0.1609,0.1649,0.1649,0.1649,0.1649,0.1373,0.1099,0.0981,0.0863,0.0589,0.0393,0.0393,0.0393,0.0393,0.0393,0.0275,0.0118,-0.0039,-0.0314,-0.0588,-0.1256,-0.1962,-0.2235,-0.2507,-0.2624,-0.2818,-0.2976,0.2394,0.2609,0.2863,0.2674,0.2274,0.2377,0.2594,0.2847,0.3341,0.3752,0.4029,0.3966,0.4137,0.4497,0.4534,0.4722,0.4965,0.505,0.524,0.5548,0.5643,0.5854,0.6047,0.6244,0.6395,0.6788,0.6903,0.7053,0.7442,0.7437,0.7442,0.7442,0.7246,0.6938,0.6279,0.6444,0.6676,0.6822,0.6861,0.6938,0.6976,0.7096,0.7134,0.7173,0.7288,0.7322,0.7326,0.7322,0.7361,0.7361,0.7442,0.7476,0.7514,0.7668,0.774,0.774,0.7927,0.8003,0.7923,0.6815,0.6279,0.5973,0.5935,0.5857,0.5664,0.5625,0.5625,0.5622,0.5583,0.5583,0.5544,0.5544,0.5506,0.5467,0.5467,0.5431,0.5356,0.5279,0.5237,0.5124,0.5043,0.4963,0.4888,0.4693,0.4034,0.337,0.2744,0.251,0.251,0.2472,0.2511,0.2511,0.2511,0.2314,0.2038,0.1921,0.1725,0.1453,0.1257,0.1257,0.1256,0.1256,0.1217,0.1218,0.11,0.0942,0.0746,0.0549,-0.0078,-0.0666,-0.1294,-0.1568,-0.1685,-0.1763,-0.1921,0.3078,0.3453,0.3578,0.3678,0.3729,0.3394,0.3351,0.3608,0.4034,0.4444,0.4667,0.475,0.4945,0.5191,0.5357,0.5465,0.5644,0.581,0.6028,0.6447,0.6475,0.6745,0.6942,0.7096,0.7246,0.748,0.7633,0.7825,0.8097,0.8208,0.828,0.8318,0.828,0.7936,0.7553,0.7557,0.7863,0.7897,0.8012,0.8089,0.8089,0.8131,0.8169,0.8169,0.8246,0.8284,0.8284,0.828,0.8284,0.8318,0.8356,0.847,0.8508,0.8656,0.877,0.8808,0.8879,0.8917,0.8879,0.8342,0.7927,0.7433,0.7015,0.6938,0.6861,0.6865,0.6788,0.6672,0.6633,0.6591,0.6475,0.6472,0.6433,0.6437,0.6437,0.6437,0.636,0.636,0.6321,0.617,0.6054,0.5896,0.5819,0.5741,0.5157,0.4732,0.4224,0.3679,0.3561,0.3409,0.3372,0.3372,0.3333,0.3175,0.3017,0.286,0.2665,0.2431,0.2198,0.2079,0.2079,0.2157,0.2119,0.2119,0.204,0.1922,0.1725,0.149,0.1216,0.0745,0.0157,-0.0431,-0.0628,-0.0706,-0.0824,0.3793,0.4168,0.425,0.4525,0.48,0.4211,0.4116,0.4485,0.4872,0.5139,0.5377,0.5545,0.5724,0.5897,0.6067,0.6241,0.6367,0.6556,0.6784,0.7207,0.7288,0.7518,0.7714,0.7906,0.8055,0.8208,0.8441,0.8637,0.8861,0.9046,0.9122,0.9122,0.9193,0.9041,0.8775,0.8742,0.8746,0.8856,0.9046,0.9079,0.9079,0.9122,0.9117,0.9117,0.9122,0.9122,0.9122,0.9122,0.9122,0.9155,0.9268,0.942,0.9496,0.9642,0.9793,0.983,0.9906,0.9938,0.9938,0.983,0.9372,0.8993,0.8389,0.805,0.8016,0.7902,0.7825,0.7748,0.7714,0.7633,0.7514,0.7472,0.7476,0.7476,0.7476,0.7514,0.7399,0.7403,0.7361,0.7211,0.698,0.6861,0.6707,0.663,0.636,0.6047,0.5738,0.5196,0.4652,0.446,0.4268,0.4268,0.4229,0.4073,0.3954,0.38,0.3604,0.337,0.3253,0.3095,0.3173,0.329,0.3175,0.3057,0.3056,0.2937,0.2665,0.243,0.2272,0.2037,0.1645,0.1097,0.0589,0.0353,0.0275,0.454,0.4737,0.4965,0.5285,0.5475,0.504,0.509,0.559,0.5757,0.5944,0.6141,0.6208,0.6401,0.662,0.6837,0.703,0.7219,0.7407,0.7633,0.7863,0.8059,0.825,0.8475,0.8665,0.8818,0.9008,0.9241,0.943,0.962,0.9841,0.9916,0.9954,1.0062,1.0024,0.9911,0.9798,0.969,0.9803,0.9841,0.9873,0.9911,0.9916,0.9949,0.9949,0.9916,0.9954,0.9954,0.9916,0.9916,0.9986,1.0105,1.0212,1.0363,1.0625,1.0738,1.0887,1.1037,1.1031,1.1031,1.0887,1.085,1.0464,0.9793,0.9301,0.8965,0.8856,0.878,0.8703,0.8665,0.8699,0.8661,0.8661,0.8627,0.8665,0.8665,0.8589,0.8479,0.8399,0.8322,0.8165,0.7931,0.7778,0.7629,0.7514,0.7437,0.7284,0.6973,0.6626,0.6086,0.5509,0.5315,0.516,0.5085,0.5007,0.4851,0.4732,0.4616,0.4421,0.4343,0.4263,0.4343,0.4343,0.4224,0.4146,0.4146,0.4027,0.3832,0.364,0.3446,0.3171,0.2974,0.235,0.1764,0.153,0.1373,0.5392,0.5553,0.5777,0.6054,0.63,0.6385,0.6301,0.609,0.64,0.6624,0.6702,0.7003,0.7173,0.7296,0.7603,0.7753,0.7944,0.8208,0.8432,0.8661,0.8856,0.9051,0.9241,0.9425,0.9576,0.9765,0.9954,1.018,1.0331,1.0556,1.0743,1.0781,1.085,1.0925,1.0925,1.0844,1.0738,1.0594,1.0594,1.0631,1.07,1.0738,1.0738,1.0738,1.0738,1.0738,1.0738,1.0743,1.0738,1.0775,1.0962,1.1111,1.1292,1.1515,1.1669,1.1855,1.1929,1.1966,1.1972,1.1892,1.1855,1.1818,1.1329,1.0657,1.0175,0.9841,0.9728,0.9647,0.9571,0.9533,0.9533,0.9533,0.9533,0.9576,0.9576,0.9501,0.9425,0.9387,0.9306,0.9117,0.8884,0.8694,0.8546,0.8432,0.8351,0.8318,0.8169,0.7859,0.7437,0.6822,0.636,0.6167,0.6089,0.6012,0.5819,0.5699,0.5586,0.547,0.5431,0.5354,0.5312,0.5312,0.5234,0.5196,0.5157,0.5115,0.5076,0.4846,0.4652,0.4499,0.4263,0.3561,0.3017,0.2743,0.2508,0.6167,0.6321,0.6591,0.6903,0.7215,0.7526,0.7437,0.7242,0.7326,0.7365,0.7446,0.7787,0.7978,0.8055,0.8365,0.8594,0.8637,0.897,0.9231,0.9344,0.9652,0.9803,0.9992,1.0218,1.0363,1.0513,1.0669,1.0893,1.1037,1.1335,1.1558,1.1601,1.1595,1.1632,1.1706,1.1669,1.1669,1.1484,1.1378,1.1341,1.1372,1.1484,1.1484,1.1558,1.1558,1.1558,1.1558,1.1595,1.1601,1.1601,1.1781,1.1966,1.2187,1.2415,1.2599,1.2746,1.2746,1.2783,1.2783,1.2783,1.2746,1.2746,1.2636,1.2224,1.1521,1.1037,1.0775,1.055,1.0438,1.0368,1.0363,1.0363,1.0363,1.0406,1.0368,1.0363,1.0368,1.0368,1.0255,1.0062,0.9873,0.9685,0.9533,0.9382,0.9268,0.9193,0.916,0.9046,0.8546,0.7974,0.751,0.7203,0.7165,0.7092,0.6896,0.6703,0.6665,0.6588,0.6514,0.6437,0.636,0.636,0.6395,0.6279,0.6167,0.6125,0.6121,0.6047,0.5857,0.5702,0.5586,0.5234,0.4572,0.3951,0.3717,0.7019,0.7019,0.7446,0.7825,0.8217,0.8365,0.8551,0.8742,0.8441,0.8255,0.8289,0.8627,0.8818,0.8856,0.9203,0.9397,0.9506,0.9803,0.9992,1.0035,1.0438,1.0625,1.0738,1.0999,1.1149,1.126,1.1409,1.1669,1.1892,1.215,1.2342,1.2378,1.2378,1.2415,1.2452,1.2452,1.2452,1.2452,1.2187,1.204,1.2046,1.212,1.2194,1.2342,1.2378,1.2378,1.2378,1.2378,1.2415,1.2459,1.2569,1.2753,1.3046,1.3339,1.3528,1.3564,1.3557,1.3557,1.3557,1.3557,1.3557,1.3564,1.3564,1.3375,1.2849,1.2114,1.1744,1.1484,1.1372,1.126,1.1217,1.1186,1.1186,1.1186,1.1186,1.1186,1.1186,1.1186,1.1149,1.0999,1.0844,1.0657,1.0545,1.0395,1.0282,1.0137,1.0105,1.0105,0.9841,0.9268,0.8775,0.8385,0.8203,0.8127,0.797,0.7812,0.7778,0.7706,0.7629,0.7629,0.7621,0.7587,0.7557,0.751,0.7429,0.7242,0.7165,0.7126,0.7049,0.6938,0.6861,0.6826,0.6321,0.5503,0.4924,0.7834,0.7829,0.8246,0.8627,0.898,0.9056,0.9273,0.962,0.969,0.943,0.9165,0.943,0.962,0.9652,1.003,1.0218,1.0293,1.0625,1.0781,1.0931,1.1223,1.1372,1.1484,1.1781,1.1972,1.2083,1.2231,1.2489,1.2746,1.2936,1.309,1.32,1.3193,1.3193,1.3193,1.3193,1.3229,1.3302,1.3149,1.2849,1.2783,1.2863,1.2936,1.3046,1.3083,1.3193,1.3193,1.3193,1.3236,1.3236,1.3273,1.3484,1.3804,1.4165,1.4317,1.4361,1.4353,1.4353,1.4353,1.4353,1.4353,1.4353,1.4353,1.4317,1.3956,1.3222,1.2709,1.2482,1.2261,1.215,1.204,1.204,1.2003,1.2009,1.2009,1.2009,1.2009,1.2009,1.2003,1.1892,1.1781,1.1669,1.1521,1.1446,1.1335,1.1298,1.1298,1.126,1.1186,1.0769,1.0169,0.9755,0.9311,0.916,0.8998,0.8917,0.8841,0.8846,0.8765,0.8803,0.8841,0.877,0.8694,0.8808,0.8765,0.8537,0.8389,0.8356,0.828,0.8165,0.8012,0.7974,0.7859,0.7234,0.6507,0.8556,0.8675,0.9051,0.9463,0.9771,0.9846,1.0067,1.0443,1.0625,1.0588,1.0368,1.0331,1.0325,1.0481,1.0856,1.1037,1.1105,1.1446,1.1595,1.1744,1.1935,1.2114,1.2335,1.2562,1.2709,1.2856,1.3046,1.3309,1.3564,1.3746,1.3819,1.3964,1.4,1.4,1.4,1.4,1.4,1.4,1.3992,1.3848,1.3622,1.3622,1.3666,1.3739,1.3884,1.3956,1.3992,1.3992,1.3992,1.4065,1.4173,1.431,1.4625,1.4911,1.5098,1.5133,1.5161,1.5125,1.5125,1.5133,1.5133,1.5133,1.5125,1.5125,1.5098,1.4438,1.4006,1.3716,1.3215,1.3025,1.2952,1.2922,1.2856,1.2863,1.2863,1.2826,1.2826,1.2826,1.282,1.2783,1.2709,1.2636,1.2489,1.2415,1.2335,1.2187,1.2231,1.2268,1.2187,1.2181,1.1626,1.1149,1.0738,1.0293,1.0019,0.9943,0.99,0.9906,0.99,0.983,0.9793,0.9793,0.983,0.9863,0.9863,0.9755,0.9604,0.9528,0.9528,0.9453,0.9263,0.9074,0.896,0.8846,0.8232,0.9273,0.9549,0.9879,1.0293,1.0625,1.0663,1.0893,1.1223,1.1446,1.1632,1.1744,1.1298,1.1186,1.1335,1.1669,1.1781,1.1966,1.2298,1.2415,1.2526,1.2673,1.2893,1.3076,1.3266,1.3448,1.363,1.3783,1.3964,1.4173,1.4353,1.4533,1.4677,1.4748,1.474,1.4748,1.4748,1.4748,1.4748,1.4776,1.4784,1.4597,1.4382,1.4382,1.4453,1.4641,1.4705,1.474,1.474,1.4776,1.4883,1.5062,1.524,1.5417,1.57,1.5877,1.5947,1.5947,1.5947,1.5939,1.5947,1.5947,1.5947,1.5939,1.5939,1.5903,1.5727,1.5267,1.4903,1.4402,1.3941,1.3905,1.376,1.3702,1.363,1.363,1.363,1.363,1.363,1.363,1.363,1.3593,1.3521,1.3448,1.3375,1.3302,1.3156,1.3119,1.3119,1.3119,1.3105,1.2842,1.2549,1.2218,1.1737,1.1217,1.1068,1.1099,1.1068,1.1105,1.0887,1.0781,1.085,1.0881,1.0881,1.0844,1.0807,1.0732,1.0657,1.0657,1.0619,1.0432,1.0201,1.0169,1.0056,0.9868,1.0175,1.0519,1.0775,1.1111,1.1446,1.1477,1.1706,1.204,1.2114,1.2342,1.2562,1.2562,1.2378,1.2114,1.2489,1.2673,1.2739,1.3083,1.3229,1.3302,1.3455,1.3666,1.3848,1.4029,1.4253,1.4397,1.4497,1.4577,1.482,1.4991,1.5169,1.5319,1.5515,1.5551,1.5551,1.5559,1.5559,1.5559,1.5559,1.5559,1.5417,1.5204,1.4919,1.5034,1.5213,1.5382,1.5515,1.5551,1.5586,1.5692,1.5868,1.6053,1.6228,1.6447,1.6656,1.6691,1.6691,1.6691,1.6682,1.6682,1.6682,1.6691,1.6691,1.6682,1.6691,1.6691,1.6368,1.6254,1.5683,1.4974,1.476,1.4517,1.4418,1.4418,1.4418,1.4418,1.4418,1.4418,1.4418,1.4418,1.4382,1.4346,1.4346,1.431,1.431,1.4201,1.4194,1.4201,1.4165,1.4093,1.4013,1.3833,1.3608,1.3178,1.2629,1.2409,1.2365,1.2335,1.2268,1.2114,1.204,1.2009,1.2009,1.2033,1.1959,1.1922,1.1848,1.1805,1.1663,1.1626,1.1515,1.1366,1.1335,1.1223,1.1031]}]]